GFSWCAN_925_spd_000.txt.gz
Wind_Speed
32 28 26 21 17 17 15 13 12 11 9 8 7 4 2 1 1 1 2 8 1 3 1 3 2 3 2 2 5 4 3 2 2 3 3 3 3 4 2 4 5 6 6 4 3 2 7 2 2 3 3 2 3 4
33 31 27 23 17 18 18 15 13 12 10 8 6 5 1 1 2 0 1 4 7 4 3 2 4 5 4 2 5 1 2 3 4 4 2 3 2 1 4 3 1 3 5 5 7 5 2 3 5 3 4 4 3 2
27 32 29 24 19 21 19 18 15 12 11 9 8 7 4 1 2 2 2 3 4 3 3 3 3 6 4 8 5 4 2 3 2 2 3 2 2 3 4 4 2 2 2 2 1 1 6 4 2 2 4 5 6 5
30 33 32 26 22 24 21 20 17 14 13 9 7 6 7 5 5 3 3 4 4 3 3 1 2 4 6 2 7 5 7 5 4 3 3 2 2 3 3 2 3 5 2 2 3 5 3 4 4 6 6 5 3 3
38 36 33 29 26 26 24 22 19 16 13 11 8 6 7 8 8 8 8 7 7 1 3 2 3 5 7 5 9 12 10 4 2 3 3 1 0 2 2 2 4 4 6 4 4 4 3 3 0 3 3 3 6 7
43 39 35 30 30 29 26 24 21 19 16 13 11 9 9 10 11 5 2 1 2 4 3 2 2 5 8 10 11 7 3 3 2 3 2 1 1 2 2 3 6 4 0 3 4 4 4 2 4 2 1 3 4 4
37 42 38 34 34 32 29 26 24 22 19 17 14 12 10 10 8 4 3 0 5 4 3 2 1 2 2 4 3 3 5 2 2 2 2 2 2 3 2 4 6 3 5 1 1 5 2 1 2 5 5 2 3 2
6 21 35 38 37 33 30 27 26 24 23 20 17 14 12 12 11 6 5 6 8 5 3 3 1 1 2 2 2 1 2 1 3 2 2 2 1 1 4 4 2 2 0 5 4 4 2 4 5 3 4 6 6 6
28 13 18 28 35 35 32 29 28 26 26 23 20 17 11 3 3 4 9 9 6 3 2 2 4 3 1 2 2 2 1 2 1 1 2 3 3 6 5 3 5 5 4 5 3 1 4 2 5 6 5 5 5 5
19 18 17 7 32 33 33 31 29 29 29 28 24 4 2 4 12 8 3 2 3 2 2 2 2 2 2 2 2 2 2 1 2 1 2 2 4 6 5 7 5 5 4 7 3 3 3 3 4 4 5 5 7 5
15 11 8 9 8 30 30 32 33 34 31 8 3 2 7 13 4 3 2 2 1 1 3 2 2 4 1 3 3 1 2 1 2 3 2 2 3 3 5 2 2 3 4 6 4 3 4 4 5 4 5 4 6 6
11 9 4 3 1 5 25 29 33 28 12 11 14 12 7 3 2 4 4 2 3 6 3 4 3 3 2 2 3 1 3 1 4 2 2 3 3 2 3 4 5 6 7 6 6 5 5 6 7 6 5 5 9 9
6 8 3 1 2 5 4 23 29 12 27 12 5 3 3 1 3 8 9 5 4 4 4 4 4 3 2 2 3 2 3 2 4 2 3 4 3 3 3 2 1 1 1 1 3 4 6 6 6 7 7 9 10 10
5 8 4 2 4 8 6 5 15 26 3 3 4 6 6 5 6 5 5 4 3 5 8 5 3 3 2 2 2 4 2 4 3 3 5 3 4 2 1 1 0 4 7 7 7 8 7 8 8 10 11 12 13 12
5 6 6 4 4 6 10 7 21 8 2 3 4 6 7 3 1 2 2 3 1 5 6 5 3 3 2 3 2 3 3 4 6 4 3 4 3 4 4 4 7 7 6 5 3 4 7 8 9 10 12 13 14 12
5 4 8 5 5 7 6 9 7 3 2 2 3 2 3 5 2 1 1 3 2 5 3 3 4 4 3 4 3 4 7 5 3 3 3 3 4 6 5 6 7 6 6 7 9 10 12 10 12 13 12 13 12 11
6 4 2 5 6 7 5 3 2 2 3 4 2 1 3 3 4 3 3 3 3 3 3 4 5 5 3 3 3 3 4 3 4 3 3 5 6 7 6 6 6 9 8 10 11 13 14 12 11 9 6 12 12 11
6 6 2 6 5 3 1 2 1 3 3 1 3 2 1 2 5 3 3 4 3 2 3 5 4 3 5 5 3 4 4 1 3 3 3 4 5 6 7 6 10 12 10 11 12 14 10 9 9 8 12 8 7 7
10 9 3 6 6 2 1 2 1 1 1 2 2 1 2 2 3 4 4 3 3 3 5 2 4 2 3 3 4 3 2 3 1 1 3 3 5 7 9 12 13 9 9 7 6 8 9 9 8 7 6 5 4 3
8 7 8 8 5 2 1 1 1 2 0 1 2 2 2 2 2 3 4 2 3 3 2 2 4 4 4 3 3 3 3 3 3 2 4 4 7 7 10 10 8 6 4 3 2 3 4 3 3 4 4 3 2 4
5 3 5 9 1 2 1 2 2 1 1 2 2 2 2 2 3 2 2 1 3 2 3 4 4 4 1 1 2 3 2 4 4 4 4 3 4 5 4 5 5 4 3 3 3 3 4 4 4 5 4 1 2 5
2 6 2 1 1 2 0 3 2 1 2 1 2 2 3 2 2 2 2 1 2 3 4 3 2 2 1 3 1 2 3 4 6 6 5 4 1 0 1 6 7 2 3 3 5 6 7 9 6 4 2 3 4 8
6 3 3 2 1 2 1 1 3 2 3 3 2 3 1 1 1 0 1 2 3 2 1 1 0 2 1 1 1 2 2 4 3 3 4 3 3 4 5 6 4 7 3 3 5 10 10 6 5 3 3 5 8 12
3 3 2 2 3 2 2 2 2 2 2 2 3 3 1 2 1 1 2 2 2 2 2 4 2 2 2 3 2 2 6 3 1 2 1 7 2 3 5 5 4 6 6 11 11 10 8 6 3 4 5 8 10 12
3 2 4 1 0 2 2 2 2 2 2 2 3 2 2 1 2 3 3 3 1 1 2 3 2 2 2 1 2 2 7 5 1 2 3 3 9 9 8 9 9 9 11 13 10 8 6 3 3 5 8 10 12 14
2 2 4 5 2 4 4 4 4 3 3 2 1 2 1 2 2 5 3 2 1 1 0 1 1 2 2 2 2 2 5 7 2 3 3 4 8 7 4 4 2 4 5 6 8 7 4 2 5 8 12 14 14 16
3 4 2 1 3 4 2 2 2 3 3 4 4 3 3 3 5 3 1 0 1 1 1 2 1 1 2 2 2 3 4 3 4 8 7 6 5 4 10 9 5 8 8 6 5 3 2 5 8 11 13 16 18 18
4 4 6 4 2 1 4 2 3 5 3 2 4 3 7 7 4 2 2 2 2 1 1 2 2 2 3 3 3 7 10 14 16 18 19 18 16 15 13 13 12 9 7 4 2 2 4 6 8 10 13 17 19 20
3 2 4 5 2 1 4 5 5 3 3 4 5 5 4 1 0 1 1 1 1 1 3 3 3 5 7 8 9 11 13 10 3 4 5 3 1 4 8 8 8 7 3 1 1 4 6 6 8 11 13 14 17 19
4 2 4 2 6 6 4 4 3 2 1 2 3 2 2 2 2 3 2 2 2 2 3 5 8 8 6 7 8 9 7 3 1 2 3 3 4 10 8 8 5 3 3 3 5 7 7 8 11 12 15 18 21 23
3 3 3 2 4 2 2 0 2 2 2 2 2 3 2 2 1 4 4 1 2 3 6 7 8 9 10 8 5 5 3 7 10 10 11 14 12 8 8 6 3 3 4 6 7 9 10 11 13 16 18 20 22 23
3 6 4 3 2 3 2 2 1 2 1 2 1 2 2 2 2 1 6 2 3 5 5 9 9 6 8 7 5 4 6 12 11 11 9 7 6 6 6 2 3 5 7 7 7 8 9 12 14 17 19 21 24 27
2 2 2 3 2 2 2 3 2 2 3 2 1 1 1 0 2 1 3 4 6 8 9 9 9 9 8 9 10 10 10 10 7 4 1 2 5 6 4 2 4 5 7 8 9 10 12 14 16 18 20 23 25 27

GFSWCAN_925_spd_003.txt.gz
Wind_Speed
28 28 31 29 28 24 19 18 17 15 15 12 10 9 6 5 3 3 3 4 2 3 2 3 2 3 3 2 4 4 4 2 3 3 3 3 3 4 3 5 6 6 6 4 3 2 6 0 2 5 4 3 5 5
30 26 29 25 30 24 18 20 18 16 16 14 11 9 7 5 5 3 3 4 6 4 2 3 6 7 3 2 5 1 1 3 4 4 1 3 2 1 3 3 1 3 5 5 6 4 2 2 4 4 5 6 4 2
31 26 27 28 32 27 22 21 20 18 17 15 13 10 8 5 5 5 4 4 5 3 3 3 3 8 7 7 2 4 1 4 2 2 4 2 3 3 4 4 2 1 2 3 3 2 3 4 3 3 2 3 3 2
34 34 28 26 34 29 24 23 22 19 17 15 14 12 10 8 6 6 4 2 4 3 4 0 2 4 8 4 4 2 8 5 5 3 2 2 3 2 3 2 3 3 4 4 1 1 3 2 1 3 4 1 1 2
39 42 29 26 36 30 27 27 24 21 18 16 14 13 12 10 9 9 10 8 6 3 3 2 1 7 9 4 12 13 10 5 3 3 2 2 2 3 2 2 3 4 6 4 5 5 4 4 4 3 4 2 1 2
45 42 27 38 35 32 30 28 25 22 20 17 15 14 14 14 15 4 2 2 5 4 4 2 1 5 10 14 15 8 4 3 3 3 2 2 1 2 3 1 4 3 2 3 4 5 4 5 6 2 3 4 6 6
40 41 18 39 35 33 32 30 26 23 21 19 17 16 16 15 9 4 3 1 5 3 3 3 1 3 3 3 3 3 5 3 3 2 2 2 1 2 3 4 4 3 6 3 3 6 4 4 4 5 6 3 3 4
41 48 14 31 35 35 35 32 28 25 23 22 19 18 15 16 12 7 7 7 4 8 3 3 1 2 4 2 2 3 2 2 3 2 1 2 1 1 3 5 2 3 5 5 6 6 5 6 5 4 4 1 3 5
35 34 41 24 36 39 39 37 34 30 26 25 23 24 9 3 3 6 10 9 10 5 3 2 4 3 1 2 2 2 2 2 2 1 1 2 1 4 4 5 5 5 3 6 4 5 5 3 3 3 3 3 3 5
31 31 27 14 23 32 39 39 38 36 32 30 22 4 2 3 20 13 4 3 4 3 2 2 2 3 2 1 2 2 2 2 1 0 1 1 3 4 5 6 4 5 7 8 4 3 1 2 4 3 5 5 6 8
25 30 26 25 4 28 32 37 40 40 38 9 3 2 6 14 4 3 2 2 1 1 3 2 3 4 1 3 3 1 2 1 2 2 2 2 3 4 3 2 2 4 7 5 4 3 3 2 3 4 5 6 8 10
21 24 25 15 26 21 30 34 38 26 14 13 16 11 5 3 3 4 3 1 3 5 3 4 3 3 2 2 3 1 2 1 4 3 2 3 4 3 0 2 4 6 7 6 4 4 4 4 6 6 6 7 8 9
19 19 22 19 14 21 21 32 37 19 31 15 5 4 3 2 3 9 9 5 4 5 5 4 4 3 3 3 3 2 4 3 3 2 3 4 3 2 3 3 3 2 3 2 2 4 6 7 7 8 8 8 7 8
15 16 19 18 15 12 15 14 30 22 6 2 4 6 5 5 6 5 5 5 3 5 10 8 3 3 2 3 3 4 2 3 3 2 5 3 5 5 6 3 4 5 7 7 6 6 7 6 8 9 10 10 10 11
11 13 13 13 12 12 4 6 7 8 3 3 4 6 7 2 2 1 2 4 1 9 9 5 3 3 2 4 2 4 4 4 6 5 3 4 5 6 7 5 6 5 3 4 3 3 6 7 8 12 13 12 13 13
8 9 7 9 8 6 6 2 5 3 2 2 2 3 2 3 2 1 1 4 2 7 3 3 4 3 2 4 5 6 7 6 4 3 3 3 6 6 4 3 3 3 3 5 7 8 9 7 9 10 10 12 13 13
3 2 6 6 7 6 6 3 2 1 2 3 1 1 3 2 4 3 3 3 3 9 3 3 5 6 4 2 2 3 5 4 3 3 2 5 7 6 6 5 4 5 7 9 9 9 10 10 8 7 5 12 13 14
3 4 7 4 5 3 1 1 1 3 3 2 3 3 2 2 5 4 3 5 3 2 2 5 4 4 5 7 3 3 2 2 1 2 3 4 4 4 6 6 8 11 11 10 9 9 7 6 6 8 11 9 6 7
5 5 3 4 6 1 1 0 1 1 1 2 2 1 3 3 3 4 4 4 4 2 5 2 4 3 3 3 3 1 0 2 2 2 1 2 6 7 8 11 12 9 8 6 4 5 6 7 7 5 4 5 3 3
3 2 2 7 8 1 1 0 1 1 0 1 2 3 3 3 2 4 5 3 2 2 3 2 3 3 3 2 3 3 2 3 3 1 3 3 5 5 8 8 8 6 5 3 2 2 2 2 1 1 3 4 3 2
2 1 2 6 2 1 1 1 1 1 1 2 1 2 3 2 3 2 2 1 3 2 1 3 1 2 2 2 4 4 3 4 4 4 3 3 2 1 1 1 4 5 3 3 2 2 3 2 4 5 6 5 4 3
3 1 2 2 2 1 1 2 1 1 2 1 2 2 3 2 2 2 2 2 1 3 3 1 0 2 2 3 2 3 3 2 1 2 2 2 1 1 1 5 7 2 3 3 5 6 8 11 10 9 7 6 4 5
3 2 3 4 2 2 0 1 2 4 2 1 1 3 2 2 1 1 2 1 2 1 1 2 3 3 3 3 5 7 6 5 2 2 2 2 3 3 5 6 2 5 3 3 7 12 14 10 9 8 6 5 7 9
2 3 2 2 4 2 2 3 2 2 2 2 2 3 3 2 1 2 2 2 1 1 2 3 2 2 3 4 3 3 7 5 4 5 4 6 2 3 5 6 6 5 6 12 14 14 12 10 7 7 7 8 9 11
4 5 4 3 3 3 4 3 3 3 2 1 2 2 1 1 2 2 2 2 1 2 2 2 2 3 3 1 2 3 8 7 3 2 3 1 8 9 9 10 9 9 11 14 12 12 10 7 7 7 8 8 11 12
2 0 4 3 1 3 0 2 1 2 2 2 2 1 0 2 2 3 3 0 1 2 1 1 2 2 3 2 1 1 4 6 2 3 3 3 5 8 4 3 2 4 5 7 11 10 7 6 6 7 9 10 10 13
2 3 2 1 2 3 3 2 3 2 2 3 3 2 2 2 4 3 1 1 1 2 3 3 4 3 2 0 3 4 4 4 4 7 6 6 6 4 8 8 5 8 8 8 7 5 5 4 6 8 10 12 14 14
3 4 6 6 2 1 4 2 3 5 3 2 3 2 6 6 4 1 1 2 3 4 4 4 3 3 3 3 3 7 9 12 16 17 18 18 15 14 13 13 14 11 8 5 4 4 4 4 6 8 11 14 16 16
2 2 3 5 1 1 4 4 5 3 2 4 4 3 3 1 1 1 2 1 2 4 6 6 5 7 8 8 8 9 13 9 3 4 5 2 2 6 9 9 9 7 5 3 2 4 5 4 6 9 10 12 14 17
3 2 4 3 5 5 4 3 2 2 1 2 2 2 2 1 1 2 1 1 2 2 2 3 8 7 7 9 8 8 4 2 1 2 3 3 4 10 9 8 6 4 4 4 4 4 4 6 8 10 14 17 19 20
3 3 3 2 4 2 2 1 2 3 3 2 2 3 2 2 2 4 4 2 2 3 6 7 6 6 8 9 5 5 3 6 6 5 4 9 13 10 9 6 5 4 4 4 6 7 8 10 12 15 17 18 19 21
3 4 4 3 2 3 2 2 1 2 2 2 2 2 1 1 1 1 6 1 3 4 5 9 10 6 7 7 5 3 5 11 10 10 9 8 7 8 7 4 4 5 5 6 7 9 10 11 13 15 17 19 22 24
2 2 2 3 2 1 2 4 2 2 3 2 1 1 1 1 2 1 3 4 5 9 10 10 10 10 9 9 11 12 11 10 6 3 4 6 5 6 4 2 3 4 6 7 9 10 11 13 15 17 19 21 23 25

GFSWCAN_925_spd_006.txt.gz
Wind_Speed
33 34 33 28 25 27 23 24 18 18 16 17 16 14 12 10 8 6 2 1 2 3 1 3 3 4 3 2 4 5 4 1 2 3 3 3 3 4 3 3 5 6 6 4 3 2 6 2 4 6 3 3 6 5
34 35 32 28 27 28 21 25 20 17 18 18 17 15 13 11 10 5 2 3 5 4 3 3 6 6 3 2 5 2 1 3 4 4 1 3 2 2 3 3 3 1 4 4 6 4 0 1 2 4 4 6 5 4
35 36 34 32 30 26 25 29 22 19 20 19 18 15 14 12 10 7 3 5 3 3 3 3 3 5 9 6 1 4 2 3 1 1 4 2 3 3 4 4 2 1 2 2 3 2 2 4 4 4 4 5 4 3
37 38 39 37 33 29 24 30 24 22 21 20 18 15 14 11 10 9 4 4 2 3 4 1 2 3 9 7 1 1 7 5 5 2 3 2 3 2 3 2 3 3 4 4 1 2 2 1 2 5 5 5 5 4
37 39 43 41 39 29 22 31 26 25 23 21 19 16 14 12 10 10 8 5 3 2 3 2 2 7 9 9 12 10 8 4 2 3 3 2 2 3 1 2 2 4 6 5 5 6 4 4 5 4 6 5 5 3
37 40 45 44 33 26 28 32 29 27 24 21 18 18 16 13 16 5 2 2 4 4 4 2 2 4 8 14 14 8 4 4 3 3 2 2 1 3 3 3 3 4 3 2 2 4 3 6 7 3 6 5 3 4
37 39 45 43 26 24 36 33 31 29 25 22 19 18 16 17 9 2 2 5 6 5 3 3 2 3 4 4 3 3 4 3 3 2 2 2 1 3 2 3 3 4 7 5 5 7 5 2 4 5 6 5 3 1
37 39 43 43 30 32 37 33 32 31 27 24 22 19 16 12 11 4 4 6 5 7 3 3 1 1 3 2 2 2 2 2 4 2 1 1 1 2 3 4 3 4 6 7 6 6 5 7 6 4 3 3 1 1
35 36 39 44 36 36 35 35 36 33 31 28 24 22 12 3 3 5 10 10 9 5 4 3 6 4 1 2 2 2 1 2 1 1 1 1 1 4 5 5 6 6 6 9 5 6 5 4 5 4 3 2 3 3
32 33 35 41 32 17 34 36 38 37 37 33 22 4 2 2 19 11 3 3 4 3 3 3 2 3 2 1 2 2 2 1 2 0 1 2 3 2 4 5 7 7 8 10 6 3 2 2 3 4 4 2 4 4
28 30 32 37 34 13 37 39 39 43 41 11 3 2 6 15 4 3 2 3 0 1 2 3 3 5 2 3 2 1 2 1 2 3 2 2 3 3 2 4 4 6 8 4 5 5 6 6 4 2 2 3 4 5
25 27 28 32 33 28 34 40 39 27 15 12 16 11 6 3 3 4 3 1 3 5 2 5 3 4 1 2 3 1 3 2 2 1 1 3 3 2 2 3 4 7 8 7 5 8 6 5 5 3 2 3 5 6
23 24 25 27 29 29 31 40 34 14 39 17 5 3 3 1 3 8 8 4 2 4 5 4 5 4 2 3 3 3 3 3 2 1 3 4 3 2 4 4 6 6 7 7 6 5 5 3 2 2 3 5 5 6
20 20 24 22 26 28 9 36 33 24 8 3 4 6 5 5 5 4 4 4 3 4 9 8 3 3 3 3 3 4 1 3 4 4 6 3 6 6 6 4 6 7 7 6 6 5 3 3 4 5 7 7 6 7
17 16 17 17 21 20 20 16 24 10 3 3 4 5 5 3 2 2 3 3 1 9 8 5 3 3 2 4 2 4 5 4 6 5 3 4 7 7 7 5 6 7 6 5 4 4 5 5 5 6 6 7 8 7
13 8 10 18 16 18 15 11 12 4 2 2 2 4 4 4 2 4 3 4 0 7 3 3 4 3 2 4 4 6 7 6 4 3 3 5 7 7 6 6 5 4 4 3 4 4 5 6 5 5 5 5 6 7
8 3 12 9 13 14 11 4 3 2 2 3 1 2 3 2 3 3 4 3 2 7 3 2 4 4 3 3 3 4 5 3 3 2 2 4 10 7 6 5 5 5 4 5 4 5 3 0 1 2 4 5 4 5
2 7 10 12 13 8 5 5 2 2 2 2 3 3 2 2 6 5 3 4 4 3 2 3 4 3 4 6 3 3 3 2 1 3 3 3 4 3 5 3 1 1 2 3 2 2 2 2 2 2 3 0 3 4
6 6 7 13 12 4 3 3 3 2 3 2 2 2 2 3 2 4 4 3 4 4 5 2 3 3 3 3 3 2 2 2 3 3 3 3 3 3 3 3 4 4 3 1 2 1 2 2 2 2 3 5 7 6
3 5 7 13 11 3 2 2 2 1 1 1 2 2 2 2 2 6 6 2 3 3 2 2 1 2 2 1 2 2 2 2 4 3 3 3 4 3 3 4 5 4 2 3 4 5 6 6 6 6 7 8 10 8
5 6 8 8 5 3 2 2 2 2 1 2 1 2 2 2 4 5 3 1 3 2 2 2 2 2 3 3 5 5 4 3 2 2 2 0 2 3 2 1 3 5 3 3 3 3 6 6 8 10 11 11 9 7
2 5 3 6 3 3 2 3 2 2 2 1 2 2 3 2 2 2 2 2 2 2 2 3 2 2 2 4 3 7 7 8 7 5 3 3 2 1 1 2 5 2 5 3 4 9 12 14 13 12 11 9 6 7
2 4 3 5 3 4 2 3 3 4 2 1 1 2 2 2 1 1 2 2 2 3 2 2 2 3 6 8 13 12 9 6 3 3 3 5 7 6 9 7 5 8 4 6 12 17 17 12 11 11 8 6 6 7
3 4 3 2 3 3 3 3 2 2 2 3 2 2 3 2 2 3 2 2 1 1 2 2 2 4 4 5 3 3 7 6 8 8 5 8 3 5 7 9 9 9 9 16 17 17 15 13 10 9 7 7 8 8
5 6 4 4 3 3 4 3 3 3 3 2 2 2 2 2 2 2 2 1 2 2 3 4 4 3 3 2 3 4 8 6 4 3 3 4 10 9 10 11 11 10 12 17 14 14 12 10 8 7 6 7 7 8
3 3 3 2 2 3 1 2 3 3 2 2 2 1 1 1 2 1 1 1 1 1 0 1 2 2 3 2 3 2 2 3 3 4 4 5 5 8 4 4 3 5 5 9 14 13 10 6 5 5 5 6 8 10
1 2 1 1 2 3 2 2 2 2 2 2 2 1 1 2 2 1 0 2 2 2 2 3 4 4 3 5 8 6 6 6 7 10 9 8 7 5 9 10 6 9 11 10 9 8 7 5 3 4 5 7 9 10
3 3 5 3 2 1 3 1 2 3 2 1 2 1 4 5 2 2 2 2 5 6 6 6 6 7 8 9 8 11 12 14 17 19 19 18 15 14 14 15 16 13 10 8 7 6 5 3 3 5 8 10 11 11
2 2 3 4 1 1 3 4 4 2 1 3 3 3 2 2 1 1 3 3 6 9 9 8 8 10 11 11 10 12 16 12 5 4 5 3 2 7 12 13 12 11 9 7 5 4 4 3 6 6 7 9 10 12
3 2 3 2 5 5 3 2 2 2 1 2 2 2 2 1 2 3 1 2 4 3 4 6 11 8 8 10 10 9 5 3 3 5 4 3 5 14 11 10 8 7 5 4 3 3 3 4 5 7 9 12 15 17
2 3 3 1 3 2 2 2 2 3 3 3 3 3 1 2 2 5 7 4 3 6 10 10 8 9 11 11 7 6 3 4 4 5 6 11 16 14 11 9 7 5 4 4 4 5 6 7 9 12 14 16 17 18
3 4 3 2 1 3 1 2 1 3 3 3 3 2 2 2 1 2 9 4 1 3 3 8 10 6 7 7 6 5 8 12 12 13 14 14 13 12 9 7 5 5 5 5 6 7 8 10 12 13 15 18 19 21
2 2 2 3 2 1 1 3 3 2 3 2 2 1 0 0 2 1 3 6 1 3 7 8 9 10 9 10 12 13 13 11 6 6 8 10 10 10 6 4 2 3 5 6 7 9 10 11 13 14 17 19 21 22

GFSWCAN_925_spd_009.txt.gz
Wind_Speed
35 36 35 33 32 31 28 30 28 21 20 17 16 17 16 15 13 11 3 8 4 2 3 2 2 3 3 3 5 6 4 1 2 2 1 2 3 4 3 3 5 6 6 4 3 2 7 5 4 7 3 4 6 5
35 36 35 34 33 34 27 28 29 21 20 17 18 18 17 15 13 11 4 7 6 3 1 2 6 4 2 1 5 2 3 4 5 4 2 3 2 1 4 3 1 2 4 4 6 4 1 2 2 3 4 6 4 6
34 36 35 34 35 36 29 26 28 21 20 18 20 18 17 16 13 13 4 11 4 3 2 3 2 3 8 5 0 4 1 4 2 2 4 2 3 3 4 4 3 2 2 3 3 1 2 3 4 4 4 5 6 5
35 36 37 36 36 38 31 27 27 21 23 21 21 19 17 15 13 14 6 11 3 3 4 0 3 3 8 6 1 1 6 6 5 2 3 3 3 2 3 2 3 3 5 5 2 2 4 2 2 6 7 7 8 6
34 36 36 37 37 40 34 31 26 20 24 22 21 19 17 15 12 11 7 8 6 3 3 2 0 7 10 8 13 13 7 4 2 3 3 2 3 3 1 2 2 4 6 5 5 8 4 6 7 6 7 6 5 5
35 37 37 37 39 40 35 25 20 26 25 23 22 19 17 15 13 8 2 5 6 6 4 3 2 4 8 12 13 7 4 4 3 3 2 1 1 2 3 3 2 3 2 2 4 5 4 7 7 4 7 6 5 6
34 37 36 37 39 42 37 19 20 31 27 24 22 20 18 16 15 2 1 3 9 4 3 3 2 2 3 2 3 3 3 3 3 2 2 2 1 3 3 3 2 5 4 3 6 10 6 1 5 5 8 7 7 5
33 35 36 37 39 43 38 14 32 32 28 25 23 21 17 14 9 3 4 4 5 6 3 3 1 1 3 2 2 2 2 2 3 2 1 2 1 2 3 4 4 5 7 6 3 4 6 9 7 6 6 5 4 3
32 34 34 37 38 42 38 17 38 34 31 28 26 23 12 4 2 4 9 7 7 3 4 2 6 4 1 2 2 2 2 2 1 1 1 1 1 4 6 7 8 8 8 10 7 6 7 7 7 6 4 3 3 3
29 32 32 35 35 41 36 33 39 38 36 34 24 3 2 4 17 14 2 3 4 3 3 3 2 3 1 1 2 2 2 1 1 1 1 2 3 3 4 6 8 10 12 14 9 4 3 3 5 6 5 3 3 2
27 30 30 33 34 38 41 38 41 41 40 9 3 2 8 18 4 3 2 3 1 1 1 2 3 4 2 3 3 1 2 1 2 3 1 2 3 4 4 4 3 6 12 7 5 5 7 8 7 6 4 4 5 5
25 28 28 31 33 36 33 8 46 33 13 10 16 11 7 3 2 4 3 1 4 6 3 4 3 3 2 2 3 1 3 2 2 1 1 3 3 2 5 6 6 8 8 8 6 10 8 8 9 6 5 3 4 4
22 25 25 28 29 34 31 21 45 18 38 15 5 4 4 1 3 9 9 4 2 4 5 4 5 4 2 3 3 3 4 3 2 2 4 4 2 3 4 5 6 6 7 8 7 10 12 9 8 5 4 4 3 3
19 21 20 24 27 30 24 15 37 23 8 3 4 7 5 5 6 5 5 4 3 4 10 7 5 3 2 3 3 4 1 3 2 3 6 3 4 5 5 5 9 8 8 8 8 7 7 7 5 4 3 3 3 3
16 18 16 19 24 26 25 13 30 10 3 3 3 5 4 3 2 2 2 4 2 8 8 5 3 3 2 4 1 4 4 4 6 5 3 3 4 5 6 4 7 7 7 6 5 5 5 6 5 3 1 1 2 2
14 10 12 19 23 22 21 14 8 4 2 2 2 3 4 4 1 1 3 4 2 7 3 3 4 4 2 6 5 6 8 7 4 3 3 5 8 7 6 6 6 6 6 5 5 4 5 5 4 2 2 2 1 2
8 5 14 17 20 18 15 5 3 2 2 2 1 2 3 2 3 3 4 5 6 6 2 3 5 5 4 4 4 4 5 3 3 2 2 6 10 8 6 6 6 6 6 7 6 6 5 5 4 4 3 3 2 4
3 9 11 17 19 10 6 5 2 2 3 2 2 2 2 2 5 3 2 2 3 3 2 3 4 3 5 7 3 3 3 1 1 2 3 6 6 7 6 6 6 7 6 6 6 8 7 7 5 4 5 8 10 10
8 8 10 15 13 4 3 3 3 2 3 2 2 2 2 3 2 3 2 3 3 3 6 2 4 2 3 3 3 2 2 2 5 3 4 6 9 7 7 7 9 9 8 7 7 8 8 7 7 7 9 9 11 9
5 8 13 13 9 3 3 2 3 2 2 2 2 2 2 2 2 4 4 2 2 2 4 2 2 2 3 2 2 3 2 4 8 6 4 3 5 7 6 7 6 8 12 12 13 12 14 11 10 10 11 13 13 9
5 9 10 9 5 6 2 3 2 2 2 2 1 2 2 2 3 3 2 0 3 2 2 2 2 2 4 3 5 4 4 3 3 3 3 2 2 8 8 10 10 8 5 6 5 8 8 9 12 13 15 13 11 9
6 9 6 6 3 4 2 3 2 2 2 1 2 2 3 2 2 2 2 2 2 1 2 3 2 2 3 4 4 8 8 14 13 11 11 9 3 3 2 4 5 2 8 6 11 11 14 15 15 14 13 11 10 9
6 7 3 6 3 5 2 5 3 4 2 1 1 2 2 2 1 1 2 2 2 2 2 3 4 10 7 7 13 14 11 10 5 5 8 9 11 11 11 9 9 11 5 7 14 19 17 12 11 12 10 9 8 7
5 4 4 2 3 2 3 3 2 2 2 2 2 3 2 2 2 2 3 2 1 2 3 4 4 5 4 5 4 3 8 10 11 11 10 10 5 6 9 9 8 8 10 18 18 17 16 14 11 10 8 8 7 7
5 6 4 5 4 4 4 3 4 3 3 3 2 2 2 2 2 2 2 1 2 2 2 2 2 2 3 3 3 5 8 6 5 5 6 10 14 12 11 11 10 11 15 19 15 16 14 12 10 8 8 6 5 6
4 3 3 2 3 2 1 2 3 3 2 2 2 1 2 1 3 2 1 2 2 2 2 2 2 4 3 3 3 2 2 5 8 5 5 7 8 10 5 5 3 5 9 13 18 16 13 10 8 7 5 4 5 6
2 2 1 1 1 1 2 2 2 2 2 1 1 1 2 3 2 1 1 3 2 3 4 5 3 4 4 6 10 8 7 7 8 12 11 9 8 7 12 12 7 10 12 11 11 10 11 9 7 5 4 4 5 7
2 2 3 2 3 1 3 2 2 1 2 1 2 2 2 1 2 1 2 3 5 8 10 12 12 13 13 12 12 15 15 18 19 20 19 17 13 12 11 12 17 14 12 10 9 9 7 6 5 3 3 4 6 7
1 1 3 1 3 2 2 3 3 1 2 1 2 1 2 2 1 1 3 3 5 7 8 8 10 12 14 12 10 14 18 17 7 5 6 3 1 8 14 15 15 14 12 11 8 5 6 5 4 3 3 6 8 9
3 2 3 2 3 3 2 1 1 1 2 2 2 2 2 2 3 5 2 2 2 2 4 7 9 6 8 9 10 8 6 4 3 7 5 3 5 16 13 12 10 9 7 6 7 8 4 2 2 3 5 8 10 12
2 3 3 1 3 2 2 2 2 2 3 3 2 3 2 2 2 6 6 3 2 5 9 8 5 7 9 10 7 5 1 4 5 6 7 14 20 16 13 10 8 7 6 6 5 3 3 3 5 8 10 11 13 14
3 3 3 2 2 2 1 2 1 3 3 3 3 2 2 2 2 2 6 2 2 3 3 8 7 7 8 7 6 3 4 10 10 11 15 19 18 15 12 9 8 7 5 4 3 4 5 6 7 9 11 14 16 17
2 2 2 3 2 2 1 3 3 2 3 2 2 2 1 1 2 1 2 6 1 3 8 9 9 12 11 10 13 13 12 13 13 13 14 15 15 12 9 6 5 3 3 3 4 5 6 7 9 11 13 15 17 18

GFSWCAN_925_spd_012.txt.gz
Wind_Speed
30 32 33 34 35 33 30 32 28 24 27 26 23 17 18 19 18 19 4 16 4 2 1 1 1 3 4 3 4 4 4 1 1 1 3 2 3 4 3 6 10 10 8 5 6 5 9 6 5 6 4 8 12 13
29 30 33 34 35 34 32 32 30 25 24 24 23 18 19 19 18 19 4 13 12 2 2 0 2 1 1 1 4 1 0 5 4 3 2 4 3 2 6 5 1 6 3 3 7 4 2 0 2 2 8 13 9 12
28 30 33 34 36 34 33 33 30 23 24 21 23 19 20 19 19 20 6 15 5 2 1 1 1 2 4 2 3 3 2 3 4 1 3 1 2 3 5 3 4 2 2 2 4 2 1 1 5 5 10 11 10 12
27 30 32 34 37 33 33 33 31 24 23 18 22 21 21 19 19 18 7 16 3 2 2 2 2 1 7 4 4 2 4 6 5 2 2 2 2 2 2 2 2 1 8 6 1 1 5 3 5 10 11 12 12 9
26 28 32 34 36 34 34 34 32 25 23 15 22 22 21 19 18 17 15 10 10 1 3 2 0 4 8 4 6 9 9 5 2 2 1 2 3 3 1 1 3 6 6 5 3 12 2 13 11 12 14 11 10 12
27 27 31 34 35 34 33 34 33 24 15 17 24 23 21 19 17 9 2 10 15 7 3 3 2 2 5 8 11 8 4 4 2 2 2 2 1 1 4 4 2 6 4 2 3 10 2 14 13 8 12 10 8 9
26 27 30 33 33 35 33 34 33 18 17 26 25 23 20 19 21 2 2 5 17 8 3 3 2 1 2 1 2 3 3 3 2 2 2 2 2 2 2 4 4 9 7 5 11 12 8 11 7 10 11 10 11 10
25 26 29 32 32 34 34 36 31 15 25 30 27 23 19 18 10 2 4 10 14 6 1 3 1 2 1 2 2 2 2 1 4 2 2 2 2 1 5 6 5 9 8 10 5 3 7 13 13 11 11 9 8 6
24 25 29 31 32 34 35 39 30 15 34 32 29 24 12 4 3 5 11 10 6 2 3 2 5 3 2 2 1 2 2 2 2 1 2 2 3 5 6 10 13 13 11 13 8 9 10 12 10 9 8 6 7 5
23 24 28 31 31 34 34 38 27 39 38 36 27 4 2 6 17 14 3 2 3 3 2 2 2 3 1 1 1 2 1 2 2 1 0 2 4 5 4 7 11 13 12 16 14 6 7 5 8 8 7 6 5 6
20 22 25 29 29 31 33 34 10 43 42 11 3 2 7 20 3 3 2 2 1 1 3 3 3 4 1 2 3 1 2 1 3 2 2 2 4 4 4 7 8 10 14 11 8 9 10 13 12 10 7 6 6 6
18 21 24 25 27 30 33 27 9 33 13 9 18 13 6 3 2 4 3 1 4 5 4 6 4 3 2 1 3 1 2 1 3 2 2 4 3 2 7 9 11 12 13 7 8 12 11 10 10 9 7 6 6 5
16 19 23 23 26 29 32 20 6 25 33 12 5 4 4 1 4 9 10 5 4 6 5 5 4 4 3 2 3 2 3 2 4 3 4 4 1 3 6 7 10 10 10 11 12 13 15 12 10 8 8 6 6 4
15 18 20 20 25 27 29 26 21 28 8 3 4 8 7 5 7 5 5 5 3 5 10 7 4 3 2 2 3 4 2 3 3 3 6 2 5 8 7 7 13 13 12 13 12 11 11 11 10 8 7 6 5 3
14 18 15 20 26 28 27 15 4 13 3 3 3 5 5 3 2 1 2 4 2 9 8 6 4 3 2 4 2 4 4 4 6 5 2 2 6 9 10 11 12 12 11 9 8 8 9 10 9 7 5 4 3 3
15 13 10 22 25 27 22 11 5 4 2 2 2 3 4 3 2 3 3 4 3 9 3 3 4 3 2 5 5 6 8 7 3 3 2 6 9 9 12 11 10 10 10 8 9 8 10 9 8 7 6 4 4 5
9 5 17 22 26 21 15 4 4 3 2 3 2 3 2 2 4 3 4 4 7 7 3 3 5 3 5 4 6 4 5 2 2 2 4 7 9 10 10 9 9 8 8 10 10 9 9 9 10 7 5 3 5 6
5 16 17 22 23 14 7 7 2 2 4 2 2 3 2 2 6 4 2 4 5 3 3 2 5 4 6 7 4 3 2 1 1 5 6 8 9 9 8 10 9 11 10 10 10 10 9 10 7 5 7 8 10 10
10 12 18 19 15 5 3 4 4 3 3 1 2 2 3 2 2 4 3 4 4 3 5 1 3 2 3 3 3 3 3 3 6 6 7 8 10 9 10 12 12 10 11 9 9 9 8 7 7 8 9 8 9 8
13 12 19 15 12 3 3 3 4 2 1 1 2 2 2 2 2 4 5 2 2 2 3 2 1 0 1 1 2 3 6 8 10 10 6 5 8 11 8 9 8 11 11 12 12 12 11 9 8 8 9 10 10 8
9 12 12 12 6 7 3 3 2 2 1 2 1 1 2 1 2 2 2 1 2 1 2 2 3 3 5 5 7 6 6 5 6 6 6 5 4 9 9 9 13 11 10 9 8 9 8 8 9 9 11 10 10 9
7 12 6 6 3 4 2 3 2 2 1 1 2 2 2 2 2 2 2 3 2 2 2 3 4 5 6 6 6 9 10 15 15 15 16 15 5 4 4 7 8 4 7 8 9 10 10 10 11 11 11 10 10 8
9 8 3 7 4 5 2 5 2 4 2 2 1 2 2 2 2 1 3 2 2 3 2 4 5 10 10 9 13 15 14 13 7 6 10 11 11 10 9 8 9 10 7 7 10 13 13 12 11 12 11 10 8 6
6 5 4 3 3 3 3 4 3 2 2 2 2 2 2 2 3 2 3 2 2 2 4 7 6 6 5 5 5 5 8 11 13 12 9 11 6 8 9 8 7 8 8 14 13 13 12 12 12 11 9 8 6 4
5 6 4 5 4 5 4 3 4 3 2 3 2 2 2 2 2 2 2 2 2 3 3 3 4 4 5 5 4 6 9 8 6 7 6 9 12 10 9 9 9 9 13 16 12 13 12 12 10 9 7 5 4 3
4 3 3 1 3 2 2 3 4 3 2 2 2 1 1 1 3 3 2 3 2 3 3 3 3 5 5 4 5 3 4 9 11 7 5 5 6 7 6 6 4 4 9 12 18 14 12 10 9 7 5 4 3 1
2 2 0 1 0 1 2 2 2 1 3 3 1 2 2 3 2 2 1 3 2 4 5 4 3 3 5 7 9 8 8 8 7 11 12 9 7 7 10 8 7 10 12 13 13 14 13 10 8 6 4 2 0 2
2 2 2 2 2 1 2 1 2 2 2 2 1 3 2 2 1 2 2 3 4 5 9 12 14 15 13 11 11 14 14 19 20 20 19 17 13 11 11 12 17 16 15 13 12 11 10 9 7 5 3 0 3 5
0 1 2 3 3 2 1 1 0 1 3 1 1 2 2 2 2 2 4 4 4 5 7 8 9 13 15 13 11 13 17 14 8 5 6 5 4 8 15 17 17 16 15 13 9 8 8 5 5 3 1 3 5 7
2 1 3 1 2 1 1 1 0 1 2 2 2 3 2 2 3 4 3 4 4 4 4 6 7 7 7 9 10 9 7 4 3 4 5 4 6 17 16 15 14 12 10 10 13 11 5 4 2 2 4 6 7 9
2 2 3 2 1 1 2 2 1 2 2 3 3 3 2 2 2 5 6 3 2 5 7 5 5 7 8 8 6 5 3 3 4 5 8 17 22 18 15 12 11 10 9 9 7 5 2 1 2 4 7 9 10 11
3 2 3 2 1 2 1 1 1 2 3 2 3 2 1 1 2 2 8 4 2 2 2 5 5 4 7 6 5 3 2 6 8 10 17 23 19 16 14 12 10 9 7 6 4 2 0 2 5 7 9 11 13 14
2 2 3 2 2 2 1 3 3 2 3 2 2 1 1 1 2 0 3 6 1 1 2 4 5 8 8 8 9 9 10 11 12 15 18 17 16 14 12 10 8 6 4 2 0 2 4 6 7 8 10 12 14 16

GFSWCAN_925_spd_015.txt.gz
Wind_Speed
27 26 27 29 30 30 34 34 31 30 27 26 24 25 21 24 24 25 6 15 8 3 2 2 2 3 2 2 3 5 3 2 2 2 2 2 2 4 4 10 11 9 7 4 6 3 7 7 5 4 3 5 6 9
27 26 25 27 30 30 33 33 31 30 28 24 23 25 21 24 24 23 4 13 12 3 3 2 2 1 1 2 3 1 1 4 3 3 2 2 1 2 5 6 3 8 8 8 7 4 3 2 3 2 5 9 9 12
26 27 26 26 28 31 33 32 31 29 28 24 24 24 24 24 25 22 7 13 5 2 3 3 3 3 2 0 3 3 1 1 2 1 1 2 2 2 4 2 6 3 1 2 3 3 2 5 2 2 8 9 11 12
28 26 27 26 28 30 33 31 31 29 28 24 23 22 25 24 23 24 10 15 5 2 3 2 1 2 2 2 8 6 2 2 4 2 3 2 2 2 1 1 4 1 8 6 1 2 3 4 4 8 10 12 13 11
28 26 26 26 28 30 32 30 31 29 27 23 24 14 24 23 22 20 20 11 12 3 0 2 2 1 3 3 6 7 8 6 3 3 3 3 2 3 1 0 3 6 5 5 3 10 3 8 13 13 13 13 12 13
29 25 25 26 27 30 32 30 31 31 28 23 18 17 23 22 21 10 2 14 18 7 1 3 2 1 4 8 8 6 2 2 1 1 2 2 1 2 4 4 2 10 4 6 2 10 4 14 13 13 13 11 10 10
28 26 25 26 27 30 32 31 31 31 31 20 15 22 23 23 22 3 2 1 20 14 2 2 3 2 1 1 2 2 2 2 1 2 1 2 2 2 2 4 7 10 8 7 11 14 11 13 8 12 13 13 13 13
27 26 24 26 27 30 33 31 31 32 29 17 14 25 23 22 13 3 1 8 17 6 1 3 1 2 1 2 3 2 1 1 3 1 1 2 2 2 4 7 5 11 10 10 8 2 8 12 14 12 12 10 10 9
26 25 23 25 27 30 31 32 32 34 24 16 29 27 19 7 3 6 8 13 2 2 3 2 4 3 1 2 2 2 2 1 1 2 2 2 4 5 5 8 12 14 11 13 9 10 11 13 12 10 9 8 10 8
26 23 21 24 27 30 31 32 35 32 18 33 27 4 3 6 20 21 4 3 1 1 2 2 2 2 1 1 1 1 2 1 1 1 2 3 4 8 3 3 9 13 11 16 14 7 10 9 9 12 10 8 7 7
23 19 20 23 26 28 30 32 36 26 35 9 3 2 8 25 3 3 2 3 3 2 5 3 4 4 1 2 3 1 2 1 2 2 3 3 4 3 0 4 8 10 13 11 5 10 11 15 14 12 10 9 8 8
18 17 19 22 25 26 30 30 29 16 6 8 11 13 7 2 2 3 3 1 5 5 3 5 4 4 3 1 3 2 2 1 2 1 2 4 2 1 3 9 12 13 14 11 13 15 14 12 11 11 10 8 9 8
14 16 18 22 23 26 30 30 27 24 22 12 2 4 4 1 5 9 9 4 4 5 5 5 4 4 3 2 3 2 2 2 3 3 4 4 3 4 6 9 11 12 12 14 14 14 17 15 15 14 10 11 10 8
13 16 20 20 21 27 29 28 20 6 5 2 3 8 6 7 8 5 5 5 4 4 9 7 4 3 3 2 3 4 2 3 3 4 6 2 6 9 9 9 12 13 13 15 14 13 12 11 12 13 11 9 9 7
15 19 20 14 26 29 30 25 9 8 2 3 3 4 4 4 4 3 3 4 3 9 9 6 4 3 2 3 2 4 4 5 6 5 1 3 7 9 10 10 12 13 13 12 11 11 11 13 12 11 9 8 8 8
18 15 7 25 28 30 26 15 4 1 1 1 2 3 3 4 3 4 4 5 5 8 3 3 4 4 3 4 5 6 7 7 3 2 3 7 10 10 11 10 11 11 11 11 10 12 12 11 10 11 9 8 7 7
13 5 20 26 29 28 15 6 2 2 1 1 2 1 2 2 4 4 6 4 8 8 3 3 5 3 5 4 5 4 5 0 2 3 5 7 9 11 12 11 11 11 11 11 12 12 12 12 12 11 7 6 8 8
5 17 21 26 25 16 6 6 2 2 3 1 1 3 2 1 6 5 3 7 6 5 3 2 4 5 6 7 4 3 2 3 2 5 6 8 9 10 9 12 9 13 12 13 13 12 12 11 8 7 10 9 10 10
17 20 20 24 19 5 3 3 3 2 3 2 3 2 2 3 3 4 3 3 3 3 5 2 2 3 3 2 1 3 4 3 6 7 8 10 10 10 11 14 14 14 13 11 12 10 10 8 9 9 9 9 8 8
17 13 23 16 12 3 3 3 4 2 2 2 1 2 2 2 2 4 5 3 2 2 2 1 1 1 2 2 1 4 5 8 9 10 8 7 10 13 9 9 8 12 13 14 13 13 11 10 8 8 8 8 10 8
10 14 15 12 4 7 2 3 1 2 2 2 1 2 1 1 2 2 2 1 2 1 2 2 3 3 4 4 4 6 7 8 7 7 9 7 5 10 10 12 12 11 9 8 7 9 8 8 9 10 11 10 10 9
7 16 6 6 2 3 1 4 3 4 2 2 1 2 1 1 2 2 2 2 2 2 2 2 3 5 6 7 7 10 12 17 18 16 18 15 6 5 5 8 8 5 7 8 9 9 10 10 10 11 12 12 9 8
11 8 5 6 3 5 3 6 3 4 2 2 1 2 2 2 2 1 3 2 2 3 3 4 6 11 10 11 13 15 13 15 8 8 10 11 13 13 11 9 9 9 6 8 10 12 12 12 12 12 12 10 8 7
7 4 5 4 5 4 4 5 3 3 3 3 2 2 2 2 3 3 3 2 2 3 6 8 6 7 7 8 7 7 10 14 15 14 13 12 7 9 11 11 9 9 10 14 13 14 13 12 12 11 9 8 6 5
3 6 4 5 4 4 5 4 5 4 3 4 2 2 2 3 1 3 2 2 3 4 4 3 3 4 5 6 5 7 8 8 7 8 10 12 15 14 12 11 11 10 11 15 13 14 12 12 11 10 8 6 6 4
3 3 3 3 3 3 4 4 5 5 3 3 3 2 2 1 3 3 2 4 3 4 4 4 3 6 6 5 6 5 5 8 12 8 10 8 7 9 7 6 5 5 7 13 17 15 13 11 10 9 7 6 4 3
1 1 0 0 2 2 2 2 2 2 4 4 3 4 3 2 3 2 2 3 2 5 6 6 5 5 6 8 11 10 10 12 14 15 13 13 12 10 8 6 6 9 12 13 14 14 14 11 9 7 6 3 2 2
1 2 1 1 1 2 1 2 2 3 3 3 3 4 2 4 2 2 2 5 6 5 7 11 15 15 14 14 14 14 16 20 23 23 22 20 16 14 11 13 16 15 15 13 13 12 10 9 8 6 4 2 1 3
1 1 2 2 2 2 2 2 2 2 3 2 2 2 2 2 2 3 5 7 6 5 5 8 12 16 18 15 15 14 11 9 7 8 8 5 3 7 12 17 16 15 15 13 11 10 9 8 7 5 3 0 3 5
2 1 2 2 2 1 1 2 2 2 2 2 2 3 2 2 3 5 5 7 6 6 6 7 7 8 9 10 10 9 9 7 6 6 5 5 7 14 15 16 15 14 13 14 14 13 9 7 4 3 3 4 6 7
2 2 3 1 1 1 1 1 1 1 1 2 3 3 2 2 2 5 6 6 4 4 4 6 8 7 8 8 7 5 4 6 7 7 9 16 22 18 16 14 12 11 11 11 9 5 4 2 2 3 4 6 8 9
3 2 2 2 1 1 1 1 1 2 3 2 2 1 1 2 2 2 7 5 3 4 5 5 6 5 6 7 7 6 5 8 8 12 18 23 20 17 14 13 11 10 9 7 5 4 2 1 2 4 6 8 10 13
2 2 2 2 2 2 1 1 1 1 2 2 2 2 2 3 2 1 3 5 2 2 4 5 7 8 8 7 7 8 10 10 12 16 18 17 16 15 13 11 9 8 6 4 2 0 2 4 5 6 9 11 13 16

GFSWCAN_925_spd_018.txt.gz
Wind_Speed
31 32 29 27 26 26 28 28 30 34 30 28 26 23 23 20 24 23 5 15 7 2 2 2 2 1 1 2 2 4 4 3 2 3 1 3 3 5 5 7 6 4 6 4 3 1 6 4 3 2 2 3 4 8
31 32 31 27 27 25 27 27 30 32 30 28 25 23 23 19 20 22 3 15 21 2 2 2 3 3 2 3 3 1 1 3 3 3 3 1 2 1 3 4 7 6 5 6 7 6 2 4 3 0 2 4 6 10
33 32 31 29 26 25 26 28 30 32 31 29 26 24 20 19 16 20 7 12 5 1 3 2 3 5 4 7 5 2 1 2 2 2 2 0 2 0 2 1 4 3 1 2 4 3 4 5 3 1 5 8 8 9
33 31 30 28 25 25 26 28 30 32 30 28 26 23 21 11 16 24 9 14 5 2 2 2 3 3 4 6 8 2 2 2 2 2 2 1 1 0 1 2 1 2 6 6 2 3 3 2 4 7 10 10 10 9
33 30 29 28 25 25 26 28 30 32 30 29 27 22 19 9 17 22 16 13 15 1 2 2 3 1 2 8 11 8 3 1 2 2 3 3 2 2 1 1 3 4 5 4 4 8 4 5 8 10 13 10 9 14
31 30 27 27 24 24 26 28 30 31 30 27 27 19 16 11 18 13 2 15 18 11 2 1 1 2 2 7 9 7 5 4 1 2 2 1 2 0 2 3 3 6 5 3 4 5 7 12 10 8 11 11 9 11
31 30 27 26 25 24 26 29 31 31 31 29 27 18 17 16 24 3 2 0 21 18 2 1 1 2 2 1 1 2 2 1 1 1 1 2 2 1 2 3 4 7 7 7 10 15 9 6 6 10 12 13 15 13
32 30 27 25 23 22 25 28 31 31 31 31 22 14 12 23 17 4 3 7 20 5 1 2 1 2 1 2 2 1 2 2 3 1 0 1 1 1 4 5 6 8 9 7 5 4 8 13 14 11 10 10 11 9
29 27 26 23 20 22 25 29 30 31 31 30 16 21 19 10 3 7 10 14 5 3 3 2 4 3 1 1 1 1 2 2 1 1 2 1 3 4 5 5 8 9 6 9 8 9 11 12 11 9 9 8 12 8
27 25 22 19 20 23 26 28 29 33 33 13 11 3 2 8 22 23 4 1 2 0 2 2 1 2 1 1 2 1 2 2 1 1 2 2 4 4 3 2 7 9 14 14 13 8 9 8 10 8 7 7 8 7
23 20 18 18 20 23 26 28 30 34 7 4 2 2 6 31 4 1 3 2 2 2 3 3 3 3 1 2 2 2 2 1 1 1 1 2 4 3 5 3 6 10 12 9 6 8 7 14 14 11 10 9 8 11
16 16 16 18 21 23 24 28 29 17 11 11 13 6 8 2 3 4 4 2 3 5 2 4 3 3 2 1 3 0 2 1 3 0 1 3 3 2 1 4 8 10 9 9 12 15 13 11 11 11 10 9 13 17
17 16 17 20 22 22 27 29 27 24 14 9 2 2 4 0 4 9 10 4 6 5 4 4 4 3 2 1 3 3 3 3 2 2 4 4 2 0 2 5 7 7 10 13 15 14 18 15 19 17 11 16 19 17
18 19 21 21 17 27 30 29 23 13 6 1 4 5 4 5 6 4 4 5 3 4 7 5 3 3 2 3 3 4 1 3 1 3 6 2 5 6 5 5 8 10 13 15 15 15 15 14 13 18 19 19 18 15
22 23 18 13 26 30 32 26 19 3 1 2 3 4 4 3 4 3 3 4 2 8 7 4 3 3 2 3 3 4 2 3 5 5 2 2 4 6 7 7 8 11 12 13 13 13 12 16 15 16 18 18 18 16
25 18 8 26 29 33 28 20 2 2 0 1 1 2 2 2 2 2 2 5 3 7 2 3 4 3 2 5 4 7 7 7 4 2 2 4 6 6 7 8 8 10 12 12 11 15 16 15 15 17 19 17 16 15
19 5 24 28 30 31 16 6 2 1 1 1 0 1 1 2 3 3 4 3 8 8 3 3 5 6 4 3 3 5 5 2 2 1 2 3 6 8 9 9 8 10 12 12 16 16 18 22 23 19 10 15 17 17
12 27 27 26 29 17 6 5 2 2 2 1 0 1 1 1 4 3 2 5 4 2 2 3 4 4 5 7 4 3 2 1 2 3 3 5 7 9 8 9 8 14 13 16 18 20 20 19 13 10 19 20 21 19
27 25 21 26 16 5 3 2 3 2 2 0 0 2 2 2 2 4 2 3 2 3 4 0 4 3 3 2 2 1 4 2 6 5 4 7 9 10 12 16 17 17 17 16 16 13 15 16 16 18 18 16 15 16
21 15 23 16 9 3 3 2 4 3 3 3 1 1 1 2 1 2 3 3 2 1 2 2 2 1 1 0 0 3 3 7 10 10 7 6 9 15 10 12 11 17 18 20 19 19 18 17 17 17 17 18 18 15
12 13 17 11 4 6 2 3 2 2 3 2 2 1 1 1 2 2 2 2 2 1 1 2 2 2 2 1 2 4 5 6 4 7 11 9 5 14 14 16 18 16 13 11 8 12 14 13 18 20 20 19 17 16
7 17 7 6 2 3 1 2 2 3 2 2 2 2 2 2 2 2 1 2 2 1 2 2 2 2 5 5 4 7 11 18 17 15 19 16 8 7 6 10 13 7 10 12 14 13 16 20 19 19 21 18 16 15
11 6 6 6 4 4 3 3 3 4 3 3 3 1 2 2 2 1 2 2 2 2 3 3 4 8 7 7 11 14 15 16 8 7 10 13 15 15 15 16 16 14 8 13 19 20 21 17 17 20 18 18 17 15
5 4 4 3 3 3 4 3 2 2 3 3 3 2 2 2 2 2 3 2 3 3 3 4 3 7 7 7 6 6 9 17 16 15 14 16 8 9 15 16 18 17 19 22 22 23 21 20 18 19 18 16 14 13
4 6 4 5 4 5 5 5 4 3 3 3 4 3 2 3 1 2 2 2 3 5 5 3 5 5 6 6 4 6 15 12 8 10 13 17 19 16 16 17 19 17 21 23 18 21 20 19 19 18 15 14 13 11
2 3 3 1 3 2 2 3 4 4 3 3 2 2 1 2 3 3 2 3 3 4 4 5 4 5 6 4 6 5 7 14 19 10 12 13 13 12 8 8 6 8 11 19 24 23 20 18 18 16 14 12 9 9
0 2 1 2 1 2 2 2 3 1 3 3 3 3 2 3 3 2 2 3 2 4 9 10 6 5 5 7 12 13 16 16 17 18 20 19 17 15 17 12 9 14 16 17 20 22 22 19 16 14 13 9 7 5
1 1 2 2 2 0 1 2 2 3 3 4 3 5 3 4 2 2 1 5 9 10 9 13 16 16 15 15 16 19 22 27 30 30 29 27 23 21 20 22 23 19 19 18 18 17 16 16 15 13 11 8 5 2
1 1 3 2 3 2 1 1 0 2 3 2 2 2 2 2 2 3 5 11 10 8 7 9 12 16 20 22 21 18 14 11 8 9 11 6 4 14 20 23 23 23 21 19 16 15 14 13 11 10 8 5 3 3
2 1 2 2 3 0 1 1 1 0 2 2 1 2 2 2 2 5 7 10 10 7 8 9 9 9 9 12 11 15 14 12 11 9 6 6 8 20 20 22 21 20 19 21 21 18 14 13 10 8 6 4 4 5
2 2 3 2 2 0 0 1 1 1 2 2 2 3 2 2 2 7 9 8 7 7 9 9 11 12 11 10 7 5 5 10 11 12 18 26 26 23 21 19 18 17 16 17 14 11 9 7 6 4 3 4 5 7
2 2 3 2 1 2 1 2 1 2 3 2 3 2 1 1 2 2 9 7 5 7 9 9 8 8 11 11 11 11 13 15 16 20 25 26 24 21 18 17 15 14 13 11 9 8 6 5 3 3 3 4 7 9
2 3 2 3 2 1 1 3 3 2 3 2 2 1 1 1 2 0 4 6 5 6 8 10 11 11 11 11 13 13 14 17 18 20 21 21 20 19 18 16 14 12 11 10 8 5 4 3 3 3 5 7 9 11

GFSWCAN_925_spd_021.txt.gz
Wind_Speed
31 32 31 30 29 29 25 25 26 27 30 33 31 30 26 23 22 7 6 16 6 2 2 2 2 3 1 2 3 2 3 2 3 4 4 2 3 6 4 5 5 6 5 3 3 1 6 2 2 2 3 3 4 6
32 32 32 30 28 28 23 24 24 26 29 31 29 28 25 22 22 5 4 16 15 1 2 2 4 6 5 3 3 3 3 3 4 3 2 2 3 3 6 5 4 4 6 5 7 6 1 3 3 2 3 4 3 9
31 32 31 30 28 26 23 23 24 26 28 30 27 27 24 21 18 8 9 13 5 1 3 1 4 5 7 9 9 3 2 2 1 2 3 2 4 2 4 4 3 3 4 4 3 4 3 3 2 3 4 7 8 10
31 30 30 29 27 25 24 23 24 26 28 30 28 26 23 20 15 16 9 14 5 2 2 2 4 3 5 9 8 2 0 1 1 1 2 2 1 1 1 2 3 4 6 5 1 1 3 1 2 6 9 10 12 9
31 30 29 28 26 24 24 22 24 25 27 29 29 26 23 17 12 18 13 15 11 1 2 1 2 3 6 11 8 4 0 0 2 1 2 0 1 1 2 1 2 4 6 5 5 8 4 3 8 9 12 10 11 15
32 30 30 28 27 24 24 21 23 25 28 28 28 26 23 16 11 12 2 14 17 7 1 1 0 0 2 12 6 4 3 2 2 2 2 2 1 0 2 3 5 4 3 5 4 5 4 11 9 4 12 9 10 12
32 29 27 26 25 23 21 21 23 25 28 27 27 27 22 14 11 3 2 2 21 17 1 1 0 1 1 3 3 2 2 2 1 0 1 2 1 1 2 3 3 6 6 8 11 14 8 3 5 9 13 12 15 14
30 26 24 24 22 20 20 22 24 28 28 29 30 27 16 11 8 4 1 8 21 5 1 2 1 0 1 2 2 1 2 1 2 1 1 1 0 1 3 5 4 5 8 7 6 5 8 14 14 12 12 14 14 11
25 23 21 20 18 18 21 24 26 30 32 34 28 14 5 7 3 7 11 16 6 2 3 2 4 3 1 1 2 1 1 2 1 1 1 1 2 4 5 5 7 7 7 8 8 11 12 14 13 11 12 10 14 10
23 20 17 17 18 19 22 25 27 31 37 24 2 3 2 5 25 21 3 2 2 1 1 2 1 2 1 0 1 2 2 1 2 1 2 1 3 4 4 4 7 9 13 13 15 7 10 8 12 11 9 8 11 10
18 18 17 18 19 22 23 24 28 31 20 8 1 1 2 28 5 2 2 3 2 1 3 3 3 3 1 2 2 0 2 1 1 1 1 2 3 3 4 2 5 9 10 7 8 8 7 15 15 12 10 9 10 13
17 18 19 20 21 22 21 26 27 20 4 9 13 12 4 1 2 4 5 2 4 5 3 4 3 3 2 2 2 1 2 2 2 0 1 3 3 2 2 2 5 8 9 8 9 14 13 11 11 13 12 11 12 18
18 19 21 22 20 19 25 27 28 19 22 3 6 3 2 2 4 9 10 3 4 4 4 4 3 4 2 1 3 3 3 3 1 1 4 5 2 2 2 5 7 7 10 12 13 13 19 15 19 19 12 17 21 19
20 22 24 20 14 27 29 29 26 13 3 2 3 4 5 5 5 5 6 5 4 5 8 4 3 3 2 2 3 4 2 2 2 2 6 3 5 5 5 4 10 9 12 15 15 15 17 16 13 18 19 21 21 17
23 26 17 15 26 30 32 30 20 5 3 2 2 4 4 2 1 2 0 4 1 8 9 4 3 3 1 4 2 4 3 3 5 5 3 3 4 5 6 9 11 12 13 13 14 15 15 18 17 16 21 23 25 23
25 17 8 26 29 31 31 20 3 2 2 2 3 1 1 2 1 2 1 2 2 8 3 3 4 4 1 5 3 6 8 7 4 3 2 4 6 6 6 7 8 11 12 13 13 17 20 18 17 19 24 23 23 24
21 5 25 28 28 30 16 5 3 2 2 2 1 2 1 1 3 2 2 2 6 7 4 3 5 6 4 3 2 4 5 3 3 2 2 4 6 8 8 9 9 12 13 14 18 19 20 22 24 21 13 18 24 24
12 31 28 23 27 16 5 4 2 2 2 1 2 2 2 2 1 2 1 4 3 2 3 5 5 3 6 7 4 4 2 1 1 2 3 5 6 7 9 11 9 15 14 17 19 20 21 19 15 12 21 25 26 24
26 23 19 23 12 4 3 3 3 3 1 2 2 2 2 2 2 0 2 3 2 3 4 2 4 4 4 3 3 2 2 2 4 3 3 6 9 10 10 15 18 17 18 18 18 13 15 17 19 19 20 19 18 17
21 14 22 13 7 3 4 3 3 2 3 2 2 2 1 2 2 2 2 2 2 2 2 1 2 1 1 2 2 2 3 6 7 7 5 5 8 15 11 13 12 19 19 21 20 21 20 18 19 22 22 22 19 16
11 11 16 10 2 5 2 2 3 2 3 3 3 2 2 1 1 2 1 1 2 1 0 0 1 1 2 2 0 5 7 8 6 4 8 8 6 13 14 16 17 17 14 12 8 14 15 14 20 22 22 22 21 20
6 15 6 5 3 5 2 1 2 2 2 2 3 3 2 1 1 1 1 2 2 2 2 1 1 1 2 4 3 5 10 14 14 13 16 16 8 9 8 13 14 6 9 11 15 15 16 21 24 25 26 22 23 21
11 5 3 7 4 4 4 5 3 3 2 4 4 3 2 2 2 2 2 2 2 2 2 2 2 5 4 4 11 12 13 16 8 8 9 10 14 15 15 14 16 15 9 13 20 21 21 21 20 26 23 24 23 20
4 3 3 2 3 3 4 4 3 3 3 3 3 4 3 3 4 2 2 2 2 5 4 4 2 3 3 4 4 4 7 15 14 15 15 16 9 8 14 16 18 18 20 23 23 23 24 23 21 25 24 22 19 18
4 5 4 4 4 5 5 6 6 3 3 2 4 3 3 2 2 3 3 3 4 5 6 6 3 3 2 3 4 4 12 12 9 9 11 15 21 17 16 17 18 19 25 26 19 22 23 24 24 23 21 20 18 16
0 3 2 3 3 3 1 2 3 3 3 3 3 3 2 2 3 3 2 4 3 3 5 5 4 2 4 3 5 5 7 15 17 7 10 9 10 13 9 9 7 7 17 25 30 25 24 24 24 21 18 15 14 14
2 3 1 1 1 2 2 2 3 2 2 3 3 4 3 3 2 1 2 2 2 5 12 13 6 3 4 5 12 14 17 18 17 17 21 18 15 15 16 12 8 16 20 24 26 29 29 26 24 22 19 15 11 9
3 3 4 2 2 1 3 1 1 1 2 4 3 4 2 2 2 2 2 7 12 14 9 9 12 14 14 14 16 21 23 28 30 30 31 27 21 18 15 18 23 21 21 21 23 24 24 24 22 20 17 15 11 7
1 1 3 2 2 2 2 3 3 0 2 1 2 2 1 1 2 2 5 13 11 5 4 6 11 17 21 21 20 19 16 15 14 14 15 8 5 11 22 24 25 26 25 23 20 19 19 19 18 17 14 12 9 6
3 1 3 1 3 3 3 2 1 1 1 1 1 2 1 1 4 7 8 9 8 5 6 8 9 11 10 11 11 16 14 10 10 11 8 7 9 23 26 27 27 27 27 27 26 22 19 19 17 14 11 8 5 4
2 3 3 2 2 2 3 1 2 2 2 2 2 2 2 1 1 7 10 9 8 5 7 8 11 10 9 9 9 7 6 8 9 13 18 30 30 28 27 27 27 26 26 24 22 21 18 15 12 10 7 5 3 3
2 3 4 3 1 3 2 2 1 2 3 3 2 2 0 1 1 2 10 8 7 7 8 9 8 8 10 10 10 11 16 20 23 28 32 31 29 27 25 25 24 22 20 19 17 15 12 11 9 6 4 2 2 4
2 3 3 3 2 2 2 3 3 2 3 2 2 1 1 1 2 0 2 5 5 6 7 10 10 11 12 15 17 18 20 22 23 25 26 26 25 24 23 21 19 18 17 16 14 11 9 7 6 4 2 1 4 7

GFSWCAN_925_spd_024.txt.gz
Wind_Speed
30 29 28 30 30 28 26 23 20 22 23 25 27 29 27 26 22 17 5 10 4 1 1 3 4 4 2 3 3 2 2 2 3 3 3 3 3 4 2 3 4 5 4 3 2 1 5 2 4 1 3 3 3 2
29 28 29 29 28 28 24 22 20 22 22 23 26 28 27 25 21 17 2 13 10 1 1 2 4 7 4 5 3 3 2 3 4 3 3 2 2 2 4 3 2 4 6 4 6 5 2 2 2 1 2 3 3 6
29 30 29 28 27 27 23 23 21 21 22 23 25 27 26 25 21 15 5 11 4 1 2 1 5 7 9 10 12 3 2 2 2 0 3 2 1 2 3 4 3 3 3 2 2 2 1 1 2 3 3 5 7 8
31 31 30 29 26 25 22 22 23 21 22 23 25 26 25 25 21 17 6 15 4 2 1 2 2 1 3 8 11 7 2 2 2 2 2 2 2 2 2 1 3 4 5 5 4 3 1 3 1 6 8 10 11 9
32 32 30 27 25 24 21 20 20 20 22 22 25 24 25 26 22 19 9 14 11 0 2 1 1 2 3 7 6 5 2 1 1 2 2 2 2 2 1 1 3 5 6 5 5 7 4 2 7 8 11 10 9 14
30 30 28 26 22 21 20 18 18 20 22 24 26 24 26 24 19 14 2 11 18 6 1 1 0 1 3 6 4 3 1 1 2 0 0 1 2 2 2 2 5 4 3 3 2 5 4 9 7 4 11 9 8 10
28 27 25 23 20 19 17 18 20 22 24 26 28 27 26 22 14 4 3 2 24 14 1 1 1 1 4 4 2 1 1 2 1 1 1 1 1 2 1 3 2 2 4 5 9 10 8 1 5 8 14 13 14 12
25 24 22 20 18 17 18 20 23 24 26 30 31 30 25 16 10 7 3 10 22 3 1 2 1 1 1 2 2 2 2 1 1 1 1 1 1 1 3 6 2 4 7 6 6 4 8 13 13 11 13 14 14 11
21 20 19 18 17 18 20 22 25 27 31 37 31 15 3 6 3 5 9 19 11 2 3 2 3 3 0 0 1 1 0 1 1 1 1 1 1 4 6 5 6 7 5 8 7 9 11 14 13 11 13 10 14 9
19 19 18 18 18 20 21 22 26 30 34 27 3 2 2 4 18 20 4 1 1 1 1 2 2 2 0 1 1 1 2 1 1 1 2 1 3 6 5 3 5 8 11 13 15 6 9 9 12 10 10 8 11 10
19 18 20 21 21 20 19 23 26 30 17 9 5 3 12 18 4 2 3 2 2 1 3 3 3 3 1 2 2 1 2 0 1 1 1 2 3 4 3 2 2 8 10 3 7 8 7 14 16 13 11 9 10 12
18 20 21 24 23 19 18 24 25 22 8 7 11 11 6 2 3 4 4 2 4 5 3 3 3 3 2 1 2 0 2 1 2 0 1 3 4 1 2 1 3 7 8 7 7 13 13 13 12 12 12 11 12 17
19 22 23 25 22 16 24 26 25 24 18 2 3 3 1 1 5 9 9 4 4 4 5 3 3 3 2 2 2 1 2 3 2 1 4 5 2 2 1 4 6 7 8 9 11 11 17 13 20 20 13 16 20 18
20 23 25 22 18 25 27 27 25 10 4 2 3 4 4 4 4 2 2 4 4 4 8 5 3 3 2 3 2 4 1 2 1 2 6 2 5 4 4 4 7 7 10 12 13 15 16 16 13 19 19 20 21 17
21 26 24 15 25 28 29 27 15 4 2 2 1 4 3 1 1 1 2 1 1 6 7 4 3 2 2 4 2 3 2 3 5 5 3 3 4 4 6 6 9 10 11 12 13 14 15 17 16 16 20 23 24 24
22 19 9 26 29 29 28 14 2 2 1 2 3 3 2 2 1 1 2 1 2 5 2 3 3 3 2 4 3 6 7 6 4 3 2 3 6 5 6 6 7 9 12 13 12 16 19 18 17 18 23 23 23 25
20 4 25 29 28 28 12 5 3 2 2 2 1 2 2 2 3 2 2 3 3 5 3 3 5 6 3 3 2 4 6 4 3 2 1 2 5 7 7 8 9 11 13 13 19 19 20 22 25 22 13 17 24 24
10 28 29 22 26 16 5 4 2 2 2 1 2 3 3 2 2 3 3 2 3 1 3 4 5 3 6 6 4 4 2 1 1 2 2 4 5 6 8 10 10 14 14 17 20 21 22 20 15 12 20 25 26 25
23 23 17 21 11 6 3 2 2 2 3 2 3 2 3 3 3 3 3 1 1 1 4 2 3 4 4 3 3 2 2 2 3 2 3 4 7 9 9 13 17 17 18 19 20 15 15 16 19 20 20 19 18 17
18 16 15 13 7 2 4 3 2 1 2 3 2 2 3 3 2 2 1 1 1 2 1 2 4 3 3 2 3 2 3 4 6 5 4 4 5 12 10 12 11 19 19 20 19 20 20 18 17 19 20 21 20 16
11 7 16 9 2 3 2 2 4 1 3 2 2 3 3 1 2 2 1 1 1 0 0 1 1 0 2 2 2 3 4 5 5 3 6 6 4 10 11 17 20 19 15 13 8 15 15 14 19 21 21 20 22 23
5 14 5 4 3 5 1 2 2 3 2 2 3 3 2 2 1 1 2 2 2 2 2 3 2 2 2 2 2 4 8 11 13 12 15 15 7 7 8 12 14 7 9 11 14 14 16 21 24 24 25 23 24 23
9 3 2 6 4 4 5 4 3 3 2 3 3 3 2 2 2 3 2 2 2 4 5 2 2 3 2 3 8 9 11 13 7 7 8 10 13 14 13 13 16 16 9 13 20 22 22 22 22 28 25 26 25 22
3 3 2 2 2 3 3 4 2 3 4 3 3 4 3 2 3 2 2 2 3 6 7 9 3 2 2 4 3 3 5 13 11 12 16 15 9 8 14 15 17 17 18 24 23 21 23 23 23 27 27 26 24 22
4 4 4 3 3 4 5 6 6 4 2 3 3 3 2 2 1 2 2 3 4 5 6 8 7 3 2 2 2 3 8 13 8 8 11 21 21 18 16 17 16 18 24 25 20 21 21 24 25 26 25 24 22 19
1 4 3 4 3 2 3 1 1 3 2 3 2 3 2 2 3 2 2 3 2 2 5 5 5 5 2 2 2 2 3 14 20 8 11 16 18 17 10 10 8 8 18 25 29 25 23 25 26 25 22 18 17 18
3 4 2 1 2 3 1 2 2 2 1 2 3 4 3 3 2 1 2 1 2 4 13 13 10 4 0 2 8 10 12 14 15 18 20 19 19 17 17 15 11 20 25 28 29 32 31 28 26 24 22 18 14 12
3 3 4 2 2 1 3 1 1 2 2 2 2 2 2 1 2 2 2 6 14 17 14 7 6 6 9 11 12 16 21 28 31 32 30 26 20 18 19 22 27 24 24 24 27 28 28 28 27 24 21 19 16 11
2 2 3 2 2 1 3 4 4 1 0 1 2 1 1 0 1 2 5 15 15 9 5 4 8 12 15 17 17 14 13 20 17 14 14 8 5 12 23 26 25 24 24 22 21 22 23 23 22 20 18 16 13 10
3 1 3 1 4 4 3 2 2 2 1 2 1 1 0 1 2 6 10 10 9 7 7 5 7 7 5 8 8 13 13 12 10 11 9 8 9 24 25 28 28 27 27 27 26 24 21 22 20 18 16 13 9 7
2 3 3 2 3 2 2 1 2 2 2 2 2 2 1 1 2 4 10 10 9 5 6 6 9 11 10 9 6 4 5 9 11 12 22 31 30 28 28 29 30 30 29 29 28 25 23 20 18 15 12 10 7 4
2 3 4 2 2 3 2 2 1 1 3 2 3 2 3 1 1 2 10 10 10 8 9 10 9 8 9 9 10 11 14 16 18 23 29 30 29 28 27 27 26 26 25 24 22 20 18 17 14 11 10 8 5 1
3 2 3 3 2 2 1 3 4 2 3 2 2 1 1 1 2 1 3 6 7 7 8 9 10 11 12 15 16 17 18 21 22 24 26 26 26 25 25 24 23 22 22 21 19 17 14 12 11 9 6 4 1 2

GFSWCAN_925_spd_027.txt.gz
Wind_Speed
28 28 29 29 27 27 26 24 21 21 20 21 22 24 28 27 27 21 12 8 1 1 2 3 3 4 2 3 3 2 2 3 4 4 4 3 4 4 2 2 3 4 4 3 2 2 4 6 6 4 2 3 3 1
27 29 30 30 29 26 25 24 21 19 19 20 21 22 25 25 25 22 5 6 3 0 1 1 3 4 4 5 3 4 2 2 3 3 3 1 2 1 2 3 2 3 4 3 6 5 3 2 1 2 1 2 3 3
29 31 31 30 28 25 23 23 19 19 18 19 20 20 23 23 24 20 12 5 4 1 2 1 4 6 11 11 11 3 2 3 3 2 2 1 3 4 4 5 4 3 3 2 2 2 3 2 1 3 5 4 6 7
29 29 29 28 26 24 22 20 18 18 18 20 19 20 23 22 24 21 11 3 1 1 1 1 1 1 2 8 12 10 3 4 2 2 2 2 2 3 3 2 3 4 4 4 4 5 3 2 1 5 7 8 12 9
28 27 27 26 24 22 21 18 17 17 20 21 20 23 23 23 25 21 12 9 10 1 1 1 0 1 2 7 7 8 6 4 1 2 2 3 1 2 1 1 3 5 6 4 5 3 2 1 6 6 8 8 9 13
26 25 24 24 22 20 17 17 18 20 21 22 23 23 24 23 22 11 2 11 19 4 2 2 1 2 2 4 3 3 2 1 1 2 1 1 2 2 1 3 5 4 3 3 1 4 4 6 6 3 9 7 9 9
23 21 21 20 20 19 19 20 20 21 22 24 26 25 27 25 17 5 4 3 8 10 1 1 1 1 4 2 1 1 2 1 1 1 2 1 1 2 1 3 4 4 3 4 6 8 6 0 4 7 12 12 13 13
19 18 19 20 19 19 21 22 22 24 27 28 29 29 26 15 9 9 9 6 17 4 0 1 2 1 1 1 1 0 1 1 1 1 0 1 1 0 3 7 2 2 5 6 5 3 5 11 12 10 10 13 13 11
18 18 18 19 20 21 21 23 24 28 31 33 26 12 2 5 3 3 4 15 9 1 2 2 3 2 2 1 1 0 1 1 1 1 1 1 1 4 6 6 5 7 5 8 7 8 10 13 12 10 11 10 15 9
17 18 18 20 22 22 21 21 27 30 33 21 6 3 2 3 7 16 5 2 2 1 1 2 2 2 0 0 0 1 2 1 1 1 1 2 4 6 5 3 3 8 10 11 13 5 8 8 11 10 9 8 11 10
18 18 19 21 23 23 20 19 28 28 16 9 4 3 12 5 1 2 3 2 1 1 3 3 3 3 1 2 2 0 1 1 1 3 1 2 4 4 1 3 2 7 9 3 4 7 6 14 15 14 11 9 10 11
18 19 20 22 23 21 18 24 24 19 13 10 10 9 6 3 1 3 2 2 3 5 2 4 3 3 2 0 2 0 2 1 4 2 1 3 4 0 1 1 3 7 8 6 4 12 13 13 12 12 12 11 12 18
18 20 21 23 22 17 25 24 23 21 14 3 1 1 0 1 4 6 6 3 3 3 4 2 3 3 2 1 3 2 2 3 1 1 3 4 3 2 1 3 4 6 8 8 9 10 15 12 18 19 12 17 21 20
19 21 23 21 16 24 24 25 21 8 2 1 1 2 3 3 3 1 1 3 2 3 6 3 2 3 2 2 2 2 1 2 1 2 6 3 4 3 2 2 5 7 7 10 11 13 14 15 13 18 19 21 23 19
19 23 21 13 24 24 25 21 11 1 1 2 1 3 2 2 1 1 1 2 2 1 4 3 3 2 1 3 1 3 1 4 5 5 3 3 2 3 5 4 6 7 8 10 11 12 14 16 15 16 19 22 24 24
19 20 6 25 26 25 23 10 3 1 0 1 3 2 2 2 1 1 1 2 1 1 1 2 3 3 3 4 3 7 6 6 4 3 3 1 4 4 5 6 6 7 9 10 10 14 17 17 16 18 23 24 24 25
17 4 21 28 23 25 8 4 2 0 2 3 1 1 2 3 3 2 1 2 2 2 3 3 6 7 3 3 2 4 5 3 3 3 1 2 4 6 6 7 7 9 10 11 16 18 19 22 25 23 13 17 24 24
7 21 26 20 22 11 4 5 2 2 3 2 1 2 3 3 3 3 3 2 2 2 2 3 4 3 5 6 4 4 3 0 1 1 1 3 5 6 7 10 9 11 11 16 19 20 22 21 16 13 20 25 27 26
19 22 18 17 10 3 2 3 2 2 4 2 3 2 3 5 4 3 3 3 2 1 3 1 2 4 4 4 3 2 2 2 3 2 2 3 5 7 9 13 16 15 17 18 19 15 16 17 19 21 21 21 19 18
16 14 10 13 6 2 2 3 2 2 3 3 3 3 3 4 2 2 3 2 2 2 2 3 3 1 1 2 1 2 2 4 4 4 3 2 3 10 8 11 10 18 19 21 20 22 21 19 18 19 21 21 21 17
9 3 12 6 1 2 2 1 3 1 3 3 3 3 4 2 2 2 2 1 2 2 1 1 2 2 3 3 2 1 3 4 3 3 4 4 3 9 10 15 19 18 15 13 8 14 15 15 19 22 23 22 23 24
3 10 3 2 3 3 2 1 1 3 3 2 3 2 3 3 2 2 3 0 2 3 4 3 3 4 4 4 3 2 5 7 9 9 14 15 6 7 8 11 13 7 11 13 16 15 17 23 26 25 25 23 24 24
7 2 2 5 3 4 4 3 3 3 2 4 3 4 3 2 2 4 2 2 2 2 4 5 7 5 3 6 3 5 5 7 5 5 7 8 11 13 14 13 16 15 8 13 20 22 23 24 21 27 25 27 26 21
1 3 2 1 2 3 2 3 1 3 3 3 3 5 4 2 3 2 1 1 2 4 6 9 7 5 2 3 3 2 4 8 7 7 12 14 8 7 14 16 17 18 18 24 24 23 22 23 24 25 27 26 24 23
3 4 4 3 3 3 4 5 5 4 2 2 3 4 3 3 2 1 2 2 4 3 5 6 5 5 4 2 1 2 2 7 6 6 7 15 19 18 16 17 18 20 27 27 21 22 21 24 25 25 25 25 24 22
1 3 3 4 2 2 4 1 1 3 1 3 3 3 2 2 2 2 2 3 2 2 5 6 5 5 5 3 2 1 2 7 13 5 9 16 19 16 9 11 8 9 19 23 29 26 23 22 24 25 23 20 20 22
3 4 2 1 2 3 1 2 2 2 1 3 3 3 3 2 3 1 1 1 1 5 13 14 10 6 6 4 3 2 2 8 9 12 16 18 19 22 23 15 10 19 27 29 29 32 29 27 27 25 23 21 20 19
4 4 5 3 2 0 4 1 3 4 3 2 1 1 3 3 3 2 2 4 14 17 17 15 11 9 5 2 3 7 12 21 26 27 28 24 20 19 20 20 24 27 28 28 30 30 32 32 30 28 25 23 19 14
2 2 3 1 1 1 4 5 4 2 1 2 3 2 3 2 2 1 5 14 16 13 9 6 6 1 6 9 9 11 11 12 12 14 15 8 5 12 22 28 29 27 26 24 23 27 27 27 26 25 21 20 16 13
4 2 3 1 5 4 3 2 2 2 1 2 1 2 2 2 3 4 9 13 10 7 9 7 4 4 2 2 5 12 12 10 8 10 9 9 10 23 26 29 29 28 28 29 28 26 24 24 23 21 19 17 14 11
3 3 3 1 3 2 2 2 2 2 2 1 2 2 3 2 3 3 9 12 10 8 5 5 8 9 7 6 4 3 5 10 10 12 24 30 28 28 29 30 30 31 32 32 32 29 25 23 21 19 16 14 10 7
2 3 4 2 2 2 2 2 1 1 3 1 2 1 3 2 2 2 8 9 7 7 10 9 7 7 7 8 9 11 16 20 23 29 32 31 30 30 30 31 31 30 30 28 26 24 22 21 18 15 13 10 7 5
3 2 3 3 2 1 1 3 3 3 2 1 2 1 2 1 3 2 1 3 4 5 7 8 8 9 10 12 15 16 18 21 23 26 28 29 30 30 29 27 26 26 25 24 23 21 19 16 14 11 9 7 5 2

GFSWCAN_925_spd_030.txt.gz
Wind_Speed
24 25 27 29 29 28 27 24 23 21 21 21 20 21 21 25 25 26 12 8 3 2 2 1 3 4 3 3 3 2 2 3 3 4 2 2 3 4 2 3 4 6 3 3 2 2 4 4 4 2 3 3 3 2
24 25 27 28 27 27 25 23 23 19 19 19 20 20 19 23 21 23 6 15 2 1 2 2 3 2 5 7 4 3 1 2 3 3 3 3 2 1 2 3 2 3 5 3 6 5 4 3 3 2 2 1 3 2
24 25 27 27 27 25 23 22 20 18 18 18 20 19 19 24 20 20 13 14 1 1 2 1 4 4 7 10 12 3 2 3 3 1 3 2 3 3 3 5 2 3 3 2 3 3 4 4 1 3 4 3 3 7
25 24 25 25 25 24 22 19 18 17 18 20 21 20 22 22 22 20 12 14 9 1 1 1 1 1 2 8 15 10 1 1 3 1 2 2 2 3 3 2 3 4 3 3 4 7 5 4 2 4 6 7 10 10
23 22 22 22 21 22 21 20 20 20 21 21 21 22 22 22 23 26 18 7 9 2 2 2 1 1 2 7 7 7 4 2 2 1 3 3 1 2 1 1 3 5 6 4 4 4 2 0 5 6 6 6 8 13
21 20 20 20 20 21 21 21 22 22 22 23 24 25 23 21 20 12 2 5 7 3 1 2 0 2 2 5 5 3 4 3 2 2 2 2 1 3 3 3 5 4 3 2 2 2 3 6 5 4 8 7 8 11
19 18 19 20 20 21 22 23 24 24 25 27 27 27 24 21 16 5 4 1 5 0 1 2 1 0 3 2 1 2 2 2 2 2 2 1 1 1 1 4 4 3 5 3 4 6 5 2 5 7 12 12 12 12
17 17 18 20 21 22 23 24 25 25 29 30 31 26 20 13 9 8 11 9 8 3 1 1 2 1 3 1 1 1 1 1 2 1 1 1 0 1 4 8 2 4 6 5 3 2 3 10 11 10 10 13 13 11
16 16 18 20 22 23 24 25 25 28 33 32 22 6 3 4 4 3 5 8 11 3 2 2 2 2 1 0 0 0 1 2 0 2 0 1 2 4 7 5 4 7 5 8 5 7 8 11 10 10 11 10 14 10
16 16 17 19 22 23 23 23 26 30 31 18 9 3 1 2 10 3 5 3 1 2 1 2 1 2 1 1 0 0 1 0 1 1 2 2 4 7 4 4 2 8 9 11 10 5 6 6 10 10 8 8 11 10
16 16 17 19 22 23 21 22 27 28 13 8 4 3 11 12 1 1 1 0 1 1 2 2 3 3 1 2 2 0 1 0 1 2 1 2 4 4 4 4 1 7 9 5 2 5 6 12 14 13 10 9 11 12
16 16 17 18 21 20 19 24 23 22 12 8 10 9 6 3 2 2 3 0 2 3 1 3 3 2 1 1 2 1 2 1 3 3 1 3 4 3 3 3 2 5 7 5 3 8 11 12 11 12 12 11 13 20
15 17 18 18 19 18 23 23 23 17 9 2 1 1 2 1 1 5 6 1 1 2 2 2 1 2 1 2 2 1 1 2 1 0 3 4 3 3 2 2 4 5 6 7 7 8 12 11 16 18 13 18 21 20
15 17 18 18 13 22 21 23 18 7 2 1 2 2 2 1 2 1 1 1 2 2 1 1 2 2 1 3 1 1 1 2 1 2 5 3 3 1 1 2 5 5 6 8 9 10 13 13 13 18 19 20 23 21
15 18 19 8 21 21 22 17 8 1 0 1 0 1 1 2 2 1 2 1 2 2 1 2 2 2 1 3 1 2 1 4 5 4 3 3 2 2 4 3 6 7 7 8 9 11 13 15 15 17 19 22 24 25
14 17 1 19 22 20 18 9 3 1 1 0 1 2 2 1 1 2 2 2 2 1 1 2 2 3 3 4 3 7 5 6 4 3 3 1 2 3 4 5 5 6 9 10 10 13 17 17 16 18 21 23 23 26
12 4 15 23 20 20 6 3 3 2 2 2 1 1 1 3 3 2 2 2 1 0 3 2 5 7 3 2 3 4 5 3 3 3 1 2 3 5 5 6 6 8 10 10 15 17 19 23 26 25 14 16 25 26
5 15 20 19 18 9 2 4 2 2 2 1 2 3 3 3 4 4 2 3 2 2 1 3 3 2 5 6 4 4 3 2 1 2 2 1 4 4 4 7 7 9 10 14 18 19 22 20 15 12 22 25 27 26
13 17 16 13 10 3 2 2 2 1 2 2 4 3 3 5 6 6 5 4 4 2 2 1 3 4 4 3 3 3 2 2 2 1 2 1 4 6 7 10 12 12 14 16 18 15 16 17 19 22 23 22 20 19
13 11 9 11 4 2 1 3 1 1 2 2 2 3 4 5 3 4 5 3 2 2 4 4 3 0 1 2 1 2 2 3 3 2 1 1 3 8 6 9 8 15 16 19 19 22 22 20 19 20 22 23 23 18
8 2 8 4 2 3 1 1 1 1 2 3 2 3 4 3 3 2 2 1 3 2 2 2 2 3 5 4 4 2 4 4 4 3 4 3 3 8 8 13 16 15 12 11 9 14 15 15 19 22 24 22 24 26
3 6 3 1 3 3 2 1 1 2 2 2 3 2 3 3 3 2 3 1 2 2 3 4 5 6 7 5 5 7 7 6 3 3 8 14 5 5 6 10 11 6 8 11 15 15 17 21 26 26 27 25 27 26
4 1 1 3 3 3 4 2 3 2 1 3 3 3 3 2 2 2 1 1 1 2 3 4 8 13 9 11 8 2 1 5 3 3 4 5 10 12 13 13 15 12 7 11 17 21 22 23 22 27 26 27 27 23
0 3 1 0 2 3 2 3 1 3 3 3 3 4 4 3 3 2 2 1 2 3 4 8 7 7 5 3 2 2 4 3 6 6 9 9 6 5 13 15 14 15 18 22 23 23 23 23 26 26 26 26 24 24
4 4 3 3 3 3 2 3 4 3 1 1 1 4 3 2 2 2 2 2 2 2 4 6 5 5 4 5 4 3 5 1 3 4 6 14 14 13 11 14 17 19 25 28 22 24 22 24 24 25 25 26 25 24
1 4 4 5 2 3 4 3 3 5 2 2 4 3 3 2 2 4 2 2 2 2 3 5 5 6 6 5 6 5 5 6 9 3 6 15 15 13 9 9 8 9 17 21 31 28 24 24 26 26 23 21 22 25
3 5 2 1 2 3 2 2 2 3 3 4 3 3 3 1 4 3 1 1 2 3 13 14 11 6 6 8 15 14 11 6 5 6 10 12 13 18 20 15 10 18 26 28 28 31 32 28 27 25 24 24 23 23
4 4 5 3 1 0 4 2 4 6 4 2 2 1 4 6 4 2 3 3 10 18 19 19 17 15 14 13 14 11 4 8 14 17 18 16 16 18 21 22 26 32 29 29 31 31 32 32 31 30 28 26 21 17
3 2 3 2 1 1 4 6 5 3 1 3 4 3 3 2 2 2 3 8 16 15 10 9 11 11 10 8 6 6 8 11 7 9 9 5 4 8 21 29 30 29 29 27 25 29 30 31 31 29 27 25 21 18
3 2 3 2 5 5 3 2 2 2 1 2 1 2 2 3 4 5 8 11 12 9 12 15 14 9 4 3 2 1 1 4 8 7 8 7 7 18 23 26 31 32 31 31 30 28 27 29 28 28 27 24 21 18
3 3 3 2 3 2 2 2 2 2 2 1 2 2 3 3 5 4 5 10 11 12 10 7 6 8 6 5 3 2 2 4 9 12 20 29 29 27 26 29 33 34 34 35 34 32 30 31 30 27 24 21 16 13
2 3 4 2 2 2 2 2 1 1 2 1 2 1 3 2 3 2 2 5 4 6 8 8 7 6 8 4 5 6 7 13 19 27 29 30 31 32 34 35 35 35 35 34 32 32 31 30 27 25 22 18 14 11
2 2 2 2 2 1 1 3 3 3 1 1 2 2 2 2 5 3 2 0 1 3 7 7 6 7 7 9 11 12 12 16 19 25 28 30 34 35 35 33 32 32 32 32 30 29 27 26 23 20 17 14 11 8

GFSWCAN_925_spd_033.txt.gz
Wind_Speed
20 21 24 25 27 25 24 22 21 20 17 18 18 21 21 21 26 24 15 8 6 1 2 1 2 4 3 3 3 2 1 3 4 5 4 3 3 4 2 3 4 5 4 3 2 2 6 2 4 4 3 5 3 2
19 21 24 25 25 23 22 21 19 16 16 17 19 19 18 20 21 20 7 20 17 1 2 2 3 1 4 6 4 4 2 1 3 3 2 2 2 1 3 3 1 2 5 3 6 5 4 3 4 2 2 4 3 2
18 21 23 24 23 21 21 20 19 17 17 18 19 20 18 21 20 19 14 18 5 2 2 1 2 3 5 8 11 3 3 3 3 1 2 1 3 2 3 5 2 3 3 2 2 4 5 4 1 3 4 3 4 5
18 21 21 22 22 21 20 20 20 19 19 19 19 19 19 21 21 19 17 15 8 3 1 2 0 1 2 7 12 8 2 3 1 2 3 2 2 3 3 2 3 4 3 3 5 7 6 3 3 3 4 5 9 10
17 19 19 20 21 20 20 21 20 20 19 20 20 22 21 20 20 22 24 16 11 3 2 2 1 1 1 5 7 7 5 2 2 3 2 3 0 2 1 1 3 5 6 4 4 2 2 1 4 4 3 5 8 13
17 18 19 20 21 21 21 22 22 22 21 21 22 23 20 18 17 11 2 4 5 3 1 2 1 2 2 3 4 3 3 2 2 2 2 2 1 2 1 3 6 5 3 4 1 2 2 5 6 3 6 7 9 11
17 18 19 20 22 21 22 23 24 24 22 23 26 25 21 16 11 4 3 2 6 8 2 2 1 1 4 2 1 2 2 2 2 2 3 2 1 2 2 4 5 5 5 4 3 7 3 3 4 7 10 11 14 14
16 17 19 20 22 22 23 24 25 25 27 28 27 21 12 8 7 7 9 8 9 4 1 1 2 1 4 1 1 2 2 2 3 1 1 1 1 1 4 8 2 2 3 3 5 1 1 9 10 10 9 13 14 12
17 16 19 21 21 21 23 24 25 29 30 29 15 4 4 2 3 4 8 3 10 1 1 1 1 2 1 1 1 1 1 2 1 2 1 1 2 5 7 5 6 8 6 6 5 7 8 10 8 10 11 12 14 11
18 16 17 20 21 21 23 23 26 29 28 14 6 2 2 1 12 6 2 2 1 1 0 2 2 1 1 0 1 1 0 1 1 1 2 2 4 6 4 3 2 4 7 11 9 6 6 8 11 11 8 8 12 11
17 15 17 19 20 21 19 23 24 27 12 8 4 2 9 11 2 1 1 1 1 1 2 2 3 3 1 2 1 1 1 1 1 2 1 2 3 3 4 5 2 5 8 4 2 4 6 11 13 13 10 10 11 14
16 14 16 19 19 19 20 21 21 18 10 7 8 6 6 3 2 3 1 1 1 3 1 2 2 3 1 0 2 2 1 1 2 2 1 3 4 3 2 3 3 5 7 4 2 8 11 13 11 12 12 12 14 20
16 14 16 19 19 16 22 20 19 10 5 2 0 2 2 1 1 3 4 2 1 2 1 0 0 0 0 1 2 1 2 2 0 1 3 4 3 3 2 1 3 4 7 7 7 7 13 12 18 20 14 19 23 21
15 14 15 17 15 19 18 19 11 4 2 2 3 2 2 2 2 2 2 1 2 2 3 1 1 1 0 2 1 2 1 1 1 2 5 3 3 2 1 0 4 6 7 8 9 10 13 13 13 19 21 24 25 22
15 15 16 9 17 17 17 12 5 3 2 2 1 2 1 2 2 1 2 2 2 2 1 0 1 1 1 2 2 2 2 3 5 4 3 3 3 2 1 1 5 5 5 7 9 11 12 16 15 16 19 22 25 27
13 15 4 12 18 16 11 5 3 2 2 1 1 2 2 1 1 2 2 2 2 2 1 1 1 1 4 4 3 7 5 5 4 3 3 2 2 2 1 2 4 5 6 7 7 12 16 16 16 18 22 20 23 25
10 6 6 17 17 15 3 1 1 2 1 1 0 1 1 2 3 2 1 2 4 3 2 1 5 5 2 2 2 5 6 3 3 2 2 2 2 2 3 5 5 6 7 8 13 15 17 23 25 23 14 17 24 25
7 9 13 16 15 6 1 2 2 1 1 0 1 3 2 2 3 3 3 2 1 2 1 2 1 2 5 5 4 3 3 2 2 2 2 2 2 2 3 6 5 8 8 11 14 18 21 20 15 12 22 26 26 27
12 12 15 13 8 1 3 3 3 1 2 1 3 3 3 4 5 4 6 6 2 2 3 2 4 3 3 2 2 3 2 2 2 2 2 3 2 4 5 9 11 11 12 12 15 13 14 16 19 22 23 23 20 20
10 9 8 7 4 1 3 3 2 1 1 2 2 3 3 4 3 3 5 3 2 2 4 4 2 2 3 3 2 5 4 3 1 1 2 1 1 7 5 6 6 14 15 17 17 20 20 18 18 20 21 23 25 20
6 3 3 2 1 3 2 2 1 1 1 1 1 2 3 3 3 2 1 1 2 2 2 3 3 5 6 6 10 7 6 4 4 3 3 2 2 7 6 12 15 12 11 11 8 13 15 14 17 21 22 21 23 25
4 2 1 1 2 2 3 3 1 1 0 1 1 2 3 3 3 2 3 1 1 1 3 3 5 6 8 8 8 15 15 15 11 7 4 10 4 4 4 10 10 5 8 11 15 13 15 19 23 26 27 25 27 27
3 2 2 2 2 3 2 2 2 1 1 3 3 2 2 2 3 2 0 1 2 2 2 3 7 12 10 18 16 13 10 9 3 3 4 4 7 11 12 13 14 12 8 11 19 22 20 23 22 27 27 27 28 24
4 3 3 1 1 3 1 3 1 2 2 3 2 4 4 2 3 3 3 2 3 1 1 3 4 6 6 6 4 5 10 11 7 4 6 7 4 3 12 12 14 14 16 21 22 25 24 23 26 25 26 25 23 23
4 2 3 3 3 3 2 2 3 3 2 1 1 4 3 3 2 2 2 3 2 2 2 2 3 4 4 5 5 7 15 11 6 4 6 8 10 11 10 12 14 18 24 26 21 23 24 24 24 25 25 26 25 23
2 3 4 5 1 4 5 3 4 5 3 1 5 3 3 2 2 5 3 2 2 2 2 2 4 6 6 5 7 6 11 16 15 5 6 14 15 12 8 9 8 10 20 23 31 27 24 24 26 27 24 25 27 30
3 5 2 1 2 4 2 2 2 3 3 5 3 1 2 1 5 4 1 2 2 4 6 14 12 8 7 10 15 16 17 17 14 13 9 14 16 17 20 15 11 18 25 27 26 35 35 29 28 26 26 24 29 30
4 4 6 4 2 0 4 2 4 6 4 3 3 2 6 7 4 3 4 4 6 10 16 17 16 17 18 19 19 18 16 12 7 5 7 9 11 15 18 19 25 32 32 31 30 29 29 31 32 32 33 31 29 25
3 2 4 2 1 1 4 5 5 3 1 4 5 3 4 3 2 2 3 3 8 13 11 11 15 15 16 17 16 15 13 11 5 5 6 2 2 4 19 25 29 31 31 30 26 32 37 38 37 35 33 32 28 24
3 2 3 2 5 5 3 2 2 2 0 1 1 2 2 3 5 7 8 7 7 9 12 14 17 13 9 10 8 9 9 12 15 7 3 5 5 14 23 27 29 32 33 33 34 32 30 33 32 33 33 30 28 25
3 3 3 2 3 2 2 2 3 2 2 2 1 2 3 3 6 5 7 6 9 9 9 10 13 10 11 9 6 4 4 6 9 15 16 16 23 23 24 28 32 34 33 36 38 37 34 34 36 34 31 29 23 21
1 2 4 3 2 2 2 2 1 1 3 2 2 1 3 3 3 2 3 2 1 2 5 10 11 11 15 12 10 8 7 4 5 14 20 25 25 27 30 33 36 37 38 38 38 38 37 36 31 31 30 26 22 19
2 2 2 3 2 2 1 3 3 4 1 2 3 2 2 2 5 3 3 3 1 3 7 9 10 10 9 8 5 2 3 8 12 16 20 24 28 30 32 33 37 41 41 38 34 36 35 34 32 29 26 23 20 16

GFSWCAN_925_spd_036.txt.gz
Wind_Speed
13 13 15 18 19 19 19 20 20 19 18 16 18 19 19 19 22 25 13 7 8 2 1 2 2 4 3 3 3 4 2 2 3 5 3 3 4 4 3 2 3 6 5 4 4 5 5 3 8 4 6 5 7 6
14 14 16 16 17 17 18 19 19 18 19 20 20 20 18 19 20 20 7 21 18 3 2 2 2 1 1 4 4 4 2 2 3 3 4 3 4 3 3 2 2 4 5 2 5 4 2 3 5 5 5 7 4 5
14 15 16 15 15 16 17 18 19 18 18 19 19 18 18 18 18 16 13 17 6 2 2 2 2 1 3 3 6 4 2 2 2 0 1 3 4 1 3 4 2 4 3 3 4 2 4 2 2 3 3 4 3 1
12 15 16 14 14 15 17 17 19 19 19 19 20 19 19 18 17 16 11 14 5 3 2 1 0 0 2 5 6 4 3 4 2 0 2 2 4 3 2 1 3 1 6 4 6 14 6 4 3 3 5 5 6 8
12 14 15 15 14 15 17 19 20 20 21 21 21 18 19 18 17 18 21 17 10 2 2 2 1 1 1 2 5 6 4 3 2 3 4 4 1 1 1 1 5 6 6 5 3 3 4 3 4 3 4 6 6 11
13 14 14 16 15 16 18 20 22 22 22 22 22 21 20 17 14 9 1 6 6 4 3 2 1 2 1 2 4 2 2 2 2 2 2 3 1 2 3 4 6 7 6 7 4 2 3 5 6 6 7 7 9 11
12 14 15 15 15 17 19 21 23 24 24 26 25 22 19 14 10 5 2 2 7 7 2 2 2 1 3 2 1 2 2 2 2 2 3 1 1 3 2 7 5 5 6 7 4 6 3 4 3 7 11 12 14 16
11 12 15 16 15 16 19 22 25 26 27 28 25 17 9 4 5 7 8 4 4 2 2 1 2 2 4 1 1 2 2 2 3 2 1 2 2 1 4 11 8 5 3 4 7 2 2 10 11 10 11 12 13 14
10 12 15 14 15 16 20 22 24 29 30 25 12 4 4 2 3 2 6 5 9 2 1 1 1 1 1 1 1 1 1 2 1 2 2 1 3 5 9 7 6 4 4 4 6 6 9 10 12 12 13 13 15 13
10 14 14 15 14 16 19 21 26 29 27 11 5 1 1 2 11 5 2 2 1 2 2 2 0 2 2 1 0 1 0 1 1 1 2 3 4 10 9 4 2 2 5 11 7 5 6 6 10 11 11 10 11 15
9 13 13 14 14 15 17 19 23 27 12 6 4 2 8 7 1 1 1 1 2 1 2 1 2 1 1 1 1 1 0 1 2 1 2 2 4 3 2 4 4 4 9 9 1 4 8 12 14 14 11 12 12 17
10 11 12 12 14 15 15 19 19 15 8 8 8 6 5 2 1 2 0 1 2 2 0 1 1 1 0 1 0 1 0 0 2 2 2 3 3 2 3 3 3 4 9 7 2 7 11 13 13 14 13 14 17 21
11 10 12 12 13 13 16 17 16 9 7 2 1 2 3 1 2 3 5 2 1 4 3 2 1 1 1 1 2 0 1 2 1 2 3 4 2 4 3 3 2 1 4 6 6 8 13 14 18 19 15 19 23 23
10 10 11 10 12 14 14 15 11 5 3 2 2 2 2 1 1 1 1 0 1 2 3 2 1 1 0 1 0 2 0 1 2 3 4 1 2 5 3 2 1 3 3 5 8 11 14 14 13 19 20 24 23 21
10 12 9 8 8 14 14 10 6 4 1 0 0 2 1 1 1 1 2 2 1 2 2 2 1 0 0 1 0 1 1 3 4 4 2 1 3 3 3 1 1 4 5 6 7 10 13 17 16 18 20 21 22 24
10 11 2 1 12 13 10 5 3 2 1 1 1 2 1 1 1 1 0 1 1 3 0 0 1 0 3 2 3 6 4 6 3 3 1 3 3 2 2 1 2 3 5 7 7 11 15 16 16 19 21 21 22 24
7 5 2 9 12 11 3 3 1 1 1 1 2 2 1 1 2 2 2 2 5 3 1 1 3 3 2 1 3 5 4 2 4 4 4 4 4 4 1 2 3 5 7 8 13 15 15 19 23 23 15 19 21 20
7 6 6 9 11 4 2 2 2 2 3 1 1 1 2 2 2 3 2 2 2 2 2 1 0 3 4 4 3 2 3 5 4 4 6 7 6 5 3 3 4 7 8 11 12 15 18 19 14 11 21 23 24 23
10 6 5 8 4 1 2 2 1 2 3 1 2 2 3 3 4 5 4 5 3 3 3 2 4 3 2 1 2 3 6 5 6 8 6 6 7 5 2 4 7 7 10 12 15 13 14 14 16 20 21 23 19 19
8 6 5 3 1 2 3 1 1 1 1 1 1 2 3 3 3 4 4 3 2 2 3 4 2 2 3 3 5 6 6 7 7 8 8 3 2 3 3 4 5 10 12 13 14 18 17 17 16 20 20 22 23 20
5 3 3 2 3 4 2 2 1 1 1 2 1 1 3 3 3 2 1 1 2 3 3 1 1 3 5 7 11 10 7 6 6 4 7 8 4 4 4 4 8 10 10 10 8 12 16 15 17 20 23 20 20 21
4 5 3 2 3 2 2 3 1 1 2 1 2 1 2 2 2 1 3 2 2 0 1 1 3 4 7 7 9 13 15 16 13 11 12 11 4 3 5 8 9 6 8 10 13 12 16 21 22 21 22 23 25 25
7 4 3 3 3 2 2 1 2 1 2 1 1 1 2 2 2 3 2 1 2 2 2 2 4 9 11 17 16 13 8 10 7 6 8 7 9 8 8 12 12 10 6 10 14 16 19 22 25 26 25 25 26 24
6 3 3 2 2 2 1 2 1 2 2 1 1 2 2 2 4 1 3 2 2 1 2 2 4 6 6 5 6 6 11 12 11 11 10 7 4 6 11 13 13 12 14 18 19 20 23 22 26 25 26 26 24 24
4 1 2 2 1 3 2 1 1 1 2 2 2 3 1 2 1 2 3 2 2 2 2 2 3 4 4 6 6 10 12 10 6 7 14 12 7 3 5 9 12 17 24 23 21 21 21 23 25 26 26 26 26 24
3 3 5 5 2 4 4 4 4 5 2 3 5 1 1 1 1 5 3 2 3 3 2 3 2 4 6 7 7 7 12 12 13 7 12 13 12 9 6 7 6 9 21 23 28 27 23 23 25 26 23 26 28 28
4 5 2 1 2 4 2 2 3 2 4 5 3 3 2 2 5 4 2 3 3 6 6 7 8 7 7 11 16 17 17 16 15 16 20 24 20 18 16 12 9 13 21 24 28 33 30 26 27 26 26 25 26 30
3 4 6 4 2 1 4 2 4 6 4 3 4 4 6 7 4 3 3 4 8 6 9 14 16 17 19 20 21 20 19 16 18 18 17 15 14 15 19 18 15 21 29 31 34 30 30 33 33 30 29 28 28 30
3 3 4 3 2 2 5 6 5 3 1 4 4 4 4 3 2 2 4 6 6 6 9 10 14 12 17 17 17 17 18 14 9 9 9 5 2 4 12 17 19 25 27 28 27 32 35 31 32 33 34 33 31 30
4 3 3 3 5 5 2 2 1 1 0 0 2 2 2 3 5 7 8 8 7 7 9 11 15 14 10 9 11 15 15 15 15 11 6 5 4 7 13 18 24 25 28 30 31 32 30 32 30 31 33 32 31 30
3 2 3 2 3 1 1 2 2 1 2 1 1 2 3 4 7 7 9 9 8 8 8 8 12 12 10 10 7 6 8 10 7 13 18 19 14 13 19 22 25 30 32 33 35 35 34 32 33 34 30 27 27 28
2 3 3 2 2 2 2 1 1 1 2 1 2 1 3 2 3 2 3 6 4 4 6 7 9 11 16 17 17 16 17 21 21 17 13 15 18 21 24 26 28 29 32 33 33 35 38 36 31 30 29 30 28 26
2 2 2 2 2 2 1 2 3 3 1 2 2 1 2 2 5 2 3 8 6 4 6 8 10 12 12 12 12 12 9 8 6 4 7 14 20 25 28 29 32 34 33 31 32 38 39 39 34 32 32 30 27 23

GFSWCAN_925_spd_039.txt.gz
Wind_Speed
15 16 15 14 15 14 15 16 16 16 16 16 16 16 16 17 18 19 9 5 6 3 1 2 3 1 3 4 3 4 2 1 3 3 3 3 5 3 3 2 5 7 6 4 4 5 6 6 8 5 8 9 7 2
15 16 15 15 16 14 14 15 15 16 16 16 16 15 16 16 17 16 4 14 14 3 4 3 4 2 2 3 3 6 0 3 2 3 3 4 4 3 5 2 3 4 6 2 7 4 9 10 8 7 5 9 5 1
15 17 15 16 16 15 15 16 16 15 17 17 16 15 15 14 14 12 9 13 5 3 3 3 3 1 1 0 3 3 1 3 2 2 2 3 5 2 4 7 3 7 4 4 3 4 4 11 5 3 6 4 4 2
15 16 16 16 15 15 17 18 17 17 18 18 17 15 14 13 13 11 8 9 3 3 2 2 1 1 1 3 4 2 3 3 2 1 2 2 4 1 2 2 4 3 6 4 8 13 3 4 6 5 4 5 6 6
15 15 16 17 16 15 18 19 18 18 19 19 17 16 14 13 13 13 12 13 9 3 2 3 1 2 1 1 3 3 5 4 2 3 3 3 2 3 4 2 7 7 8 7 5 4 2 4 4 4 4 5 7 9
14 16 16 16 16 16 18 19 19 20 21 20 18 19 15 11 8 6 1 5 5 6 2 2 2 1 1 2 1 2 3 1 1 2 3 3 2 3 3 4 6 8 9 11 10 4 3 5 4 5 6 6 9 10
14 15 16 15 16 17 19 20 20 21 22 22 21 17 12 8 7 4 2 3 2 7 2 3 2 1 2 1 1 2 3 2 1 2 3 2 2 2 3 8 6 6 4 5 4 4 3 6 2 7 10 10 12 13
14 15 15 14 15 17 18 19 21 22 24 23 14 5 3 6 3 5 3 2 2 3 3 2 2 2 4 1 2 2 2 2 3 2 1 2 1 2 4 13 11 10 8 6 7 6 2 9 10 10 11 11 12 11
15 14 14 15 14 17 17 19 21 25 25 11 3 10 7 2 2 1 4 9 8 3 1 1 1 1 2 1 1 2 1 2 0 2 1 1 3 5 9 7 6 6 4 2 4 4 7 9 10 10 11 12 12 12
14 12 14 14 15 15 16 19 22 25 16 3 2 2 2 2 7 3 3 2 3 2 2 2 2 1 2 0 0 1 0 1 1 1 2 3 4 12 13 10 5 2 2 8 6 3 4 5 10 11 10 10 11 11
12 13 13 13 14 15 16 17 21 24 6 4 3 2 5 4 2 1 1 1 1 2 2 0 1 3 1 2 2 1 1 1 2 1 2 2 3 2 3 4 5 7 6 9 4 1 10 12 12 13 11 11 11 14
12 13 12 11 12 12 13 15 17 10 4 3 3 2 3 1 1 2 0 1 1 1 2 2 1 2 0 1 1 0 1 1 2 2 2 3 2 3 6 6 6 5 4 7 5 3 8 12 12 11 12 12 15 18
12 12 12 13 11 11 12 13 13 6 4 0 1 1 1 1 2 3 4 2 1 3 3 3 2 2 1 1 0 1 1 2 0 1 3 3 3 4 6 6 5 3 2 2 2 3 7 10 15 16 13 18 21 20
12 11 11 12 11 9 12 12 6 3 3 1 2 1 1 3 1 1 1 2 2 1 3 2 2 1 1 1 1 2 0 1 2 2 4 2 6 8 7 5 5 2 2 3 4 5 8 9 9 16 17 21 22 20
12 11 12 11 8 9 10 7 3 2 2 1 1 2 2 2 1 2 1 2 0 2 2 2 2 1 1 1 1 1 2 4 4 3 3 5 9 7 8 8 6 2 1 3 5 6 8 11 11 14 17 19 20 22
9 11 5 3 7 10 6 1 3 1 1 1 1 2 2 1 2 1 1 0 1 4 1 1 1 1 3 1 2 5 3 4 1 3 5 7 10 10 9 8 6 4 1 2 4 8 11 13 13 15 18 18 20 21
6 5 5 4 9 8 1 2 1 0 2 3 2 0 1 2 1 2 1 1 4 2 1 1 3 3 1 2 3 4 4 2 6 6 6 7 9 9 9 8 6 4 1 3 6 10 12 15 19 18 12 16 18 18
7 5 5 8 8 2 0 1 1 0 3 2 2 3 2 0 1 1 1 2 2 2 2 1 2 3 4 3 2 2 3 5 5 5 7 9 9 9 6 7 6 5 1 2 7 9 14 16 12 10 19 21 22 22
10 7 8 7 4 1 1 0 1 2 2 0 1 0 1 1 2 2 2 2 1 1 3 2 4 3 2 2 2 4 5 5 7 9 9 10 8 7 9 6 4 2 1 4 8 9 11 13 13 19 20 21 18 19
10 9 8 5 1 1 2 1 1 1 2 1 0 2 2 1 1 2 3 3 2 1 3 3 4 1 1 1 2 4 6 6 7 9 8 5 10 8 5 6 4 0 2 4 4 9 11 12 14 18 19 20 21 20
10 7 6 4 2 2 1 2 1 0 0 1 1 1 2 1 1 1 2 1 3 3 4 2 1 0 2 5 7 9 7 7 7 7 9 9 10 11 10 5 4 4 6 7 5 8 10 10 15 17 20 19 20 21
5 9 3 2 2 1 0 3 1 2 1 1 2 1 2 2 2 2 1 3 3 2 1 1 1 3 5 5 6 11 14 15 15 14 16 16 9 7 5 6 5 4 6 7 9 9 11 14 16 19 20 21 23 24
11 5 2 2 1 1 1 1 2 2 3 3 1 2 2 2 1 0 2 3 2 2 2 1 1 4 7 13 12 13 12 12 7 10 12 12 14 13 11 10 10 8 4 9 11 13 15 18 19 19 23 23 25 24
8 3 1 2 3 3 1 2 1 2 1 2 2 2 2 1 2 2 3 2 2 3 3 3 2 4 4 5 5 5 9 9 12 14 13 12 7 9 11 11 11 13 12 12 15 15 18 19 22 23 22 24 24 23
4 4 3 4 1 3 4 4 3 3 3 3 3 2 2 1 2 3 3 2 3 4 4 4 3 4 4 6 6 9 8 10 9 8 14 15 15 14 11 10 10 12 16 16 16 19 20 21 22 23 24 25 25 24
5 5 6 6 4 4 5 5 6 5 3 3 4 1 1 2 2 4 3 3 3 4 4 5 4 4 6 7 7 7 10 9 12 11 16 15 13 10 7 6 4 7 16 19 20 22 22 23 24 25 24 26 28 27
5 6 3 1 1 3 2 2 2 2 5 5 4 4 3 3 5 3 1 3 3 5 6 6 7 7 7 10 14 15 15 14 15 19 22 22 22 21 19 13 8 10 17 21 22 25 26 27 27 26 25 26 28 29
3 4 6 6 3 1 3 3 5 6 4 4 6 4 6 6 4 1 2 3 6 6 6 8 11 13 13 15 16 17 19 18 19 20 21 23 24 25 24 23 21 19 18 26 27 27 28 28 30 29 28 26 26 27
4 4 5 4 3 4 5 6 4 3 1 4 4 4 3 2 1 1 2 4 6 6 5 7 8 9 12 16 17 18 17 14 11 12 13 9 7 9 12 15 18 18 21 23 26 30 32 32 32 32 31 29 28 29
5 4 3 4 5 6 2 0 1 1 1 2 2 2 2 3 4 7 8 8 6 7 8 8 9 8 8 9 11 16 16 16 17 15 9 8 8 11 12 13 15 19 22 23 24 26 27 29 30 30 31 30 29 27
4 3 3 3 2 1 1 1 1 0 1 1 0 2 3 4 6 7 10 9 9 8 6 6 7 8 9 9 9 8 11 12 9 12 14 18 19 20 19 15 16 20 24 26 28 29 32 29 29 30 28 28 28 29
3 3 3 4 2 1 0 0 1 1 0 1 1 1 2 2 3 2 3 6 5 5 5 5 6 8 13 17 19 20 20 25 24 23 22 20 19 18 17 15 20 24 26 26 28 33 33 32 30 30 30 31 32 31
2 2 1 3 2 2 1 1 0 1 1 2 1 1 1 2 5 2 3 8 7 4 4 7 9 11 14 15 16 17 15 17 16 15 14 12 10 12 16 20 23 26 30 28 28 31 33 34 33 32 33 34 31 30

GFSWCAN_925_spd_042.txt.gz
Wind_Speed
14 14 14 15 16 17 16 17 16 17 17 16 18 16 16 16 17 17 9 3 5 2 5 3 4 3 3 1 3 4 2 1 1 2 2 3 2 3 3 8 6 6 6 3 4 4 6 3 6 1 2 4 5 2
14 14 15 16 17 18 16 17 16 17 17 17 17 17 15 15 15 15 5 9 11 3 3 5 3 0 2 0 3 3 2 3 2 1 2 3 3 2 4 1 2 4 5 5 7 5 7 6 2 6 5 3 4 2
14 15 15 16 17 18 17 17 17 18 18 17 17 17 16 13 12 12 11 12 3 2 3 2 2 2 3 2 3 3 1 1 2 1 0 3 4 2 2 4 5 4 3 2 4 6 4 5 5 6 5 5 4 3
15 14 15 15 17 18 17 17 18 18 19 19 19 17 15 12 11 11 11 10 5 2 2 1 3 5 1 2 3 3 5 4 3 1 2 2 3 4 2 3 2 0 3 5 5 8 3 5 5 4 6 5 5 5
15 14 15 15 16 18 17 18 19 19 20 20 20 18 16 13 11 12 15 14 10 2 2 3 2 1 1 3 5 5 5 4 2 2 2 3 3 2 4 1 3 4 5 3 3 2 1 3 5 4 6 4 6 7
14 14 15 15 16 17 16 18 20 20 21 21 22 18 16 11 7 6 2 1 7 7 1 2 2 3 2 3 4 3 3 2 1 2 2 3 4 2 3 3 4 4 4 7 1 3 4 7 6 5 6 6 7 7
14 14 14 14 16 17 17 18 20 22 22 24 23 17 10 8 9 4 3 5 7 1 1 2 1 2 3 2 2 1 3 2 2 2 3 3 2 2 3 4 5 2 6 2 5 6 3 5 4 7 7 8 11 10
13 14 13 13 15 17 17 18 20 23 23 24 13 6 3 7 6 6 5 7 5 3 2 1 2 1 2 1 1 3 2 2 3 2 2 2 2 3 4 6 7 9 5 3 5 5 4 9 9 7 6 9 10 8
13 13 12 11 16 15 16 17 20 23 23 16 4 8 7 2 3 3 6 5 6 3 2 1 1 1 2 2 1 2 2 2 2 3 2 1 2 4 5 4 5 7 3 3 7 7 8 7 8 7 7 7 10 9
12 12 12 11 15 15 15 18 19 24 20 1 4 3 2 3 5 3 5 3 2 2 2 2 1 1 1 0 1 0 1 1 1 1 2 2 3 7 11 8 5 5 3 6 4 1 2 3 7 7 8 7 8 9
11 10 10 12 13 14 15 17 19 24 4 1 1 1 4 5 2 1 1 1 2 1 2 1 1 2 1 1 2 1 0 0 2 1 1 2 2 2 6 7 6 7 7 7 4 1 8 9 11 9 8 10 10 13
10 9 9 12 12 12 14 14 16 10 3 4 3 2 3 2 1 2 0 0 1 2 1 1 0 1 1 1 1 1 1 1 2 1 1 2 1 5 7 7 8 7 7 3 2 3 6 9 10 10 10 11 15 20
8 9 8 11 11 11 13 13 14 8 5 1 2 2 1 1 2 3 5 2 2 1 1 2 1 1 1 0 0 1 0 2 1 1 2 2 6 9 10 6 8 6 5 4 2 1 6 8 15 14 10 16 21 21
8 7 8 11 11 11 11 12 9 5 2 1 0 2 3 3 3 1 2 2 2 1 0 1 1 1 1 1 1 0 1 1 2 2 3 2 8 10 8 8 8 7 6 5 3 4 6 7 9 15 17 21 22 21
8 8 9 12 12 8 10 8 3 2 2 2 1 4 4 1 2 2 1 1 0 1 1 1 1 0 0 0 1 1 1 3 3 2 2 4 7 9 10 10 9 9 7 4 2 3 5 9 11 12 19 20 22 23
7 8 8 4 3 7 6 2 0 1 1 1 1 2 1 1 2 2 0 0 1 2 1 0 1 0 3 2 2 5 2 4 1 2 3 5 7 8 9 9 8 6 6 5 3 2 6 8 9 13 19 20 22 23
5 3 3 4 7 8 2 1 1 1 2 2 2 1 2 2 2 2 2 1 2 2 1 1 3 2 1 2 3 3 3 2 3 3 2 5 7 8 7 7 6 8 6 7 3 1 5 11 18 16 9 18 23 23
6 5 3 4 7 3 1 0 1 1 4 3 2 2 0 2 1 2 3 1 0 1 1 1 1 3 3 3 2 2 2 3 2 2 4 6 7 6 9 7 10 10 8 5 4 5 11 15 9 7 18 23 24 24
10 7 5 4 3 1 1 1 1 1 2 1 1 2 0 0 1 2 1 2 2 1 0 1 3 3 2 2 2 1 1 1 3 5 6 10 4 5 9 13 13 7 5 3 1 3 6 9 10 17 16 18 16 18
11 9 7 3 2 1 2 1 1 1 2 1 2 1 2 2 0 1 2 1 3 2 3 3 4 1 2 2 1 1 2 2 4 6 5 3 11 13 11 11 9 10 6 2 4 6 11 10 14 17 18 17 19 19
14 8 6 3 1 2 1 2 1 1 1 1 2 1 2 1 2 2 3 3 2 3 3 3 3 3 3 2 3 5 4 3 3 3 7 8 10 14 14 13 10 9 7 5 4 6 10 10 16 19 19 17 17 19
5 10 3 3 2 1 1 3 1 1 1 1 2 2 2 2 3 2 1 2 4 3 2 2 2 2 1 1 1 5 9 11 11 12 13 14 7 7 6 13 8 2 9 11 11 9 12 13 17 19 18 20 23 22
11 6 3 2 2 1 1 1 2 2 2 2 1 1 2 2 2 1 3 3 3 2 3 2 2 3 3 7 6 8 8 10 5 8 9 10 13 15 14 15 15 10 5 12 16 14 16 18 17 19 22 21 23 23
9 3 3 3 3 2 2 2 1 2 1 2 2 2 2 2 1 2 4 3 2 1 2 4 4 1 2 2 2 3 4 6 10 12 12 12 4 10 14 17 17 17 17 16 15 16 18 18 19 19 21 22 22 23
4 4 4 4 1 2 3 3 3 3 2 3 2 2 2 1 1 3 3 3 2 3 3 3 1 3 3 3 2 9 6 7 8 5 10 11 15 16 14 16 17 19 16 14 13 15 15 19 20 20 20 22 23 23
5 5 8 6 3 5 5 5 5 5 3 3 4 1 1 2 0 6 3 3 3 4 5 6 5 3 4 7 4 2 10 8 10 8 14 16 16 12 7 7 7 13 13 18 16 15 17 20 21 23 21 23 25 25
6 5 3 1 2 2 2 1 1 2 4 5 3 4 2 2 6 4 2 1 3 5 12 16 16 8 5 8 12 15 15 14 15 18 21 23 24 24 21 15 11 18 17 18 22 21 20 21 22 25 24 24 26 27
3 4 6 5 2 0 3 3 5 6 4 3 5 4 6 8 5 3 3 3 7 7 9 10 11 13 15 17 17 17 19 18 18 19 21 23 23 23 24 26 27 25 25 23 22 23 25 25 25 26 27 27 25 27
3 3 4 4 2 3 5 6 4 3 1 4 5 4 4 3 2 2 4 6 8 8 7 9 11 10 12 13 15 16 16 15 8 10 12 9 6 11 16 17 18 19 19 21 22 23 29 29 29 30 30 29 28 30
4 4 3 4 5 6 2 0 0 0 1 0 2 3 2 3 4 7 9 10 10 11 12 10 9 10 10 9 10 14 15 14 18 15 9 10 8 15 17 22 23 18 15 20 20 20 22 24 25 27 30 29 28 29
4 2 3 3 3 1 1 2 2 2 2 1 0 2 3 3 7 8 13 14 12 10 9 8 9 9 11 13 10 5 8 12 9 14 19 23 25 26 27 27 24 18 15 19 20 22 23 24 26 28 29 28 30 30
2 3 3 4 2 0 0 0 0 1 0 1 2 1 3 2 3 3 4 7 8 7 9 8 9 9 8 11 13 15 17 23 25 25 26 25 23 22 21 19 17 13 15 20 20 23 31 27 25 26 29 29 30 30
2 2 2 3 1 1 1 2 0 2 1 1 2 2 2 2 6 3 3 9 9 6 7 8 7 7 8 9 12 16 16 17 17 19 19 17 19 19 16 12 11 13 19 23 27 29 29 29 29 31 32 32 33 34

GFSWCAN_925_spd_045.txt.gz
Wind_Speed
9 7 8 12 13 14 14 14 14 14 14 14 14 14 13 13 13 14 10 5 5 2 5 3 3 2 0 2 3 4 2 1 1 2 1 2 2 3 1 6 7 7 6 3 4 3 7 4 3 1 2 2 2 3
9 9 10 11 13 14 14 14 14 14 13 14 14 14 12 12 11 10 4 7 11 3 4 5 8 6 2 2 4 2 2 2 3 2 1 2 2 2 2 2 3 4 6 5 7 6 6 3 2 1 1 2 0 4
10 8 11 11 13 14 15 15 15 15 15 15 15 14 13 11 10 9 10 9 4 3 3 2 3 4 3 1 1 4 1 4 2 3 1 2 4 1 2 4 4 3 6 3 3 5 9 4 2 1 1 1 1 4
10 10 12 12 13 14 16 15 15 15 16 16 16 15 14 13 10 10 12 7 7 3 2 0 2 2 2 2 3 2 6 4 3 1 2 2 2 2 2 3 1 4 4 4 4 6 3 1 2 4 2 3 3 3
11 9 12 13 13 14 16 15 16 17 17 18 17 16 17 12 11 11 15 14 11 2 2 2 6 1 1 1 3 5 8 3 2 2 3 3 2 2 3 1 3 4 6 4 4 4 3 2 2 5 4 3 4 7
8 8 13 13 13 14 17 16 16 17 18 19 19 19 15 10 7 5 2 4 12 8 2 1 1 2 1 2 3 3 3 2 2 2 2 2 4 1 2 2 6 4 2 2 4 3 2 5 4 3 4 4 5 6
9 12 13 12 13 14 17 15 16 18 19 19 20 12 5 7 11 4 2 2 8 6 2 2 2 1 4 2 1 1 3 1 2 1 2 2 2 1 2 3 6 8 7 4 5 6 2 5 4 5 7 6 11 10
10 12 11 11 11 14 14 15 16 18 18 19 9 10 4 9 5 6 6 6 5 3 2 1 2 1 4 1 2 2 2 2 2 2 2 3 2 3 3 5 5 7 8 5 1 1 3 7 7 6 6 8 9 7
10 12 11 10 11 14 13 15 17 19 19 12 4 5 7 1 3 2 5 8 5 3 1 1 1 2 1 2 1 1 2 2 2 2 2 1 2 3 3 7 8 6 4 0 5 6 6 5 7 7 7 7 8 7
9 10 9 10 10 13 12 14 17 19 10 2 3 3 2 4 2 3 2 2 2 2 2 2 1 1 2 0 2 1 1 0 2 1 2 2 2 3 10 7 6 8 7 4 3 1 1 2 7 7 7 6 8 9
8 8 8 10 10 11 10 13 15 16 2 3 2 2 2 3 4 2 2 3 2 2 2 2 2 1 0 1 1 0 1 1 1 0 1 1 1 6 12 11 9 8 7 7 7 4 7 6 10 9 7 8 10 14
7 7 8 9 9 9 9 11 13 7 3 1 4 6 3 1 1 1 2 0 2 3 1 1 1 0 2 0 1 1 1 1 2 1 1 1 2 8 10 12 12 10 8 8 2 5 4 6 9 9 9 9 14 17
8 5 8 8 8 10 8 9 10 3 2 2 1 2 0 0 2 3 5 3 2 2 1 1 0 1 1 1 1 1 1 2 1 1 1 0 4 8 11 11 13 11 10 7 7 6 3 6 11 13 9 16 20 20
10 6 8 8 8 9 8 9 6 2 2 1 2 2 3 3 3 2 2 1 1 2 1 1 1 1 1 0 1 1 1 2 1 1 2 2 8 9 10 9 10 12 11 8 7 6 2 6 7 12 16 20 20 19
12 8 8 11 8 5 5 6 1 1 1 2 2 4 4 2 2 2 1 2 1 1 1 1 1 1 1 1 1 0 1 3 3 2 1 3 6 7 9 10 9 10 9 7 5 4 3 5 8 9 16 19 19 21
7 5 5 2 2 4 4 1 2 1 2 1 1 2 0 0 1 1 1 2 1 1 1 1 0 0 2 2 1 4 2 4 2 1 3 3 5 6 6 8 8 9 8 7 7 4 2 6 8 11 17 18 19 23
7 3 4 3 4 5 2 1 2 2 2 2 2 1 0 1 0 1 2 2 1 1 1 1 3 3 1 1 2 2 2 2 1 2 2 3 5 6 5 6 7 10 10 10 10 6 1 6 13 15 7 13 20 20
5 6 4 4 5 1 1 2 2 1 3 2 1 2 1 1 1 1 2 2 1 0 1 1 0 2 3 3 3 2 2 1 2 2 2 4 6 6 7 6 12 13 10 12 10 7 3 12 8 5 15 19 21 22
10 6 4 3 3 0 2 1 2 2 3 1 1 2 1 1 1 2 2 2 2 1 1 1 3 3 3 2 2 2 1 2 2 2 4 8 4 7 11 13 13 13 13 13 10 7 3 6 11 16 19 19 14 16
9 4 7 3 2 1 2 1 1 1 2 1 1 1 1 1 2 2 1 2 3 1 2 3 4 2 2 3 2 3 2 2 1 3 3 2 8 14 11 11 9 15 14 12 10 6 4 4 9 16 19 18 17 16
11 7 9 5 1 2 2 2 1 1 0 1 1 2 0 1 1 3 3 2 2 3 3 4 3 3 2 4 4 3 3 3 3 3 2 3 5 9 10 13 14 12 7 9 5 8 9 10 13 16 17 15 16 17
5 12 3 2 2 2 2 2 1 0 1 1 1 1 1 2 2 3 1 3 3 4 3 3 2 3 2 1 2 4 5 7 7 8 9 10 4 2 4 10 12 7 11 11 14 11 13 16 15 17 19 19 20 22
12 6 2 2 1 1 2 1 2 1 3 2 1 1 2 2 1 0 2 3 3 3 4 3 3 3 3 2 3 4 5 8 5 7 8 9 14 15 15 15 14 12 9 14 14 17 15 16 16 16 19 19 20 19
8 3 4 3 2 2 2 1 1 1 1 2 2 2 2 2 1 2 3 3 3 1 2 3 4 2 2 2 1 3 7 8 10 11 11 12 6 11 12 15 15 17 19 21 19 18 18 16 16 16 18 19 20 21
4 4 4 3 2 3 1 1 2 3 2 3 2 2 2 1 1 3 3 3 2 2 2 3 1 2 3 2 2 6 6 8 9 5 10 10 16 17 14 17 19 18 14 18 14 16 15 14 15 17 18 19 21 21
5 6 8 7 3 5 5 4 5 5 3 3 4 1 1 2 1 6 3 3 3 4 4 6 5 2 3 7 3 1 8 8 10 8 14 15 16 12 6 7 8 15 13 13 16 15 15 16 16 17 19 21 24 23
6 6 3 1 3 3 1 1 1 2 4 5 3 4 3 3 5 4 2 3 3 7 14 21 19 9 6 8 9 10 11 14 14 17 22 24 25 25 23 16 11 19 18 19 18 18 18 17 18 20 20 21 25 27
4 5 7 5 2 1 4 3 4 5 4 3 5 5 5 7 4 3 3 2 5 5 7 10 12 14 13 12 12 14 17 14 16 20 24 27 25 23 22 24 25 24 23 22 23 21 21 20 20 21 23 23 23 27
3 3 4 4 3 4 5 6 5 3 1 4 4 4 4 3 2 2 3 4 7 8 8 8 9 9 11 12 13 14 15 15 8 8 12 9 6 10 14 16 16 14 14 19 20 20 24 25 24 25 25 25 24 27
4 3 4 5 6 7 4 2 2 0 0 0 1 2 2 3 4 6 7 8 10 13 12 8 8 8 8 8 10 14 14 15 18 15 8 9 9 21 22 24 25 26 24 21 21 20 17 20 21 20 21 23 25 25
5 2 3 3 4 1 1 1 1 1 1 1 1 2 3 3 7 9 16 18 15 11 9 10 12 13 13 12 10 5 7 10 8 15 21 28 31 32 30 29 28 25 23 22 20 18 17 16 19 21 23 23 25 26
2 3 4 5 2 1 1 1 1 1 1 1 2 1 3 3 3 3 4 9 10 8 13 12 11 9 5 6 9 11 15 20 23 24 24 27 30 32 28 23 20 18 17 17 17 17 18 24 23 23 23 25 26 26
2 2 2 3 2 1 1 2 1 2 1 1 2 2 2 3 6 3 3 9 9 6 10 8 6 7 7 8 9 11 14 18 19 19 21 21 22 21 19 20 18 14 13 15 16 20 26 26 24 24 25 27 28 29

GFSWCAN_925_spd_048.txt.gz
Wind_Speed
11 10 9 9 9 8 10 12 10 10 13 12 13 13 14 13 12 12 10 1 2 2 5 3 4 1 1 2 3 3 2 0 1 1 2 1 2 3 3 5 6 7 6 3 3 3 7 3 3 2 3 2 2 3
11 11 10 8 8 9 10 12 11 11 12 11 13 13 13 12 11 8 4 7 6 3 4 8 13 11 3 2 4 2 1 2 3 1 1 1 2 2 2 3 2 4 6 4 6 5 5 3 3 0 1 3 3 3
13 11 10 8 8 9 11 12 13 12 13 13 13 13 14 12 11 8 10 8 3 2 4 3 4 4 4 1 2 3 2 2 1 2 2 2 3 1 2 4 3 4 6 3 1 4 11 9 1 0 1 2 3 3
14 14 10 7 7 10 13 13 15 13 13 15 14 15 14 14 11 10 10 6 4 3 3 2 2 2 1 2 2 2 4 4 3 2 1 2 2 2 2 2 1 4 4 5 5 7 3 3 4 3 2 2 2 4
16 12 9 8 12 12 13 14 14 14 14 16 16 17 16 17 14 10 12 15 14 4 2 3 6 1 0 1 3 5 7 3 2 2 2 3 2 2 2 2 4 4 6 4 4 3 4 5 4 5 5 4 4 6
16 12 8 9 12 12 14 14 13 14 14 16 17 17 17 11 7 5 2 8 17 13 3 1 1 2 2 3 3 2 3 2 2 2 2 2 3 2 2 3 4 2 3 3 3 4 3 1 2 3 3 3 3 6
14 11 10 10 11 12 13 14 13 14 15 16 18 13 8 7 13 4 1 3 11 14 2 2 3 0 3 2 1 1 1 1 2 1 2 2 2 3 2 2 5 9 9 8 7 5 2 4 4 5 4 5 8 7
14 11 11 9 11 11 12 12 13 14 16 17 9 5 5 9 6 7 10 8 7 3 2 1 2 1 5 2 1 2 2 2 3 1 2 2 2 2 3 2 8 9 12 5 8 4 1 4 6 5 4 5 7 6
13 11 7 9 9 10 12 12 13 15 17 13 4 8 9 2 3 2 2 8 7 3 1 1 1 1 2 2 2 2 2 2 2 2 2 1 2 2 4 9 9 9 7 9 7 2 4 3 5 6 5 6 7 6
14 9 5 6 7 9 10 10 13 15 12 2 6 2 2 3 3 5 3 2 2 2 2 2 1 2 2 0 1 1 1 1 2 1 2 1 0 5 6 7 6 9 10 8 6 4 2 2 6 7 7 5 6 8
12 7 4 5 6 9 9 10 12 15 2 2 1 1 1 3 2 2 2 3 3 2 2 2 3 2 1 1 1 1 1 0 1 1 1 1 2 3 7 8 7 9 9 10 8 9 7 6 6 8 8 8 9 12
11 9 4 5 6 9 9 8 9 7 1 1 2 2 1 2 2 2 2 0 3 4 2 3 2 2 1 1 1 1 1 0 3 3 1 1 1 4 7 9 11 10 11 10 7 6 7 6 6 8 8 7 12 14
14 11 8 8 7 7 9 7 7 4 2 1 2 1 1 1 3 4 5 3 2 2 1 1 1 1 1 1 1 1 2 3 2 1 2 1 2 6 7 8 10 10 11 10 8 10 4 3 8 9 7 11 17 16
17 13 7 5 5 7 9 7 5 2 3 1 1 4 3 3 3 2 2 1 2 0 1 1 1 1 1 1 1 1 1 2 1 2 3 1 4 7 8 8 8 11 12 11 9 8 5 3 4 9 13 18 16 15
16 13 7 6 3 4 5 5 2 2 2 3 2 5 4 2 1 1 1 1 2 2 1 1 2 2 2 1 1 1 1 3 4 2 2 2 4 5 7 8 8 9 9 9 10 8 6 2 5 7 12 16 17 19
8 10 8 4 4 2 4 1 2 1 1 1 1 1 2 2 2 1 2 1 1 1 1 1 2 1 3 2 2 4 2 4 2 2 2 1 4 5 5 7 8 10 10 10 12 11 10 4 2 5 10 14 18 20
12 3 6 8 2 3 4 1 2 2 3 1 3 1 1 1 0 1 2 2 1 1 1 1 3 3 1 2 3 3 3 2 3 2 1 2 3 5 5 5 9 12 12 12 13 14 14 9 2 6 5 10 15 19
4 6 5 7 2 1 1 1 1 2 2 2 1 3 1 1 2 2 2 1 2 1 0 1 1 2 3 3 3 2 1 1 0 1 1 2 3 3 6 5 9 11 12 14 16 15 13 7 4 5 7 11 14 17
11 8 5 6 2 1 2 1 1 2 3 1 0 0 2 1 2 2 2 2 3 1 1 1 3 3 3 2 3 3 2 2 1 1 2 4 2 4 9 12 11 11 14 16 14 12 13 10 8 9 9 13 10 15
8 6 8 5 2 2 1 1 0 2 2 1 1 1 1 1 1 2 2 2 1 1 1 3 4 3 3 3 2 2 3 3 2 1 3 3 2 9 11 12 9 15 14 14 16 15 14 12 9 8 11 16 14 14
12 9 11 6 1 2 2 1 2 2 1 1 1 1 0 1 0 1 1 0 1 3 3 4 3 2 2 4 5 5 5 6 4 4 3 2 4 8 11 11 13 13 10 10 8 11 13 12 17 13 12 15 16 16
5 10 3 2 2 3 3 3 1 1 1 1 1 1 1 1 2 2 2 2 3 4 4 3 3 3 2 3 4 7 6 7 5 5 7 8 3 2 3 11 12 8 11 12 12 12 14 18 17 16 15 17 15 18
12 6 2 1 3 3 3 2 1 1 2 2 1 0 2 2 2 1 2 3 3 3 4 3 4 3 4 5 5 5 7 8 5 6 5 7 10 13 15 15 12 13 9 14 15 19 18 19 18 15 16 13 17 17
8 3 3 3 3 2 1 2 0 1 2 1 2 2 2 2 1 2 3 3 3 0 2 5 5 3 2 3 1 3 9 8 7 6 7 9 6 10 13 16 17 16 18 20 19 16 16 15 17 15 15 16 16 16
4 4 5 2 2 3 1 1 1 1 2 3 3 2 1 1 1 3 4 3 2 2 3 3 2 2 3 2 1 6 8 10 9 4 10 10 12 16 15 16 18 20 16 17 17 16 15 15 16 16 15 16 16 16
5 5 8 7 1 4 5 4 4 5 3 2 4 1 1 2 1 6 3 2 3 4 5 7 7 3 2 6 3 2 7 9 10 7 10 11 11 11 5 5 8 13 10 11 15 16 16 16 17 17 16 18 18 17
6 7 3 1 4 3 1 1 1 2 4 5 3 3 2 3 6 4 2 2 2 5 12 19 19 9 5 6 11 10 7 8 11 14 16 17 19 20 20 15 13 18 19 18 18 21 20 18 17 17 18 18 21 21
4 5 8 5 2 1 4 3 5 6 4 3 4 5 5 7 4 3 3 1 4 2 5 11 17 17 12 9 8 8 8 11 13 16 21 22 18 14 14 20 23 23 22 22 22 22 22 22 22 19 19 19 18 22
3 4 5 3 2 3 6 7 5 4 3 4 5 4 4 3 2 2 2 3 4 6 5 6 8 9 9 9 10 10 10 10 4 4 7 7 3 10 12 13 17 18 18 18 18 18 20 23 25 25 22 22 22 22
3 3 4 4 7 7 4 3 2 1 0 1 0 2 3 3 5 8 9 8 9 11 12 11 10 10 7 5 5 9 8 10 12 12 4 8 7 16 24 28 27 26 24 22 23 25 23 21 21 20 22 17 18 20
6 3 3 3 4 0 1 1 2 2 2 1 1 2 3 3 7 12 18 21 17 12 9 8 10 11 10 10 9 3 5 4 3 9 16 23 28 30 30 29 29 29 26 22 21 20 21 19 18 16 20 21 21 20
3 4 4 4 2 1 1 1 1 0 2 2 2 1 3 2 3 3 4 7 9 9 15 14 12 10 8 7 8 10 11 14 15 18 20 21 25 29 30 28 31 28 23 21 20 19 18 18 15 19 20 22 22 22
3 2 2 3 2 2 1 2 2 3 1 2 2 2 2 2 6 3 3 9 8 5 8 7 5 5 6 7 9 10 13 15 16 19 20 21 22 25 24 23 18 18 18 18 17 16 17 16 18 19 20 21 23 24

GFSWCAN_925_spd_051.txt.gz
Wind_Speed
17 16 13 12 12 11 11 11 11 10 10 11 10 11 11 11 9 9 9 4 3 2 5 3 3 3 1 2 3 4 2 1 1 1 2 2 2 2 2 4 5 6 5 3 4 3 6 4 2 2 3 3 2 3
19 16 14 13 11 11 10 11 12 12 10 11 11 12 12 11 9 6 4 4 10 4 4 6 15 16 6 3 2 1 2 2 3 2 1 1 1 1 2 3 1 4 6 4 7 5 5 2 2 2 3 4 2 3
20 17 15 12 12 11 11 11 11 13 12 12 13 13 14 14 9 9 9 9 5 3 4 3 5 4 7 7 3 4 2 3 2 1 2 1 3 3 2 4 4 4 6 3 1 4 8 7 4 4 4 3 2 3
20 19 15 14 11 11 12 11 11 15 10 11 14 14 16 16 13 9 12 9 4 4 3 3 4 3 4 4 4 2 5 4 4 2 2 2 2 4 2 3 2 3 6 5 5 8 7 3 4 3 3 2 2 2
21 19 17 13 13 11 14 13 12 16 12 13 14 15 16 15 15 14 13 14 13 3 3 3 5 3 3 3 4 4 7 3 2 2 2 3 2 1 1 1 3 3 5 4 4 2 2 6 1 3 4 3 4 5
21 19 16 13 10 12 14 12 12 13 13 14 15 15 17 16 8 5 2 12 19 10 3 2 2 3 3 5 5 3 4 2 2 2 2 2 3 3 2 2 1 2 3 2 4 4 4 5 2 3 3 4 3 5
21 19 16 13 11 14 11 11 13 12 13 14 15 15 14 10 15 5 2 2 15 16 3 2 1 1 3 3 1 1 2 2 2 2 2 2 2 3 2 3 3 4 5 7 8 4 4 3 3 5 3 3 4 4
22 19 16 13 14 12 11 11 12 11 13 14 12 6 1 7 7 9 17 13 14 6 3 1 1 1 5 2 2 2 2 1 2 1 1 2 1 3 3 4 8 9 12 4 10 6 5 3 3 4 3 4 4 4
21 19 15 14 10 9 8 10 10 11 13 12 2 6 8 2 3 4 3 9 14 5 2 1 1 2 3 2 2 2 2 3 2 2 2 1 3 4 1 5 7 7 7 11 12 10 6 4 4 4 4 5 5 5
19 18 13 10 8 6 8 8 9 10 12 2 6 3 2 3 3 6 4 3 3 2 2 2 1 2 2 2 1 1 2 1 2 2 0 2 1 4 1 5 6 7 9 8 7 6 3 3 5 5 7 5 5 6
19 16 13 11 8 6 8 7 8 10 3 3 2 1 1 2 2 1 1 2 1 2 3 3 4 2 1 2 1 0 0 0 1 1 2 2 2 1 4 6 6 6 7 7 7 10 12 11 7 5 6 7 8 10
22 17 13 12 10 6 7 6 7 5 1 2 2 4 1 1 1 2 3 1 3 4 2 1 2 1 1 1 2 1 1 0 3 2 1 2 2 2 5 6 7 7 8 9 11 9 8 7 9 6 6 7 11 13
21 16 13 11 13 6 5 6 5 2 3 2 0 1 2 2 3 4 6 3 2 1 2 2 1 1 1 1 2 1 1 2 2 2 3 1 2 3 5 5 7 8 11 10 11 14 13 6 3 3 5 11 15 13
19 18 14 10 8 8 6 5 3 3 2 1 2 4 3 3 4 3 3 2 2 2 1 1 1 1 0 2 1 1 1 1 2 2 3 1 0 3 4 5 6 8 9 10 10 12 10 7 3 1 6 12 12 11
18 16 11 9 6 4 3 3 2 4 3 2 2 4 4 1 1 1 1 2 0 1 1 1 1 1 1 1 1 0 1 3 4 3 2 2 1 2 4 6 8 8 9 8 11 8 10 10 6 2 4 9 12 13
17 11 9 7 8 5 3 2 3 3 2 1 2 1 2 1 1 0 1 1 1 2 1 2 1 2 3 2 3 5 2 5 2 2 2 1 1 2 3 4 5 7 9 10 12 12 12 11 8 4 3 6 10 13
13 4 9 11 8 3 2 3 2 2 3 1 3 2 1 1 2 1 1 2 1 1 2 2 4 4 2 2 3 3 3 2 3 2 1 3 1 3 3 4 7 9 9 11 13 14 14 16 9 3 1 4 9 13
4 8 10 12 8 5 2 1 2 2 2 2 1 3 1 0 0 1 1 1 1 1 1 2 2 3 4 3 3 3 2 2 2 3 2 3 2 1 2 4 8 9 10 13 15 16 15 15 10 6 7 5 7 11
9 12 11 11 7 4 1 1 1 2 3 1 1 0 1 1 1 2 2 2 2 1 1 1 3 4 4 3 3 3 2 2 3 2 1 0 1 2 4 7 8 9 12 15 13 11 15 15 12 13 11 6 7 9
6 9 11 10 5 3 1 2 0 0 1 1 1 0 1 1 1 1 1 0 1 0 2 4 4 3 3 3 3 3 2 3 3 2 1 0 3 1 5 9 9 13 15 14 13 12 13 14 16 16 12 9 9 11
11 12 11 7 3 2 2 1 0 1 1 0 1 0 0 1 0 1 1 0 1 3 3 4 3 2 1 1 5 5 5 5 4 3 3 1 2 4 8 8 10 12 7 10 8 12 12 10 17 19 16 14 12 13
5 11 3 3 2 2 3 2 1 0 1 0 1 1 1 1 1 2 1 2 3 4 4 3 3 3 3 4 4 7 6 9 6 4 4 4 2 1 2 8 11 7 13 11 12 12 14 17 21 18 17 18 13 13
11 6 2 2 3 3 2 2 1 2 2 1 1 1 2 2 2 1 2 3 4 4 4 3 3 2 4 5 6 7 9 11 5 7 7 7 8 9 10 10 9 10 9 14 14 16 17 16 15 16 17 18 16 14
7 3 3 1 2 2 1 2 1 1 2 1 1 3 2 2 1 1 4 3 3 1 2 5 4 3 3 3 2 3 12 12 9 8 10 8 5 10 9 12 13 14 14 18 19 17 16 16 16 15 15 16 14 13
4 3 4 2 1 3 1 2 3 2 2 2 1 3 2 1 1 3 4 3 2 2 2 3 2 2 3 2 0 6 10 15 10 5 10 13 12 12 14 16 18 17 12 15 16 14 13 12 11 13 15 16 15 15
3 4 8 6 2 4 4 3 3 5 2 1 4 2 1 2 0 6 3 3 3 3 4 6 6 3 3 5 3 1 11 15 13 6 8 12 13 12 5 4 6 9 7 8 11 14 15 14 17 18 17 17 17 16
5 6 3 1 3 3 1 1 1 3 4 5 3 3 2 2 5 4 3 2 2 3 7 16 17 9 6 9 17 12 9 11 12 9 8 11 13 15 17 14 10 14 10 12 16 18 20 18 16 17 18 18 18 19
4 5 9 5 2 1 5 3 5 6 4 3 4 4 5 7 4 3 3 2 3 3 3 11 17 18 14 9 7 9 12 11 12 15 17 20 19 17 14 16 16 14 15 16 17 18 19 20 21 19 19 19 20 19
3 3 4 4 2 3 6 7 6 4 3 4 5 4 4 3 2 2 2 1 2 2 3 5 8 11 11 11 10 10 10 9 5 3 5 6 2 8 4 6 13 18 20 22 21 19 20 21 23 22 23 24 25 22
4 3 4 4 7 7 5 5 3 1 1 2 1 2 2 3 6 9 10 9 9 12 15 12 11 14 11 10 6 9 11 13 15 13 4 6 5 8 18 23 23 22 21 20 21 22 20 20 21 22 24 22 20 18
5 3 3 3 5 2 2 1 2 2 2 1 1 2 3 3 8 13 21 25 23 16 12 8 9 12 12 11 9 3 4 8 11 12 13 16 18 21 21 22 23 25 23 22 23 23 21 20 19 19 18 19 19 19
2 4 5 4 3 3 1 1 1 1 2 2 2 1 3 3 4 3 4 7 10 10 17 15 14 14 14 15 12 9 8 9 12 13 14 16 19 22 23 25 26 29 24 22 22 22 21 20 19 18 17 18 19 20
3 2 2 3 2 1 2 3 2 3 1 2 3 3 3 3 6 3 4 9 8 4 7 8 7 8 6 4 4 6 9 11 13 14 15 19 21 22 22 23 24 25 24 22 20 19 19 18 17 18 17 16 17 19

GFSWCAN_925_spd_054.txt.gz
Wind_Speed
22 20 17 16 13 12 11 12 12 11 12 9 10 9 9 8 8 8 8 3 4 2 5 3 3 3 2 1 4 3 3 2 1 2 2 2 2 2 2 4 5 7 5 3 3 3 7 4 2 2 3 1 2 3
21 21 19 17 14 13 11 12 12 12 13 11 10 10 10 7 8 6 4 5 9 3 4 8 18 19 9 1 1 2 2 2 3 2 1 1 1 1 2 2 1 4 5 4 7 5 4 3 3 2 3 4 2 2
22 20 20 18 16 12 12 12 11 13 13 15 11 11 13 10 11 9 9 8 4 3 6 4 8 18 16 21 14 3 2 3 1 2 2 1 2 3 3 4 2 3 4 2 1 3 6 8 6 6 5 5 3 4
24 22 22 19 16 13 12 12 13 13 14 13 11 13 13 13 15 13 13 10 7 4 3 4 8 6 8 11 10 6 4 5 4 1 2 2 2 3 3 2 3 4 5 5 4 7 7 5 4 4 3 3 2 2
24 23 23 20 16 14 14 13 13 14 13 12 12 14 14 15 14 11 12 14 13 4 3 4 14 5 8 9 7 5 6 4 2 2 2 3 2 1 1 1 3 4 5 4 3 2 2 5 4 2 4 4 5 5
25 22 22 20 17 14 13 13 12 13 14 11 13 14 16 16 10 4 2 13 20 17 2 3 2 4 4 6 5 4 4 2 2 2 2 1 1 2 3 3 1 2 2 0 3 6 7 10 7 3 3 4 3 5
28 24 21 20 18 13 13 11 11 12 11 13 13 15 15 12 13 5 2 1 21 15 2 3 2 3 6 4 2 1 2 2 2 2 2 3 3 4 2 3 3 3 3 5 0 6 3 2 4 6 4 1 2 2
28 25 23 20 16 13 12 11 12 11 10 12 14 9 4 3 8 11 13 7 18 4 3 2 1 2 4 2 2 2 2 1 2 2 1 2 1 3 4 3 1 3 7 4 4 4 6 8 6 3 1 1 2 3
27 25 23 20 15 13 11 9 9 9 10 12 2 4 3 3 3 4 7 11 16 7 3 1 2 2 2 2 2 1 1 2 2 3 2 1 3 5 2 0 3 4 3 9 11 9 9 6 6 4 3 3 4 4
26 24 21 19 13 10 8 7 7 9 12 3 5 2 2 4 5 6 6 4 4 3 3 2 1 1 2 1 3 2 2 1 2 2 2 3 3 3 3 2 4 5 6 5 7 7 6 5 5 4 6 6 6 5
25 26 23 16 14 11 9 5 5 8 2 3 4 2 3 3 4 2 2 3 2 2 3 2 3 2 1 2 1 0 1 1 2 1 2 2 2 3 3 4 4 5 6 5 6 9 9 10 10 10 7 6 7 8
25 25 20 18 15 12 5 3 4 4 3 3 2 2 2 2 0 2 3 1 3 3 2 2 3 1 1 1 2 1 1 1 3 2 2 2 1 2 3 4 6 6 6 7 8 7 9 8 9 8 7 5 10 12
26 24 21 17 14 13 5 4 3 2 3 2 2 1 2 2 3 4 5 2 2 2 0 1 1 2 1 1 2 1 2 2 2 2 3 1 2 2 3 4 5 6 7 6 8 11 12 12 10 7 3 3 10 11
28 23 19 15 12 17 7 5 2 5 2 2 3 3 3 3 3 2 3 3 2 2 2 1 1 2 1 2 1 1 1 1 2 3 4 2 3 2 3 3 3 6 7 8 9 11 12 12 11 9 6 3 6 7
25 20 17 11 10 11 11 5 3 5 1 2 2 4 4 1 1 1 0 1 1 1 2 1 2 1 1 2 1 0 1 3 4 3 2 2 4 2 1 3 4 5 6 7 10 8 10 12 10 8 6 1 3 5
23 15 12 15 12 12 9 7 5 3 2 1 2 1 3 1 1 0 0 1 0 1 2 1 2 1 3 3 3 5 2 5 3 2 2 3 4 2 1 3 4 4 5 7 9 10 11 12 10 10 6 3 4 6
21 5 12 16 11 11 9 5 3 2 2 1 3 2 1 0 1 1 2 1 1 1 2 1 4 5 2 2 3 4 4 3 3 2 2 4 4 3 2 2 4 6 6 8 9 10 11 15 14 12 6 11 7 7
5 12 19 17 17 10 4 2 2 2 2 2 0 3 2 1 0 1 1 1 1 1 1 2 2 3 3 3 3 3 2 0 1 4 3 3 3 4 3 1 4 6 9 11 12 12 13 13 9 8 13 13 11 8
17 19 17 15 9 5 2 1 1 1 2 1 1 1 0 0 1 0 2 2 2 1 1 1 3 4 4 3 3 2 2 3 4 4 3 5 5 6 3 2 3 5 10 11 11 10 9 10 9 13 13 11 8 9
18 16 15 11 7 3 2 2 1 1 1 1 1 1 1 0 1 1 1 1 1 1 2 4 4 3 4 3 3 3 3 4 4 3 1 2 6 6 3 1 1 5 6 5 9 9 11 10 10 14 15 13 11 11
16 19 15 7 3 4 2 2 1 1 1 0 1 0 0 1 1 0 1 0 0 3 3 4 4 3 1 2 2 3 4 5 4 3 3 2 5 6 3 2 3 6 3 6 5 9 9 9 15 17 16 13 14 14
7 9 4 2 3 2 3 3 1 0 1 0 0 1 1 1 1 2 0 1 3 4 4 3 3 3 2 3 3 6 6 9 7 6 6 6 2 0 2 3 2 3 8 10 11 12 13 14 14 12 10 12 13 17
11 5 3 2 3 3 1 1 2 2 1 1 1 1 1 1 2 1 2 3 4 4 4 3 3 2 3 4 6 6 8 12 4 6 6 6 6 7 8 9 8 9 8 15 10 11 14 12 11 11 14 14 14 18
6 3 3 2 2 2 1 3 1 2 2 1 0 2 2 2 1 1 4 3 3 1 1 3 3 2 2 2 2 2 10 12 8 6 8 8 3 8 9 10 8 10 12 17 16 14 13 12 9 10 9 10 12 13
4 3 4 1 1 3 2 2 3 2 1 2 1 3 2 2 0 3 4 3 2 2 2 2 2 1 3 2 0 6 11 15 10 4 8 13 11 9 11 13 12 11 11 15 16 13 11 10 10 10 13 14 16 17
3 3 6 5 2 4 5 3 3 5 3 2 4 1 1 2 1 5 3 3 3 3 3 4 5 3 2 4 3 2 12 17 13 5 6 11 14 11 3 3 4 9 6 7 10 12 15 16 16 16 18 18 14 15
4 6 3 1 3 4 2 1 1 3 4 5 3 3 2 1 4 4 3 2 2 3 4 9 15 8 4 7 13 5 8 14 13 7 5 6 9 12 14 13 9 13 8 9 11 15 19 21 20 18 19 19 18 17
4 4 7 5 1 0 4 2 5 6 4 3 4 4 7 8 5 3 4 4 5 6 6 6 12 15 12 10 9 12 14 11 13 12 14 17 19 19 19 18 19 18 17 16 16 17 19 21 22 22 20 21 21 18
4 2 4 3 2 2 6 7 5 4 3 5 5 4 4 3 3 3 4 5 5 4 5 6 10 12 12 10 10 11 10 11 9 3 7 7 2 8 7 7 7 11 17 21 22 21 23 22 23 25 24 24 24 22
3 3 4 4 7 7 5 6 3 2 1 2 1 3 3 3 7 10 12 11 10 12 16 13 12 16 13 14 10 13 16 17 18 16 5 6 5 3 6 13 17 18 18 18 21 21 18 18 19 18 19 21 21 22
5 3 3 2 5 3 3 1 2 2 2 1 1 3 3 4 8 14 22 27 26 21 12 10 12 16 16 14 12 4 5 13 17 18 19 20 19 18 17 17 19 21 21 22 22 21 20 19 18 18 18 19 20 19
2 6 5 4 4 3 3 2 1 0 2 2 2 1 3 3 4 3 5 9 9 9 17 17 15 16 17 16 11 10 11 8 7 8 11 15 18 18 19 22 22 22 23 22 22 22 21 20 19 19 19 20 19 18
2 3 3 2 2 2 2 3 2 3 2 2 3 3 3 3 6 4 4 9 7 4 8 9 10 8 7 6 7 8 7 7 9 11 13 14 17 20 21 21 21 21 21 22 23 24 20 19 19 19 18 18 19 17

GFSWCAN_925_spd_057.txt.gz
Wind_Speed
25 24 17 17 16 14 11 11 12 11 11 12 11 10 9 8 6 4 4 0 2 2 7 4 2 3 3 1 3 3 3 1 1 3 3 2 2 3 2 3 5 7 6 4 3 3 6 4 1 3 1 1 2 3
28 26 21 18 17 15 13 12 12 12 11 12 13 12 10 9 7 7 4 4 4 3 4 9 16 18 10 7 1 1 3 4 4 3 1 2 2 2 2 2 1 4 5 4 7 5 4 2 3 2 2 5 3 3
31 25 20 19 18 16 14 13 12 12 12 13 14 10 10 11 9 8 12 6 1 3 5 5 11 28 25 27 24 2 2 3 2 2 3 2 2 3 3 4 3 3 4 2 1 2 5 8 4 4 4 5 2 3
30 26 24 21 20 17 17 13 12 13 13 14 14 13 10 11 10 11 13 13 6 1 4 5 8 12 14 16 21 22 4 1 5 2 2 2 2 3 2 2 2 4 5 4 4 6 6 6 3 3 2 2 2 2
33 29 24 22 21 19 17 14 13 13 12 13 14 11 13 12 13 13 12 15 16 6 3 6 18 17 12 17 16 16 9 3 2 2 2 3 2 3 1 1 3 4 6 4 4 3 1 5 2 4 4 4 5 4
36 28 25 24 22 21 18 14 13 13 12 13 12 14 14 14 13 5 3 11 21 17 1 3 6 4 9 15 13 8 5 2 2 2 2 2 1 3 2 3 5 4 1 2 3 2 5 8 7 4 5 4 3 4
38 31 29 25 24 22 18 13 13 11 11 12 11 14 16 15 10 5 3 3 16 17 2 3 3 3 10 6 3 2 2 1 2 2 3 3 3 4 2 5 4 3 1 2 1 5 2 2 1 8 5 3 2 1
40 35 29 26 24 21 17 13 12 11 11 10 11 13 11 5 8 12 10 7 13 3 3 3 3 2 3 2 2 2 2 2 2 1 2 2 1 3 5 5 3 2 4 3 2 3 5 9 6 6 2 1 2 3
41 35 32 28 25 21 16 14 10 8 9 9 10 3 3 4 3 4 9 16 13 6 3 3 1 3 2 2 2 2 1 2 1 2 2 2 3 6 5 4 3 2 1 4 6 6 7 3 6 5 4 4 4 5
45 39 35 29 27 21 16 12 9 7 8 8 4 2 3 5 9 13 8 4 4 4 3 3 1 2 0 2 2 3 2 2 2 2 2 3 3 2 3 3 3 1 1 2 4 5 4 5 5 7 7 5 6 5
43 37 32 31 27 18 15 12 9 7 2 5 3 2 2 3 5 2 3 4 4 3 3 2 0 1 0 2 2 1 2 2 2 2 2 2 2 2 3 2 2 2 3 5 5 6 7 8 8 9 9 8 9 9
36 34 30 28 24 19 15 12 11 6 5 5 3 4 3 2 3 3 3 2 3 3 2 2 3 2 1 1 2 0 2 1 3 3 2 3 1 2 1 2 4 4 4 4 6 6 7 8 9 7 7 7 10 12
39 33 34 28 23 19 15 11 8 4 6 2 2 2 2 2 4 4 5 2 2 2 1 1 1 1 1 2 2 1 1 2 2 2 3 3 3 2 2 2 3 5 6 4 5 7 9 10 11 7 6 6 2 5
35 35 28 26 22 17 18 11 10 9 4 2 3 4 4 4 3 2 1 1 1 1 1 2 1 1 1 2 1 2 1 1 2 3 4 3 4 5 3 2 2 4 5 5 6 8 8 9 9 9 8 7 3 4
32 31 27 22 19 16 14 13 10 9 4 2 2 4 4 1 1 2 1 1 1 1 0 2 1 0 1 2 2 1 2 3 4 4 2 2 6 5 4 2 2 3 3 4 6 7 9 11 9 8 9 6 4 1
33 26 19 19 15 19 17 12 7 4 2 1 3 2 2 1 2 2 2 1 1 1 1 2 2 2 2 3 3 6 3 5 3 3 2 5 6 5 4 3 1 1 2 4 6 7 9 10 10 9 8 10 7 3
19 6 20 25 20 15 15 6 3 2 3 2 3 2 2 2 3 1 2 2 1 2 1 2 3 4 1 2 3 3 4 3 3 2 2 5 6 6 5 3 2 1 3 4 5 7 8 11 9 10 7 14 10 6
13 24 27 23 23 17 3 2 3 2 3 2 1 2 2 1 1 0 1 1 2 2 1 2 1 3 3 3 3 3 2 2 1 3 3 3 5 6 7 4 3 3 4 5 6 7 7 8 7 7 12 14 11 8
23 29 26 23 14 5 2 1 1 3 3 1 1 0 1 1 1 1 1 1 2 2 1 1 3 3 4 3 4 3 2 2 3 3 3 4 6 7 6 5 4 1 3 3 5 6 7 7 6 9 13 12 11 13
25 23 18 14 8 3 3 1 1 2 1 1 0 0 1 0 1 1 1 0 1 1 1 3 4 3 4 3 3 3 3 4 4 3 2 2 6 8 7 5 3 1 3 3 6 5 8 9 7 13 12 12 9 11
19 18 13 7 3 5 2 2 1 0 0 1 0 0 0 1 2 1 1 1 1 2 3 4 4 4 0 1 2 3 3 5 4 4 3 2 7 9 7 6 4 3 2 3 4 7 7 7 11 12 11 9 9 11
9 8 4 2 3 2 3 4 1 1 1 1 1 1 0 0 1 1 1 1 3 4 4 3 3 3 2 3 3 8 6 11 8 7 8 13 4 2 3 9 7 4 6 7 8 11 13 12 12 10 10 12 12 13
11 4 3 3 4 4 1 2 2 3 2 1 1 0 1 1 1 1 2 3 4 2 2 2 2 2 1 2 4 5 8 13 4 7 8 8 6 6 6 8 8 7 7 12 8 9 12 11 10 9 10 10 9 10
5 3 3 2 3 1 1 3 2 2 2 1 1 1 1 1 2 1 3 3 3 1 1 3 3 1 1 2 2 2 11 13 8 7 10 11 4 7 9 8 8 10 13 13 13 13 10 8 5 7 8 9 11 15
3 2 3 2 1 4 3 2 3 2 1 1 1 2 1 1 0 2 3 3 2 2 2 1 1 1 2 1 1 6 11 15 9 4 11 14 7 4 6 10 12 13 11 13 13 10 7 6 7 10 12 15 16 17
1 2 3 4 1 3 4 2 2 4 2 1 3 1 1 2 1 4 3 3 3 3 3 3 3 2 2 5 2 2 11 17 13 6 8 15 17 12 4 3 2 8 7 7 8 8 9 10 13 16 18 16 14 16
1 3 1 2 3 4 2 2 2 3 2 4 2 2 2 0 4 4 2 3 3 5 4 4 10 6 3 5 13 8 7 15 15 10 7 9 11 12 13 10 8 10 7 7 9 12 14 16 17 18 20 21 19 17
3 4 7 4 1 1 4 2 4 6 4 3 4 3 6 7 4 3 4 4 8 6 7 6 7 12 14 12 9 9 10 12 17 10 9 11 13 15 16 17 17 17 16 16 14 12 13 17 19 21 22 24 25 21
2 2 4 2 1 1 5 6 5 4 3 4 5 4 5 3 3 2 3 7 8 8 7 8 10 12 13 13 12 12 15 16 13 6 5 5 2 11 12 11 11 10 9 12 15 16 17 19 22 23 24 25 25 23
3 3 3 2 5 5 5 5 3 2 1 1 1 3 3 3 7 10 12 12 11 13 20 15 11 14 13 13 10 15 19 18 21 16 4 6 6 5 4 6 9 12 13 15 18 19 18 18 18 18 20 23 24 23
3 3 2 2 5 3 2 2 2 1 2 1 1 3 3 4 9 16 23 28 29 24 19 14 15 16 17 14 12 4 6 17 22 22 23 23 20 18 17 14 13 13 15 17 18 19 20 19 19 19 20 21 22 18
1 6 5 4 4 3 2 1 1 1 2 1 3 0 3 2 4 4 6 10 11 10 18 16 15 15 21 22 15 15 11 8 7 8 8 11 12 12 14 13 14 16 18 19 19 19 19 20 21 21 20 21 21 20
1 1 2 1 3 3 2 3 2 4 2 3 4 4 3 3 7 4 5 9 10 5 6 8 8 6 6 7 10 12 11 9 8 7 8 10 12 14 17 17 17 18 19 20 22 21 21 21 22 20 19 19 20 18

GFSWCAN_925_spd_060.txt.gz
Wind_Speed
22 25 22 21 18 16 15 13 12 12 11 10 9 9 7 7 7 5 5 3 1 3 7 5 4 5 2 2 3 3 4 3 3 5 4 3 4 5 4 3 4 8 5 3 5 5 6 2 4 3 1 0 1 3
22 24 25 23 21 18 17 16 14 13 11 10 10 11 11 8 8 8 4 7 7 4 5 8 17 19 15 11 4 2 3 3 4 3 2 2 3 3 3 3 4 5 5 3 7 3 1 2 1 2 2 8 7 4
20 26 27 26 23 20 21 18 15 12 13 10 11 11 10 8 8 10 9 7 4 3 8 8 9 21 25 30 23 3 2 2 3 0 2 1 2 3 4 5 4 6 7 3 3 4 10 10 6 2 4 5 4 3
20 22 29 30 25 23 21 19 16 14 12 12 11 11 12 8 9 10 10 10 6 4 4 6 7 9 8 15 26 27 8 2 1 2 2 2 2 3 2 1 3 1 7 8 9 8 8 11 4 3 4 4 4 2
21 23 30 33 31 24 24 21 18 15 13 12 12 12 10 10 11 11 14 17 16 6 3 8 22 27 24 15 22 23 17 6 3 3 2 3 3 3 1 1 4 6 7 6 6 5 4 3 3 3 7 6 5 4
20 25 29 37 34 26 26 22 20 15 14 12 11 11 9 10 8 5 3 5 20 18 2 4 5 5 10 18 17 17 12 5 3 3 2 1 1 3 3 4 4 6 3 3 5 1 4 6 2 4 5 5 4 4
22 26 32 41 34 30 28 24 19 15 13 11 11 9 11 12 10 5 2 2 5 14 2 4 4 4 12 8 6 4 6 2 3 2 3 4 3 4 3 5 5 6 6 4 0 2 4 0 1 9 7 7 5 3
24 27 31 39 35 34 28 23 18 15 13 10 9 10 10 7 8 11 16 5 9 2 3 3 4 3 7 1 3 2 3 3 3 1 1 2 2 3 5 9 5 4 3 3 3 1 4 7 8 8 6 4 5 5
28 28 28 39 41 35 30 25 19 15 10 7 8 4 3 4 4 2 8 13 12 4 3 3 3 1 2 2 3 1 2 2 1 2 3 3 4 6 5 7 8 7 3 4 2 4 6 6 6 7 5 5 7 7
33 31 29 40 43 35 30 25 18 13 10 7 4 3 2 4 5 6 7 3 3 3 3 3 2 1 1 1 2 3 1 2 2 2 3 3 3 1 2 4 5 4 1 2 2 4 2 5 6 8 8 8 8 7
32 33 33 40 40 35 31 23 18 14 9 6 5 3 3 5 7 2 3 4 4 4 4 3 2 1 2 2 2 2 2 2 3 2 2 2 3 3 4 4 3 2 1 3 5 6 7 9 10 10 10 9 11 11
32 33 30 37 41 36 30 23 21 17 7 8 5 2 2 3 3 4 3 3 3 3 2 2 1 1 1 1 2 2 2 1 1 3 2 3 1 4 4 3 2 1 1 1 2 3 5 7 9 9 8 10 11 11
32 28 29 41 41 32 26 23 21 13 11 4 2 1 3 3 6 5 6 3 3 2 2 2 1 1 1 1 2 1 2 2 3 2 3 2 4 4 3 3 3 3 3 2 2 3 5 6 6 7 7 8 7 4
29 26 44 41 36 30 26 24 19 15 4 3 4 4 4 4 4 4 2 2 1 0 2 1 2 1 1 2 1 2 1 1 2 3 4 2 7 6 4 3 4 2 3 3 4 5 5 6 7 7 8 8 7 3
27 40 37 35 33 28 21 25 18 9 4 3 3 4 5 0 0 1 1 2 1 1 1 3 2 0 1 2 1 1 2 4 4 3 0 3 8 7 6 4 3 2 3 3 5 5 7 8 7 7 8 8 6 4
45 36 27 31 28 23 25 21 11 3 2 1 3 2 2 1 1 1 1 0 2 1 1 1 2 2 3 3 3 5 2 4 2 2 2 6 8 7 6 4 3 1 1 3 4 5 6 9 8 8 7 10 9 6
22 10 30 28 27 27 21 7 4 1 2 2 2 2 2 1 1 1 1 0 1 2 2 1 5 3 2 2 3 4 4 2 1 1 4 6 8 8 6 5 4 2 1 2 3 5 6 7 6 7 8 12 11 8
23 32 33 35 31 22 5 3 3 2 3 3 2 1 2 1 0 0 1 1 0 2 1 2 1 3 4 4 3 2 3 0 1 2 5 5 5 7 7 5 5 3 1 0 2 2 3 5 5 6 8 10 10 10
34 37 32 26 17 7 3 1 1 2 3 1 1 1 1 0 1 1 0 1 2 1 1 1 3 4 3 3 3 1 2 3 3 3 3 6 8 9 8 7 6 4 2 1 1 2 3 4 3 5 7 8 8 8
30 26 21 19 7 3 3 1 1 2 2 1 1 2 0 1 1 1 1 0 0 0 1 4 5 2 2 1 2 1 1 4 4 4 3 4 6 9 9 8 6 5 3 3 2 2 2 3 2 6 7 7 6 7
24 19 13 9 4 5 2 1 1 0 1 1 1 1 1 1 0 0 1 1 1 2 3 4 4 3 0 1 1 1 1 5 5 3 2 5 8 8 7 7 7 5 4 3 3 2 2 3 4 5 5 5 7 8
11 9 5 4 4 2 3 4 1 1 1 1 1 1 1 1 1 1 1 2 3 3 3 2 2 2 2 4 3 7 4 9 7 4 6 11 5 4 6 9 7 5 6 5 5 5 5 4 5 5 5 6 7 8
9 4 4 3 4 3 1 3 2 3 1 1 0 1 1 1 1 1 2 3 3 3 2 2 3 3 3 4 4 5 7 11 4 6 7 6 6 9 8 10 11 8 5 7 8 7 7 6 6 6 6 6 7 8
5 4 3 2 2 1 1 3 2 1 1 1 1 1 0 0 2 1 2 3 3 1 2 3 2 2 2 2 3 3 10 12 6 6 9 10 4 7 10 10 10 12 12 9 8 9 9 9 6 6 7 7 8 8
4 3 2 3 1 3 3 2 3 2 1 1 1 1 1 1 1 2 3 3 2 2 2 1 3 4 4 2 2 5 9 14 8 5 12 14 7 5 6 10 12 14 11 12 12 10 10 9 8 9 8 8 9 11
3 1 1 2 1 2 3 2 2 3 2 1 3 1 0 1 1 4 3 3 2 2 2 2 2 2 4 6 3 2 6 14 13 5 8 18 19 12 4 3 3 8 10 14 13 10 9 9 9 10 9 9 9 10
2 2 1 1 3 3 2 2 2 2 3 5 3 3 2 1 4 4 2 3 3 5 4 4 7 5 3 2 9 11 4 11 14 9 7 11 17 18 17 10 7 10 8 10 11 11 10 10 11 11 13 14 14 14
2 2 4 3 1 0 4 2 4 5 4 3 4 3 6 7 4 3 4 2 8 4 5 6 8 11 12 10 8 6 9 10 15 9 7 9 11 15 16 17 18 17 14 12 13 13 12 12 13 14 15 18 20 18
2 2 3 1 1 1 4 6 4 3 3 4 4 4 4 3 2 2 2 4 6 7 9 10 11 10 11 12 13 13 13 14 12 6 7 6 2 12 14 15 15 14 14 14 11 11 12 15 17 18 19 20 22 20
3 2 2 1 4 5 4 5 2 1 1 1 1 2 2 3 7 9 11 11 10 13 20 20 15 12 12 10 9 15 19 21 23 16 6 7 6 6 5 6 7 7 9 12 14 15 14 15 17 18 18 17 19 20
2 3 1 1 4 3 2 2 3 2 2 2 1 3 4 4 9 19 24 28 30 26 20 15 17 19 17 14 11 4 7 16 24 26 25 21 16 14 12 12 12 11 12 14 15 16 17 16 16 16 16 18 20 17
2 5 4 3 4 2 2 1 1 1 2 2 3 1 3 2 4 3 10 17 16 11 19 17 12 13 15 18 19 14 14 8 4 6 10 14 12 10 9 9 9 10 13 15 16 16 16 16 16 17 17 19 20 20
2 2 3 3 3 3 3 3 1 3 1 3 4 3 3 3 7 4 7 14 16 11 10 9 10 10 8 7 6 10 9 7 4 4 4 5 6 8 10 12 12 13 14 14 16 17 18 17 17 17 18 18 18 17

GFSWCAN_925_spd_063.txt.gz
Wind_Speed
14 14 16 20 21 21 17 16 15 14 12 10 10 10 8 9 6 5 6 4 4 4 10 8 8 8 6 5 3 3 4 4 5 5 3 3 5 5 4 4 6 8 6 4 5 4 7 4 4 4 4 3 3 4
12 15 18 22 21 23 21 20 17 16 14 11 11 10 12 11 11 7 7 6 6 7 7 15 20 22 20 16 5 4 2 1 7 5 4 2 3 1 6 3 8 5 6 3 7 4 3 2 2 3 1 4 7 4
10 14 18 22 23 24 25 22 21 17 16 12 10 11 10 12 9 9 11 9 4 4 12 13 9 10 17 26 22 3 4 3 3 3 2 1 4 4 4 7 7 8 7 4 3 5 11 8 7 1 3 3 4 3
10 14 18 20 25 29 29 25 22 20 19 14 12 12 11 13 12 11 11 10 7 4 5 6 10 13 9 15 23 31 18 8 8 4 4 4 4 4 3 2 6 1 9 8 10 10 5 6 7 6 2 4 2 4
16 16 18 21 25 31 33 30 24 22 20 16 14 12 12 11 10 12 15 16 16 7 5 10 25 34 32 25 15 26 21 11 5 3 4 5 2 3 3 2 7 8 8 7 5 3 5 6 7 2 2 3 3 5
17 18 20 21 24 30 34 34 27 26 21 18 15 13 10 10 8 4 3 5 14 19 3 4 6 11 8 21 25 19 15 7 4 4 3 3 1 4 3 5 4 6 10 9 9 4 2 1 1 3 4 5 4 4
20 20 20 22 23 26 32 36 28 26 22 18 14 12 11 10 9 6 3 2 1 9 2 4 4 4 6 12 9 5 12 4 4 3 3 3 3 4 3 8 4 5 6 5 3 2 6 6 2 1 5 6 5 6
22 23 24 23 25 26 32 35 31 27 22 16 11 9 10 12 10 12 20 11 6 3 3 4 4 3 9 4 5 5 3 7 5 2 1 3 3 3 5 8 11 9 4 5 6 3 4 3 5 4 5 5 6 7
26 26 26 26 25 24 27 35 34 27 17 12 8 7 5 6 5 2 8 16 12 5 3 3 3 2 3 2 3 3 2 3 1 5 4 3 3 7 6 7 7 6 7 4 5 3 4 6 7 6 6 6 7 8
29 28 29 27 25 24 25 34 27 23 15 10 4 4 3 5 8 8 5 3 3 3 3 3 3 3 1 5 2 4 2 3 3 2 3 3 5 11 3 1 5 5 4 3 3 4 2 4 5 7 8 8 8 9
30 29 28 27 25 24 22 36 31 26 18 7 5 3 3 11 8 3 4 4 4 4 4 4 4 3 0 1 2 2 1 1 2 2 2 3 4 3 5 4 3 3 1 2 4 4 4 6 7 8 9 9 11 12
28 28 27 31 24 26 27 37 33 21 12 11 5 2 4 3 3 4 4 4 5 3 5 3 2 2 1 1 2 2 2 1 1 3 2 3 1 5 6 4 2 2 1 2 2 3 3 5 7 7 8 8 11 13
29 28 29 24 20 17 39 37 32 21 15 6 3 2 3 4 6 5 6 4 3 3 2 1 2 0 1 1 2 1 3 1 3 2 3 3 4 5 5 5 4 3 2 1 1 2 3 5 5 5 7 8 10 9
28 27 26 27 21 25 41 38 32 23 6 3 5 5 5 5 5 4 4 1 2 1 2 1 1 0 1 1 1 2 1 2 3 3 3 2 6 7 6 5 5 2 2 1 2 2 3 3 4 4 6 8 8 7
27 24 20 29 28 46 36 32 28 16 5 3 4 5 6 2 0 2 2 1 0 1 2 2 1 0 1 2 0 2 2 3 4 2 1 3 7 7 7 7 6 4 2 2 3 3 5 6 6 5 7 8 8 8
24 16 21 43 38 37 36 29 15 5 2 2 4 3 3 2 2 1 1 2 1 1 2 1 1 1 2 1 2 3 2 4 1 1 2 6 8 8 8 6 5 4 3 2 2 3 4 5 6 6 5 8 8 8
23 13 35 37 34 37 29 10 4 2 3 3 3 3 3 2 2 1 1 1 2 1 2 1 3 3 2 2 2 2 4 1 0 2 3 6 8 8 7 7 6 5 3 2 1 2 3 5 4 5 5 9 9 8
28 40 38 40 36 25 7 4 3 4 5 3 3 2 2 1 1 1 1 1 1 1 1 1 1 3 3 4 3 3 2 1 1 1 3 5 6 6 6 6 7 5 3 2 1 2 2 4 4 4 6 8 9 8
38 38 37 31 20 6 2 2 1 3 3 1 1 1 1 0 1 1 2 1 1 1 0 1 2 3 3 2 2 1 1 1 1 2 3 5 9 9 8 7 6 4 3 2 2 2 2 2 3 3 5 6 6 5
34 30 25 18 6 4 3 2 0 1 1 1 1 2 1 1 1 1 1 1 1 1 2 3 4 3 2 2 2 2 2 1 3 3 3 4 6 8 8 8 7 6 4 3 3 3 3 3 3 3 4 5 5 6
24 16 16 9 4 7 3 1 1 1 1 1 0 1 1 1 1 1 1 1 1 2 3 3 3 3 2 1 2 3 2 2 4 2 1 4 8 9 7 7 6 5 5 5 4 4 4 4 3 4 5 5 5 7
9 10 5 5 4 3 3 4 1 1 1 1 1 1 1 1 1 1 2 3 3 3 2 2 2 2 1 3 2 5 5 4 4 2 2 7 5 4 5 9 8 5 6 6 5 5 4 3 4 5 5 6 6 7
8 4 4 3 3 2 1 2 1 2 1 2 1 2 1 1 1 2 2 2 3 3 2 2 2 4 4 6 7 8 7 7 4 6 6 6 3 6 6 9 11 8 5 7 8 6 6 5 5 6 5 5 6 7
5 4 3 2 2 2 0 2 2 1 0 1 1 1 1 0 2 1 2 2 3 1 2 3 2 3 3 3 4 4 6 8 7 4 5 6 3 5 6 7 9 11 10 5 6 7 7 7 6 6 6 6 7 8
2 3 1 3 1 3 2 2 0 1 2 1 1 1 1 1 1 2 2 3 2 2 3 2 2 4 4 3 2 5 7 8 6 5 7 9 4 3 4 8 9 11 10 9 9 9 9 9 8 8 7 8 9 11
3 1 0 2 2 2 4 3 3 3 2 2 2 1 0 1 2 4 2 2 2 2 2 2 1 1 3 5 3 1 3 8 8 5 6 14 15 9 5 4 3 7 12 15 14 11 10 10 10 10 10 11 12 13
2 2 1 2 2 3 2 2 2 1 2 3 3 3 2 2 4 3 1 2 1 1 1 2 3 3 3 2 4 7 6 4 9 6 6 8 15 19 16 8 6 9 8 9 10 12 12 11 11 11 12 12 12 13
2 1 1 2 1 1 2 1 3 4 3 3 4 3 4 5 3 2 2 1 4 3 4 5 7 9 10 10 9 7 6 9 9 11 11 13 14 15 18 19 17 15 12 11 11 12 13 13 13 12 12 15 16 15
1 2 3 2 0 2 3 4 3 1 1 3 3 3 3 3 2 2 2 3 4 5 8 10 13 12 13 14 14 14 13 11 8 5 6 6 2 12 17 18 18 17 16 16 13 13 13 13 13 15 16 18 18 16
2 2 2 2 2 3 1 2 0 1 1 2 2 3 2 3 8 11 11 12 10 11 19 19 18 14 12 9 9 14 18 20 23 15 7 7 6 8 9 10 11 10 11 11 11 11 12 13 14 15 16 17 17 16
2 2 1 2 3 1 2 2 2 2 2 2 2 3 4 3 7 17 23 27 28 26 17 17 18 17 15 13 11 6 8 15 21 25 27 21 14 9 9 9 10 10 11 12 12 12 12 13 13 14 14 16 18 16
1 1 1 2 3 1 1 1 1 2 2 3 3 3 2 2 4 3 10 19 18 12 22 19 12 13 16 17 17 16 13 13 10 9 10 17 19 16 14 12 11 10 10 11 12 13 14 14 14 14 15 17 18 18
2 0 1 2 3 3 1 2 2 3 2 3 4 4 3 2 6 3 8 12 18 14 11 12 12 12 12 11 10 8 10 8 6 5 4 5 5 4 5 6 8 9 11 11 12 12 13 14 16 17 16 16 17 17

GFSWCAN_925_spd_066.txt.gz
Wind_Speed
14 12 12 13 14 16 18 18 17 15 13 11 11 11 11 10 8 5 7 6 3 3 8 7 10 10 8 4 4 5 2 2 3 3 3 3 2 4 2 3 6 7 5 4 4 3 7 4 2 1 3 4 5 3
12 12 11 13 16 19 19 19 19 19 16 14 13 11 10 11 12 11 7 8 8 6 6 22 24 25 19 11 2 4 7 8 4 3 4 3 4 2 4 2 3 4 4 4 6 4 3 5 4 4 3 3 3 4
10 13 12 13 15 18 20 21 20 21 19 17 17 12 10 12 12 11 11 10 5 4 9 11 6 8 18 29 23 4 4 5 3 6 3 2 3 4 3 6 5 5 4 2 3 5 7 6 6 4 2 4 5 5
8 9 13 14 16 18 21 22 27 24 23 19 18 13 11 13 12 14 13 11 6 5 4 5 11 10 9 11 22 30 19 7 8 5 2 2 2 3 2 1 1 3 5 6 5 6 3 4 6 8 6 4 3 5
9 11 13 14 17 18 22 24 28 30 25 21 20 14 12 12 13 11 13 19 17 6 5 10 23 34 23 32 23 23 22 11 4 4 3 3 2 2 1 2 3 4 4 4 4 2 2 2 6 6 4 2 3 1
11 14 14 15 17 19 20 21 24 28 31 25 21 15 10 10 8 3 3 3 7 11 3 4 7 9 16 15 25 15 13 5 4 4 4 3 1 2 2 3 2 4 7 4 0 4 5 6 5 3 3 2 2 2
11 14 15 17 17 17 18 20 22 29 30 24 20 14 10 8 9 4 3 1 3 6 2 5 4 1 9 3 5 4 9 3 4 3 3 2 2 2 2 4 4 6 2 2 5 4 2 5 3 4 3 3 2 3
13 17 18 20 20 20 19 20 20 23 28 25 18 10 7 8 10 10 24 17 7 3 2 3 4 4 4 3 4 5 6 4 2 4 2 2 3 3 4 6 7 6 4 7 6 3 3 3 2 1 2 2 3 4
18 18 20 21 18 18 18 19 19 21 28 20 15 7 5 6 6 2 5 16 12 4 2 3 3 3 3 1 1 3 4 3 3 3 2 3 3 5 4 5 4 4 6 5 6 5 2 1 2 2 3 5 5 5
21 22 23 21 19 19 18 19 19 16 24 19 12 5 3 5 9 5 4 2 2 3 3 4 2 4 3 3 2 3 3 3 4 3 2 2 3 4 4 5 5 6 8 7 3 3 3 1 1 2 3 4 4 5
24 24 22 18 18 20 20 19 18 22 26 9 5 3 4 13 5 2 4 3 4 4 4 4 6 4 2 2 3 1 1 2 2 2 3 2 3 2 5 6 5 4 5 4 2 2 2 3 3 4 4 5 6 9
25 23 20 17 18 21 19 15 11 16 13 12 10 5 5 3 3 4 4 3 5 4 5 3 4 4 2 2 2 1 1 0 2 3 3 3 2 3 6 5 4 3 3 3 6 4 4 3 3 3 4 5 8 10
27 25 21 20 22 22 19 13 24 25 27 11 4 3 3 3 5 5 5 3 3 3 2 1 2 2 2 1 2 1 2 1 3 2 3 3 3 4 5 5 6 5 6 4 4 4 3 4 4 3 5 6 9 9
30 27 26 22 20 17 20 22 38 28 6 2 4 4 4 4 4 4 2 2 2 2 1 2 1 2 1 1 1 1 1 2 2 3 4 2 5 6 5 5 6 5 5 4 3 3 2 1 1 1 3 5 7 8
33 31 26 23 19 12 42 39 26 13 4 3 3 5 5 2 2 1 1 2 2 3 1 1 1 1 1 1 0 2 1 2 3 3 2 1 5 6 6 5 5 5 4 4 3 3 3 4 4 4 6 7 8 8
35 28 29 25 21 21 40 35 17 4 2 2 3 2 3 1 3 2 1 2 1 2 1 1 1 1 1 1 1 3 1 3 3 1 1 4 6 6 5 6 5 6 5 4 4 3 3 4 4 4 4 8 9 8
21 10 17 23 34 45 33 14 4 2 3 3 3 2 1 2 3 2 1 1 4 1 2 1 3 2 1 1 1 2 3 2 1 1 1 4 6 6 6 6 6 7 5 4 3 3 3 4 4 4 5 9 9 7
17 40 53 51 45 33 14 5 3 3 4 2 2 2 2 1 2 1 0 1 1 1 1 2 0 2 2 2 2 2 1 0 1 1 2 3 5 6 8 6 7 6 6 4 3 2 1 3 3 3 6 9 8 7
38 42 38 33 20 8 3 2 1 3 2 1 1 0 1 2 1 0 1 1 1 0 1 1 2 2 2 0 1 2 1 0 1 1 2 5 9 9 9 11 10 8 7 5 3 2 1 1 1 3 5 7 7 7
35 29 27 17 12 5 3 2 0 1 3 1 0 1 2 2 1 2 1 1 1 1 2 2 3 1 1 1 0 1 1 2 2 1 1 1 5 11 12 12 10 9 7 4 4 3 2 2 2 2 3 5 6 7
24 17 17 12 5 7 3 2 2 1 1 1 1 1 2 1 1 1 1 1 1 2 2 3 3 1 1 1 1 1 2 1 2 1 1 2 6 10 10 10 10 9 6 6 5 6 6 6 4 4 4 4 5 7
9 12 6 6 4 3 3 3 1 2 1 1 2 1 1 1 1 0 2 2 3 3 3 3 2 2 1 2 2 3 5 5 5 4 2 4 3 2 3 11 12 6 11 10 10 8 7 6 7 5 4 5 6 7
10 5 4 3 4 3 1 1 2 1 2 2 1 1 1 0 1 1 2 2 3 3 1 1 0 1 3 8 9 11 9 8 3 6 7 7 5 9 8 13 15 13 7 12 12 10 10 8 7 7 7 7 7 8
6 4 2 2 3 2 1 1 1 2 2 0 1 0 0 1 2 0 2 2 2 1 2 2 2 2 2 3 2 3 10 9 9 7 6 8 2 6 9 10 11 14 13 6 10 10 9 10 8 9 9 9 9 9
4 3 2 2 1 3 3 2 1 2 2 2 2 1 1 1 1 2 2 3 1 1 1 1 1 2 2 3 3 5 6 8 6 3 9 12 7 6 7 9 10 11 12 13 13 13 12 10 11 11 11 11 11 11
3 1 2 2 1 2 3 3 4 5 3 1 2 1 0 1 0 4 3 3 2 2 2 2 1 1 2 4 2 2 4 4 7 2 6 10 16 12 5 3 2 9 16 17 15 14 13 12 12 12 13 12 11 12
3 2 2 1 1 3 2 2 2 2 3 4 3 2 2 1 4 4 2 2 2 4 5 5 7 5 4 6 7 8 9 8 7 7 7 7 11 15 17 9 6 13 8 11 15 15 14 12 13 14 14 14 13 13
2 2 3 2 1 0 3 1 2 3 3 2 3 2 6 7 4 3 3 1 5 4 5 7 8 10 12 13 12 11 10 9 10 11 14 18 19 17 16 19 21 17 13 11 11 12 12 13 13 14 14 15 15 14
2 1 3 3 3 2 2 3 3 2 1 3 4 3 3 3 2 2 3 5 5 6 9 13 18 19 19 19 18 16 15 13 5 3 5 5 3 12 14 18 18 19 19 16 13 12 11 11 13 13 12 14 16 16
1 1 3 2 2 2 3 2 1 1 1 1 1 3 3 3 10 13 14 14 12 14 22 24 24 15 14 12 12 16 18 20 22 16 6 7 7 10 8 10 14 16 16 14 12 12 11 11 13 12 13 14 16 18
1 2 3 2 2 2 1 2 2 2 2 2 1 3 4 4 8 18 25 29 31 29 23 18 20 21 18 16 12 4 7 15 19 22 24 22 17 10 8 6 6 7 8 9 9 10 10 10 12 13 14 16 17 15
2 2 2 1 3 2 1 2 2 2 2 2 3 2 3 2 4 4 12 22 23 14 22 21 15 15 18 16 15 16 14 14 14 11 10 12 16 17 16 14 11 11 10 8 8 8 10 11 13 14 15 16 17 18
2 3 3 3 4 4 2 3 3 4 2 3 4 4 3 3 6 4 6 12 18 19 14 12 13 13 14 15 14 13 11 11 10 7 5 4 4 5 5 5 4 4 5 6 8 9 10 10 12 14 15 16 17 17

GFSWCAN_925_spd_069.txt.gz
Wind_Speed
19 20 20 16 13 13 13 14 13 12 9 8 8 8 7 6 4 4 3 6 5 3 6 6 5 4 4 3 2 3 5 2 2 4 4 4 4 5 3 4 6 7 6 4 4 4 7 5 3 4 3 2 4 4
21 20 18 15 13 13 14 14 14 12 11 12 12 10 8 7 8 5 6 7 11 7 6 26 25 29 18 15 3 3 3 1 3 3 3 2 3 2 5 3 3 3 6 4 7 5 4 5 3 3 3 4 3 4
20 19 18 13 12 13 13 13 15 17 16 13 16 13 10 8 9 8 12 11 5 3 8 6 7 11 15 27 32 4 3 4 3 7 3 3 3 4 4 5 4 4 5 2 2 4 7 6 4 5 4 3 3 3
17 16 15 14 14 13 13 13 15 16 19 21 19 15 13 9 10 8 13 12 6 4 4 5 10 10 9 17 26 32 19 10 6 4 5 3 2 3 4 3 4 5 5 6 3 5 4 4 6 7 6 6 4 3
13 11 9 9 12 14 14 14 14 17 19 22 24 17 16 10 7 11 13 15 16 5 4 9 22 28 15 27 25 21 18 7 1 1 4 3 2 2 0 2 2 3 5 4 4 5 4 2 1 6 7 5 4 2
9 7 6 7 8 9 10 11 12 15 18 20 22 21 19 12 4 3 3 2 2 12 3 4 5 5 13 18 19 14 13 5 3 3 4 5 4 3 3 3 5 5 3 6 5 3 3 5 3 2 5 4 3 1
5 5 6 6 7 9 10 11 11 14 16 19 22 25 18 12 11 5 4 4 2 4 1 5 4 4 7 1 3 3 10 3 3 3 3 3 5 2 1 3 4 6 6 6 6 6 3 4 4 5 5 4 2 1
5 6 6 6 8 10 11 11 13 14 15 15 19 20 17 9 6 10 22 18 8 2 2 4 5 4 3 2 2 2 4 3 5 3 2 4 5 2 4 7 7 6 4 6 7 4 6 6 4 2 2 1 1 1
6 5 6 8 10 11 10 11 12 15 13 11 14 17 8 4 5 3 3 6 18 5 2 3 2 4 0 3 3 1 3 4 4 4 4 4 3 5 7 6 5 4 6 7 5 6 6 4 3 2 1 2 2 3
7 7 9 11 11 10 10 9 10 10 9 13 12 4 2 5 8 7 2 2 2 3 3 4 2 4 1 3 3 3 3 2 4 6 3 4 3 4 3 3 5 4 5 8 5 3 3 2 2 2 2 1 1 2
9 10 11 11 9 7 9 9 9 7 14 6 2 2 8 18 4 2 3 3 4 3 4 3 7 5 3 4 2 4 2 2 2 3 5 2 2 2 4 6 4 5 6 6 5 5 6 4 2 1 1 2 3 4
13 12 12 11 9 9 10 9 3 16 8 9 6 5 5 2 2 3 3 3 5 4 4 4 5 5 3 5 3 3 1 1 1 3 2 2 2 2 4 4 4 4 6 7 6 5 4 4 2 1 1 2 4 6
16 14 15 14 13 12 12 7 12 14 21 9 2 2 2 2 4 4 5 3 3 3 3 3 2 2 2 2 1 0 1 1 2 1 2 3 2 3 5 5 5 5 6 5 5 4 4 3 2 1 1 2 4 5
19 18 16 15 15 12 11 7 20 23 5 2 3 4 3 4 5 4 3 2 2 3 4 3 0 2 2 1 1 1 1 2 1 2 3 2 4 5 5 4 5 5 4 5 4 4 4 3 2 3 2 4 5 5
25 23 20 19 15 12 9 20 28 17 4 4 3 4 6 4 2 1 1 3 2 2 3 2 1 2 1 1 1 2 1 1 2 3 2 2 4 6 6 4 6 6 5 4 4 3 4 4 4 4 5 6 7 7
32 29 29 20 15 12 26 35 18 4 2 2 3 3 3 1 2 2 2 2 2 2 2 1 2 2 1 0 1 2 2 2 3 2 2 2 5 5 5 5 5 6 6 5 5 4 5 4 3 2 4 8 8 7
23 15 20 21 17 42 40 13 5 3 4 4 3 3 1 1 2 1 2 1 3 2 2 1 2 2 1 1 1 1 2 2 2 3 1 3 5 5 5 5 6 7 6 6 5 4 3 2 3 4 4 7 7 6
5 16 22 36 44 32 6 4 3 3 5 3 3 2 2 2 1 1 1 1 2 1 1 2 1 1 2 2 2 2 2 2 2 2 2 1 3 6 9 7 9 8 7 6 5 4 3 3 3 2 2 5 4 6
13 24 39 47 32 9 3 2 1 3 4 2 1 1 1 1 1 1 1 2 2 3 2 2 3 2 2 1 1 1 2 1 2 2 2 0 5 7 8 10 10 8 8 7 5 4 3 2 1 1 1 3 3 4
34 29 26 23 12 5 4 1 1 3 2 2 1 0 1 0 1 1 2 2 2 2 2 2 3 2 3 3 2 2 2 2 1 2 2 2 3 8 10 12 10 9 8 6 5 5 4 3 4 4 2 3 3 4
24 19 15 11 6 7 3 2 1 1 2 1 0 1 1 1 2 2 2 1 1 3 3 3 3 2 1 3 3 3 3 2 2 3 2 2 5 9 10 12 11 10 8 8 6 7 8 9 6 6 5 4 4 5
8 11 6 7 5 4 4 4 1 1 1 1 1 0 1 1 1 1 2 2 3 3 3 3 2 1 1 2 2 5 4 5 6 6 6 3 1 0 3 12 13 7 12 13 13 12 11 10 8 8 7 5 5 7
11 7 6 4 4 3 1 3 3 1 3 3 2 1 2 1 3 1 2 3 3 3 2 1 1 1 3 7 7 8 7 8 4 7 8 8 9 9 10 10 17 14 7 16 15 13 13 10 10 10 8 8 9 9
8 4 2 2 2 2 1 2 1 2 2 2 2 2 2 2 2 2 2 3 3 1 1 2 2 1 2 2 2 3 8 5 7 8 9 8 2 8 11 12 12 15 18 11 11 15 14 14 11 11 11 11 11 12
4 2 3 2 1 3 3 1 1 2 2 2 2 2 2 2 1 1 3 3 1 2 2 2 2 2 2 2 2 5 4 5 4 3 9 9 10 6 7 10 11 13 12 14 13 15 15 13 13 14 14 14 14 14
4 1 2 3 1 3 4 3 3 5 3 1 4 2 2 2 1 4 3 3 3 3 3 3 3 2 2 5 2 2 3 3 4 3 7 8 12 11 5 3 2 10 16 19 19 18 18 16 15 14 15 15 13 13
3 2 1 1 2 3 2 2 2 3 3 4 3 2 2 1 4 4 3 2 3 5 6 7 9 6 4 7 9 10 8 8 8 7 8 8 10 13 17 11 7 15 9 12 18 21 20 17 16 15 16 14 14 13
2 2 4 2 2 0 4 2 3 4 3 2 3 2 6 7 4 3 4 2 5 5 7 9 10 13 16 18 15 13 12 11 12 13 15 18 19 20 21 21 21 22 18 14 14 16 17 16 14 14 14 15 12 11
2 1 3 2 1 1 2 3 4 2 1 3 4 3 4 3 3 2 4 6 9 11 12 15 20 20 19 21 21 19 16 14 5 4 6 5 3 13 11 13 19 22 21 18 16 15 14 14 13 12 11 11 10 10
1 0 3 2 3 0 3 3 2 2 1 2 1 3 3 3 13 18 18 18 16 17 26 27 26 19 15 11 12 14 14 17 20 17 6 7 6 9 7 7 9 12 16 17 16 14 11 10 10 10 10 10 11 13
1 3 3 2 2 3 2 2 3 2 2 2 1 3 4 4 9 21 28 34 33 29 24 18 20 23 20 17 11 4 6 12 13 17 20 23 23 21 16 11 9 7 8 10 10 9 9 9 9 9 10 12 13 13
3 2 3 1 2 3 3 3 1 1 3 2 3 0 3 3 3 3 3 11 19 15 22 20 16 18 20 16 15 14 14 16 16 14 12 12 13 13 12 11 9 8 7 7 7 6 6 6 7 8 10 12 13 14
3 3 2 2 4 5 3 2 3 4 2 2 4 3 3 3 6 4 6 9 11 13 13 13 11 12 13 13 14 14 14 13 11 11 10 9 8 7 9 9 8 7 6 5 5 5 5 6 7 8 9 11 14 15

GFSWCAN_925_spd_072.txt.gz
Wind_Speed
35 31 28 23 18 15 16 14 13 10 9 9 7 7 5 4 1 4 3 5 4 2 5 5 3 4 1 2 3 4 8 3 2 4 5 5 4 6 5 5 7 6 6 3 3 4 8 4 2 5 4 2 2 4
31 29 26 22 18 16 17 14 13 10 9 8 8 11 9 6 4 4 4 6 9 7 5 12 20 24 22 21 4 4 3 5 4 3 2 2 3 2 6 4 2 4 6 5 7 5 5 5 4 4 4 2 1 3
27 25 24 21 19 17 16 15 13 12 13 13 12 13 13 9 7 8 10 10 7 4 7 8 9 19 15 21 28 4 3 4 3 3 3 3 5 4 4 5 5 4 4 3 2 5 6 6 4 3 4 3 2 2
26 25 20 21 18 17 15 13 13 15 15 15 15 16 15 14 10 9 12 10 7 5 4 5 8 10 10 9 18 31 17 5 4 2 1 4 4 3 4 3 5 5 6 6 4 5 5 5 6 5 4 4 4 3
26 24 24 20 19 19 17 15 16 17 17 17 18 17 18 18 13 11 12 15 13 5 3 8 24 19 5 14 24 19 18 8 2 2 4 4 4 4 1 2 3 5 6 5 5 6 4 5 2 4 7 5 5 4
25 23 19 18 17 15 12 12 13 14 16 16 16 16 15 18 16 2 3 0 6 17 3 4 6 5 9 5 6 15 9 4 3 3 3 4 5 3 3 4 4 6 5 6 5 4 5 4 5 4 5 4 3 3
21 17 16 14 12 9 7 7 8 9 9 11 11 14 15 22 16 4 3 5 7 8 1 5 5 4 4 1 2 2 9 3 4 2 3 4 1 2 4 3 4 6 7 5 5 7 3 4 4 5 5 4 2 1
18 16 13 10 9 6 5 5 6 6 7 7 9 11 15 16 9 6 12 9 7 2 1 3 4 5 2 1 1 2 4 3 4 3 3 3 2 4 5 7 5 3 4 2 6 2 2 5 6 6 5 3 2 1
16 13 11 10 6 4 2 3 2 2 2 2 7 19 11 3 4 3 2 6 17 4 2 3 2 4 2 1 2 1 3 3 3 4 4 4 3 5 7 8 7 7 7 8 6 5 5 5 5 5 4 3 2 2
12 11 10 5 3 1 2 2 3 3 5 11 9 3 1 4 7 9 3 2 3 3 3 3 2 3 1 1 3 4 4 4 4 6 4 5 3 8 6 3 2 2 5 11 7 4 4 3 5 4 2 2 1 1
13 9 5 4 3 5 5 5 6 9 11 4 2 1 3 15 4 1 2 3 3 3 3 4 5 5 2 4 3 4 2 3 3 3 3 3 2 3 3 3 4 4 6 6 6 5 4 3 6 5 2 1 2 3
7 7 6 3 5 8 7 5 9 10 5 6 9 6 4 2 2 3 3 3 4 4 3 3 4 4 4 5 4 3 3 2 2 5 2 1 1 2 4 3 3 4 6 7 7 6 5 5 4 3 2 0 1 4
7 6 6 6 9 9 9 7 10 17 15 9 2 2 2 2 4 5 5 3 2 3 2 2 2 3 3 5 3 2 2 1 1 1 2 3 2 3 5 4 4 4 6 5 6 6 6 5 5 5 3 3 4 4
8 8 9 8 8 11 12 13 21 19 4 3 3 3 4 4 5 5 4 2 1 2 4 5 2 3 2 3 1 1 0 0 1 1 3 2 2 5 5 4 5 5 5 6 6 6 6 5 5 5 3 2 3 4
11 11 10 12 10 12 12 21 24 15 3 3 3 4 7 4 3 1 1 2 2 2 3 4 2 2 2 3 1 1 1 1 2 2 2 2 1 5 5 4 6 6 5 4 4 3 4 4 5 4 2 2 2 3
14 13 20 17 16 17 13 31 15 4 3 2 4 4 4 2 3 2 2 3 1 2 2 2 3 2 2 2 2 2 1 1 2 2 3 2 2 3 4 4 4 5 5 5 5 5 5 4 4 3 2 3 3 3
15 14 16 18 21 18 34 14 4 3 3 3 4 3 2 1 3 2 2 1 2 2 2 2 3 3 2 1 2 1 2 1 3 4 2 2 2 4 4 4 5 7 6 6 5 4 3 2 3 3 1 2 2 3
12 9 19 23 31 34 6 3 3 3 5 3 2 3 3 2 3 2 2 1 2 1 2 2 3 2 2 2 2 1 1 2 2 3 3 2 1 3 6 5 7 8 7 6 6 5 4 4 4 3 2 1 1 2
11 14 27 43 35 9 3 2 3 3 5 2 2 2 1 1 1 2 3 2 1 2 3 2 3 2 3 1 1 1 1 1 2 2 2 2 3 5 6 6 8 7 9 8 7 6 5 4 3 4 3 2 2 2
14 37 42 34 25 5 3 1 2 3 3 3 1 1 2 1 1 2 2 0 1 1 3 3 4 2 3 2 2 2 1 1 0 3 3 2 2 6 9 11 11 10 8 6 5 5 5 5 6 6 5 4 3 4
26 16 19 16 5 7 3 2 2 3 2 2 2 2 2 0 2 1 1 1 1 3 3 3 3 3 1 1 2 1 2 2 2 3 2 2 2 6 7 10 9 9 8 8 7 8 10 11 8 7 7 6 6 6
8 11 5 5 4 3 3 1 3 2 2 1 1 1 1 2 1 1 1 1 4 4 4 3 2 1 0 2 3 4 6 6 7 7 8 7 2 1 3 9 10 6 12 14 14 13 14 11 10 9 9 7 7 8
10 5 5 4 4 3 1 3 2 1 3 2 0 1 1 1 1 2 2 3 3 3 4 3 2 4 3 6 6 9 8 9 4 8 10 10 11 12 11 9 12 13 6 16 17 17 15 10 10 10 9 9 10 10
6 4 3 2 3 2 0 1 1 2 2 2 2 0 2 2 1 2 3 3 3 2 1 2 3 1 2 2 2 3 6 7 10 11 11 9 2 9 10 12 11 14 16 14 8 12 15 14 12 12 12 12 13 13
4 2 2 2 1 3 2 2 1 2 2 1 2 2 2 2 1 1 3 3 2 2 2 1 0 1 2 2 2 7 5 7 7 3 8 10 11 8 9 10 12 14 11 13 15 14 14 14 15 15 15 15 15 15
3 2 2 3 2 3 4 4 5 5 3 1 3 2 2 2 2 5 3 3 3 3 3 4 4 2 2 6 2 2 3 3 4 3 7 6 10 10 4 3 2 10 11 18 18 16 17 16 16 16 17 17 14 14
4 3 1 1 2 3 2 3 2 2 3 4 3 2 2 1 4 4 3 3 3 5 8 11 14 9 6 8 8 9 9 9 10 10 13 13 13 12 15 11 7 12 7 9 13 18 20 19 19 19 19 17 15 14
2 2 4 2 2 1 4 2 3 4 3 2 3 2 6 7 4 3 4 3 5 4 8 12 15 18 19 19 16 15 14 13 13 15 17 20 20 18 19 21 22 21 21 19 15 14 17 19 19 17 16 15 13 11
2 1 3 3 2 0 3 3 4 2 2 3 4 3 4 3 3 3 6 8 11 15 17 19 26 24 22 22 21 20 17 15 6 4 6 5 4 12 7 9 11 13 15 20 16 15 14 14 13 13 11 10 9 8
1 1 3 1 3 1 2 2 2 2 1 2 2 2 3 3 10 16 20 21 17 16 23 22 23 18 15 13 15 20 17 16 21 17 5 6 7 8 5 5 9 10 10 11 14 13 8 8 7 7 8 8 9 10
1 2 3 1 2 2 2 2 3 2 2 1 1 3 4 4 10 14 19 24 23 21 19 17 18 20 18 17 12 5 8 10 14 18 21 22 22 22 21 19 14 11 10 8 10 12 12 12 10 9 9 9 9 9
3 2 2 2 2 2 3 2 1 1 3 2 3 2 3 3 3 3 4 8 10 8 9 9 11 13 14 12 12 13 15 16 16 15 15 15 14 12 11 10 8 8 7 6 7 7 8 8 7 6 5 6 7 9
2 2 1 2 4 4 3 3 4 5 2 2 3 2 3 3 6 4 5 6 7 10 13 14 14 14 14 15 14 13 14 14 14 12 11 11 11 11 9 8 8 7 7 7 7 6 5 5 3 3 4 6 8 10

GFSWCAN_925_spd_075.txt.gz
Wind_Speed
47 43 38 33 28 26 22 19 17 13 10 11 6 4 3 1 1 0 0 3 2 2 4 3 3 3 3 1 2 5 7 1 3 4 2 3 3 6 4 5 7 6 7 4 3 4 8 5 3 5 5 3 3 4
46 42 38 32 29 25 23 21 17 16 14 10 8 8 6 5 4 5 3 5 7 4 6 14 22 24 22 16 5 4 4 4 2 3 5 3 3 2 6 4 1 3 6 5 7 6 4 4 5 3 3 2 2 1
44 42 38 33 28 23 22 22 18 17 13 12 12 11 9 7 8 11 8 7 4 3 5 4 10 20 17 25 22 4 2 5 1 2 1 2 5 3 4 5 4 3 4 4 3 5 8 6 4 5 5 3 1 2
43 41 36 32 26 23 22 22 19 17 14 15 14 13 13 13 12 12 14 8 3 4 3 6 4 8 8 11 16 26 14 2 4 1 1 1 3 3 3 5 4 5 8 6 4 5 3 5 7 5 4 3 2 3
39 35 33 28 26 25 22 19 19 17 15 17 15 15 16 14 13 14 16 13 11 3 3 6 19 8 7 12 19 19 18 10 1 1 2 2 2 3 2 3 4 5 6 5 5 7 5 5 2 4 6 5 5 4
36 32 30 29 27 24 22 20 18 17 18 18 17 17 14 13 14 8 2 6 7 13 3 4 6 4 8 4 6 9 13 4 3 3 3 3 4 1 3 3 5 4 5 6 5 4 4 2 1 3 6 6 5 4
33 31 30 27 23 22 18 18 12 14 12 10 11 12 11 15 14 4 3 5 10 10 1 5 5 4 5 2 2 2 8 3 3 2 3 2 2 2 3 3 6 11 8 4 3 6 2 3 3 5 4 6 7 6
32 31 27 23 21 18 15 11 10 8 5 7 7 6 7 16 11 4 6 8 11 3 0 3 5 5 2 1 2 2 3 3 4 3 2 3 4 4 5 11 14 11 7 2 6 1 3 5 6 5 4 3 3 3
29 26 23 21 19 15 12 8 6 5 3 5 10 18 15 4 3 0 5 7 10 2 1 2 1 4 4 1 1 2 3 3 2 3 3 3 4 5 10 13 7 7 5 4 3 3 6 5 6 6 5 3 3 1
25 23 23 19 17 12 10 11 12 12 12 16 9 4 2 1 9 9 3 1 1 2 3 3 1 4 1 1 3 3 3 3 3 5 3 4 4 12 10 4 2 6 4 7 5 2 3 3 6 5 5 3 4 2
24 22 20 17 13 14 15 16 15 19 15 4 3 2 5 11 3 1 2 2 2 2 3 3 5 5 3 4 3 4 2 2 3 3 4 4 3 2 3 4 3 3 5 5 4 2 4 3 5 5 3 3 2 1
19 18 16 16 17 17 18 17 21 9 7 8 12 7 5 1 1 2 3 3 3 3 2 3 3 4 3 3 3 3 3 3 2 4 3 2 1 1 3 4 5 5 6 7 7 6 7 7 7 5 4 4 4 4
17 16 16 17 18 20 18 19 18 13 19 9 4 3 2 3 4 5 6 3 2 3 3 2 3 3 3 4 4 3 3 1 3 3 2 2 4 2 2 3 3 4 6 5 6 8 9 8 8 7 6 6 5 5
17 17 16 15 16 18 18 18 21 20 5 2 3 4 4 4 6 4 4 3 2 2 3 4 3 2 2 2 3 3 2 2 2 3 2 3 5 2 1 2 3 3 4 5 5 6 6 7 7 6 6 4 3 4
16 14 14 13 15 20 20 20 22 12 4 3 3 5 6 3 1 2 3 1 2 4 5 5 3 3 3 3 2 2 3 2 2 2 2 4 5 2 3 2 3 4 4 4 4 4 5 6 5 4 3 3 3 3
10 8 14 17 19 22 22 30 13 4 3 2 4 3 4 1 2 2 3 3 2 2 2 3 3 3 3 2 2 2 1 2 2 2 3 4 3 1 3 3 4 4 4 4 4 3 3 2 3 3 3 3 2 3
14 8 12 21 24 22 35 14 5 3 4 4 3 2 2 1 3 2 2 1 2 1 2 2 3 3 2 2 2 2 3 2 2 3 1 3 3 2 3 4 4 6 5 5 4 4 3 2 3 3 1 2 2 3
10 11 17 22 29 31 7 4 3 3 5 3 3 3 3 2 3 2 2 2 2 2 1 2 2 2 3 2 3 2 1 2 2 2 3 3 3 2 6 5 6 6 6 5 4 4 3 3 2 2 2 0 1 2
12 12 18 35 32 9 3 2 3 3 4 2 2 2 2 1 1 2 2 2 2 2 2 2 3 3 3 3 2 1 1 0 1 3 3 4 3 3 4 4 7 7 8 7 6 6 5 5 4 4 4 3 2 3
13 11 31 44 30 5 3 2 2 3 3 3 1 0 2 2 2 2 1 2 2 2 3 4 4 3 3 2 2 1 1 1 1 3 2 2 3 3 5 8 9 8 7 7 6 7 6 6 7 7 7 7 5 5
25 25 28 21 5 6 2 2 2 2 2 2 2 2 1 1 2 1 1 1 2 3 4 4 4 3 3 1 3 2 2 2 2 2 2 2 2 4 6 7 8 7 8 7 7 10 11 13 9 7 10 10 8 7
8 9 5 6 4 3 3 3 3 1 2 1 1 2 1 0 1 2 1 1 3 3 4 3 2 2 1 2 3 4 6 7 9 8 9 9 3 2 3 7 6 6 12 15 16 14 16 13 10 11 11 10 9 8
10 5 5 3 4 3 1 2 2 1 2 1 1 0 1 1 1 2 2 3 3 3 5 4 3 3 3 4 5 8 8 9 5 7 9 10 13 14 13 14 11 12 7 17 16 18 18 14 11 11 12 11 11 10
7 4 3 3 3 3 2 2 1 2 2 1 2 2 2 2 1 0 3 3 3 1 1 3 4 1 2 2 2 2 3 5 8 11 11 10 4 10 12 14 13 14 17 16 11 10 11 14 12 12 13 13 13 13
4 2 2 3 1 4 3 3 2 2 2 3 3 3 2 0 2 1 3 3 2 2 2 2 2 2 2 2 2 6 4 5 3 2 9 5 9 10 11 12 13 15 12 12 15 15 15 12 13 16 15 16 15 14
3 1 3 4 1 3 4 4 4 4 3 4 5 1 0 2 1 5 3 3 3 3 3 4 4 2 2 7 2 1 1 2 4 3 9 6 6 7 3 3 3 9 7 13 17 14 14 14 14 15 17 17 15 13
4 2 0 1 2 3 3 2 2 2 5 6 3 3 2 2 4 4 3 3 3 4 4 9 15 10 6 6 9 7 7 7 9 11 15 16 17 16 15 12 8 11 8 8 9 12 15 15 16 17 19 18 17 15
2 2 5 3 2 1 3 2 4 6 4 3 3 3 7 7 4 3 4 5 6 5 6 8 12 15 18 20 15 14 15 13 13 15 18 21 21 18 17 20 22 21 21 20 19 18 16 15 15 16 15 16 14 10
2 1 3 3 2 2 4 4 4 3 2 3 4 3 3 3 3 3 3 6 7 8 10 13 18 18 20 21 21 20 19 17 7 4 6 5 4 13 6 7 7 7 8 10 12 15 14 13 12 11 10 8 7 7
2 0 3 2 4 3 2 2 1 2 1 1 1 3 3 3 7 10 14 18 14 14 18 17 18 17 16 16 17 23 20 19 22 19 6 7 8 8 5 5 8 11 14 13 10 7 7 7 5 6 6 5 5 4
1 2 2 1 2 1 1 2 3 2 3 2 2 2 3 4 10 9 8 7 7 8 9 10 13 10 11 14 10 6 8 10 8 14 21 24 24 23 22 19 17 14 10 9 8 8 12 10 9 8 7 6 6 7
1 2 2 3 0 1 3 2 0 1 3 2 2 2 3 3 3 3 4 9 6 6 4 8 10 9 11 13 14 15 18 21 23 21 18 17 17 16 15 14 13 10 8 9 8 8 9 8 7 6 5 4 5 5
2 1 1 2 3 3 3 3 5 5 3 3 3 1 2 2 5 3 4 6 6 9 13 16 17 16 16 16 15 14 14 16 17 16 14 13 12 12 12 12 10 8 8 8 8 8 7 6 5 4 3 3 4 6

GFSWCAN_925_spd_078.txt.gz
Wind_Speed
49 54 48 43 40 36 32 28 25 20 17 13 10 8 6 5 6 4 3 3 4 1 4 6 5 5 3 3 3 3 5 1 3 3 2 3 4 3 2 6 7 8 7 4 3 4 7 6 4 6 5 3 2 3
55 55 49 45 41 36 32 29 26 20 16 14 12 10 7 6 5 3 3 4 4 2 5 12 21 24 21 16 5 2 2 4 2 2 4 4 4 2 2 3 2 4 6 5 7 6 3 6 5 4 3 3 3 2
55 57 50 46 41 37 35 30 25 22 19 16 13 11 9 8 6 3 2 4 3 2 4 3 6 11 10 19 21 3 2 4 1 1 2 2 5 4 2 2 4 3 3 3 3 5 7 7 5 5 4 4 2 1
55 58 52 46 41 38 33 31 25 21 19 15 14 12 10 7 9 9 7 5 3 1 3 5 3 4 11 11 15 25 4 6 3 1 1 2 2 1 3 4 2 4 3 6 3 6 5 6 7 5 6 4 3 2
56 54 52 47 40 35 30 28 25 21 18 16 14 13 11 8 8 11 10 11 9 3 2 5 14 0 8 4 12 17 15 4 2 1 2 3 2 3 3 4 5 4 6 5 6 7 5 6 3 4 7 6 6 5
59 53 49 44 40 32 29 26 23 20 19 17 15 14 10 9 11 5 1 3 7 7 1 4 3 3 5 2 8 9 10 3 3 3 3 3 5 3 3 3 5 4 1 1 4 4 5 2 2 2 5 5 5 6
57 53 47 42 37 34 29 27 23 20 18 16 14 12 12 12 14 4 3 4 7 8 1 4 5 3 5 2 3 2 7 2 3 2 4 3 3 5 3 4 5 3 4 5 1 3 2 3 2 2 3 6 7 7
52 48 44 38 36 32 28 25 22 17 14 11 6 8 13 15 10 4 5 4 11 5 1 2 4 4 1 2 2 2 3 2 3 3 2 3 3 3 5 7 13 15 8 6 4 3 2 2 5 4 4 4 5 4
53 47 42 38 33 30 27 22 18 14 12 11 16 21 13 3 3 3 9 11 3 0 2 2 1 4 4 2 2 1 2 3 3 4 4 3 3 6 13 13 12 10 6 3 4 2 1 1 4 4 4 3 4 3
50 44 39 35 32 28 23 21 19 18 20 26 19 4 2 3 13 13 4 2 1 1 1 3 2 3 1 2 2 1 2 2 2 4 3 3 5 11 15 7 7 5 7 4 4 2 2 1 3 2 2 3 4 3
43 39 37 33 29 25 24 23 24 26 24 4 3 2 8 12 3 1 2 1 2 2 3 3 4 3 3 3 3 2 2 3 3 3 4 3 3 2 7 4 1 1 1 1 2 3 4 4 5 5 4 4 5 5
40 36 33 30 27 27 25 26 28 16 9 9 16 12 6 2 1 2 2 2 3 4 3 3 3 4 2 3 3 3 3 2 4 5 2 3 3 4 4 4 5 4 4 6 6 7 7 7 8 6 5 4 4 4
35 31 28 29 28 26 28 28 23 19 28 9 5 3 3 2 3 5 6 3 3 3 3 3 2 3 3 3 3 3 4 2 4 3 2 2 3 5 4 2 2 4 5 5 6 9 9 8 10 8 6 5 4 4
33 31 29 27 27 26 25 28 22 21 4 3 3 5 4 4 5 5 4 4 3 2 0 3 2 2 2 3 3 4 2 2 3 2 2 2 6 6 3 2 0 2 3 5 5 5 6 7 8 8 7 5 4 4
27 26 24 23 25 25 27 23 22 7 3 3 3 5 5 2 0 2 3 1 3 2 2 2 2 3 2 3 3 3 3 2 2 2 2 4 7 4 3 1 1 3 4 5 5 5 6 6 6 5 5 4 4 4
26 22 17 22 23 22 24 25 12 2 3 3 3 2 3 1 3 2 3 4 2 1 1 1 2 3 3 2 2 3 1 2 1 2 3 4 5 4 2 1 1 2 3 3 4 4 4 3 2 2 1 3 4 4
17 6 21 22 23 26 30 10 4 2 3 3 2 1 2 2 3 3 3 3 3 2 0 1 3 3 2 2 2 2 2 2 2 3 3 3 4 4 2 0 1 1 1 1 1 2 2 1 1 1 1 2 1 2
6 16 15 27 27 29 5 3 4 3 5 2 3 3 3 4 2 3 3 2 2 2 1 2 2 3 3 2 3 2 1 2 2 2 3 3 3 3 1 3 5 5 5 4 4 4 3 3 3 3 3 3 2 2
15 15 21 32 28 9 3 3 3 3 3 2 2 1 2 1 2 1 2 2 4 3 0 1 4 3 4 3 3 2 2 1 1 2 3 4 3 3 2 3 5 6 6 6 6 6 5 5 5 5 5 4 4 3
12 16 28 39 30 5 3 1 2 3 3 3 1 2 2 1 1 1 2 2 3 2 3 4 5 3 3 2 2 1 2 3 1 2 3 3 2 2 3 5 7 7 7 7 7 6 7 7 8 8 8 8 7 5
13 6 34 29 5 5 3 3 2 2 2 2 2 2 1 2 0 2 3 2 2 3 4 4 4 4 3 4 3 3 3 3 3 3 3 3 4 5 6 7 7 7 7 7 7 10 10 14 14 9 10 12 10 8
8 17 6 6 4 2 3 0 3 2 2 1 2 2 2 0 2 2 2 2 3 4 4 3 2 2 1 3 6 8 7 6 8 8 10 10 4 2 3 4 3 4 11 14 15 14 17 16 13 12 13 12 11 10
11 5 5 3 3 3 1 1 3 2 3 2 1 2 2 1 1 2 1 3 3 4 4 4 4 6 5 6 7 9 8 9 6 8 10 11 12 14 14 14 12 11 7 15 12 14 17 15 12 12 12 13 13 13
6 4 2 2 3 3 2 2 2 2 2 2 3 2 2 2 1 2 3 3 3 1 0 2 5 1 2 3 3 4 6 7 9 9 9 9 4 8 7 11 10 12 15 16 14 13 12 11 9 13 13 14 15 15
4 1 2 3 1 4 3 2 1 2 3 3 3 2 1 2 1 2 3 3 2 2 2 2 2 3 3 2 2 6 6 8 5 2 4 4 5 7 8 7 9 11 11 13 16 14 14 11 11 12 14 15 16 16
4 2 2 3 0 4 4 4 5 5 3 2 3 2 1 2 1 5 3 3 3 3 4 4 4 2 3 8 3 2 3 4 4 2 7 5 6 6 3 2 3 10 5 7 11 12 12 11 11 12 14 16 15 14
3 3 1 0 3 4 3 2 2 2 4 5 3 3 2 2 5 4 3 2 3 6 5 8 13 10 7 8 11 11 7 6 7 10 14 16 18 18 18 13 8 12 7 7 7 9 11 10 10 12 14 14 15 14
3 4 6 3 2 0 4 2 4 6 4 3 4 4 6 7 4 3 4 1 5 5 6 6 7 9 13 12 11 12 12 13 14 17 20 23 24 22 21 20 20 18 18 17 16 16 15 15 14 13 13 14 14 11
2 1 3 2 2 2 4 5 4 2 2 4 4 3 3 3 3 2 1 1 5 7 10 12 10 10 12 12 13 14 15 15 8 6 10 8 3 15 13 9 6 5 5 5 6 9 12 12 11 11 11 9 8 7
3 1 3 2 4 4 1 1 0 1 0 0 1 2 2 3 4 6 8 9 8 8 8 8 9 9 9 10 13 18 14 10 14 15 5 6 5 8 4 3 4 8 13 16 16 11 6 8 6 5 4 5 6 5
1 1 3 2 1 1 1 2 3 2 2 2 2 1 3 4 8 3 3 4 4 4 4 6 7 6 9 8 5 5 8 6 3 5 10 17 20 22 22 21 19 16 13 11 10 8 10 11 10 9 8 7 6 5
2 1 3 3 1 1 2 2 1 1 2 2 2 2 3 3 3 2 2 5 3 5 5 7 10 10 15 16 15 14 17 22 24 24 23 22 20 19 18 17 16 14 11 10 10 9 10 11 9 8 8 6 5 5
2 1 1 2 2 2 1 2 4 4 2 2 2 1 2 2 5 3 1 5 8 9 13 19 20 21 20 18 16 15 14 15 17 18 17 16 16 15 15 14 14 14 12 11 10 10 9 9 9 8 6 5 4 4

GFSWCAN_925_spd_081.txt.gz
Wind_Speed
53 56 55 56 50 46 42 38 34 30 25 21 18 15 12 12 9 7 8 8 5 2 2 7 5 4 1 2 2 3 4 2 3 1 2 3 2 2 1 3 4 8 7 3 4 3 8 7 5 7 5 2 3 3
53 58 57 58 53 48 44 39 34 31 27 23 20 16 13 12 10 7 5 4 2 3 4 9 13 16 14 14 1 2 2 1 2 1 2 2 2 3 5 2 3 2 4 4 7 6 2 6 4 6 4 3 3 3
55 59 61 58 53 48 45 40 35 32 28 23 20 17 14 12 9 5 10 7 3 2 2 2 1 2 4 12 17 3 2 3 1 2 1 2 4 0 3 1 3 2 4 2 1 5 6 6 4 4 6 5 3 2
56 58 61 59 55 51 47 41 38 33 27 22 19 17 13 11 10 6 5 8 4 3 2 5 3 6 5 7 12 23 4 4 4 1 2 2 3 2 3 3 2 3 4 2 5 6 5 5 7 6 5 6 4 2
57 62 61 62 57 52 48 44 39 33 28 23 21 17 13 10 8 14 7 9 5 2 1 4 8 1 7 3 6 13 10 2 1 1 2 3 3 1 3 3 6 5 5 3 4 4 3 5 2 4 7 7 7 5
60 63 62 59 55 52 48 43 36 31 26 22 19 15 12 11 14 8 1 1 10 5 1 3 3 2 4 2 4 6 7 2 2 2 3 3 5 3 2 3 6 8 2 4 4 4 5 5 4 1 3 4 4 4
61 62 61 56 53 50 45 40 35 30 26 23 19 15 12 14 13 3 3 10 10 8 2 3 4 2 3 1 2 2 5 2 2 2 3 3 3 5 3 5 9 4 3 4 6 4 5 3 2 1 3 6 10 8
62 60 62 57 53 46 43 39 35 31 26 22 18 14 14 15 10 5 8 12 8 7 1 0 3 3 1 1 1 3 2 2 3 2 1 2 1 3 5 9 11 17 9 7 8 5 4 1 4 3 4 4 6 6
63 63 60 54 53 50 46 39 34 29 25 24 22 23 15 5 4 5 11 8 6 3 2 1 1 3 3 2 1 2 2 2 3 3 3 2 3 5 9 9 8 7 5 5 6 5 5 2 4 3 4 4 5 4
65 64 60 57 53 50 43 38 33 31 31 32 22 5 3 5 18 15 4 1 1 1 1 1 1 2 1 2 2 2 2 2 2 3 3 2 4 11 10 8 7 7 5 5 3 4 4 3 5 4 3 3 4 5
69 66 62 57 51 45 39 37 38 41 36 8 4 3 9 15 3 2 2 1 2 1 2 3 4 2 2 2 2 2 2 2 1 3 2 3 3 3 7 7 5 3 4 2 3 3 4 2 6 6 5 4 6 5
69 63 55 48 43 42 43 44 48 19 12 11 22 17 7 2 1 2 1 1 2 3 2 3 3 4 2 2 2 3 3 2 5 3 1 3 2 7 5 5 6 5 3 5 6 5 6 6 6 7 6 6 6 6
58 50 44 41 42 44 45 43 25 36 39 15 6 4 3 2 3 6 6 3 2 3 3 3 2 2 3 3 3 3 4 3 4 2 3 1 4 6 6 4 4 4 4 4 4 6 8 10 13 10 8 8 7 7
51 48 46 45 45 44 42 31 40 23 8 3 4 6 4 4 4 4 4 4 3 3 4 1 1 2 2 3 3 3 3 2 2 2 3 2 7 8 5 3 3 3 3 3 4 6 7 9 9 11 9 7 7 6
47 45 43 42 40 39 33 36 27 6 4 3 4 4 5 2 1 1 2 2 1 2 1 1 1 2 2 3 3 3 2 2 2 2 2 4 7 5 5 3 3 2 3 4 5 6 6 6 6 6 5 5 5 5
43 37 34 39 37 35 32 30 8 3 3 3 2 3 2 2 1 1 2 2 2 3 1 1 1 2 3 3 2 4 2 3 2 2 4 5 5 5 4 3 2 3 5 4 3 3 3 3 3 3 3 4 4 4
19 13 31 32 35 33 26 7 4 3 3 3 1 1 3 2 3 3 3 4 5 3 2 2 2 5 3 2 3 3 3 2 1 1 2 3 4 4 4 2 1 3 5 4 2 1 1 1 2 2 2 2 2 3
23 34 33 32 38 23 6 4 3 2 3 2 3 3 2 2 2 2 3 3 3 2 2 4 1 2 4 3 3 3 2 2 2 2 2 3 4 5 4 3 3 3 4 5 3 3 2 1 1 2 2 1 2 2
33 34 35 37 26 7 3 2 3 3 3 1 2 1 2 1 0 0 1 4 3 3 2 1 4 4 5 3 3 2 2 2 2 2 2 3 3 4 5 4 5 7 8 6 5 7 6 6 6 5 4 4 4 3
23 33 30 29 17 4 3 2 2 3 2 1 2 2 2 2 1 1 2 2 2 2 4 4 6 4 4 3 3 2 2 2 2 2 3 2 3 4 5 6 7 7 7 7 9 7 8 9 10 10 8 7 7 7
21 26 29 22 4 6 3 2 2 2 2 2 1 2 2 1 1 2 2 2 2 3 3 5 6 4 4 3 4 5 4 5 3 4 3 3 4 5 10 12 10 7 6 7 7 10 11 14 14 9 9 10 10 9
8 17 7 5 4 3 3 4 3 2 2 2 2 2 2 1 1 1 1 2 3 4 4 3 3 3 3 4 6 12 10 6 7 9 9 9 3 2 3 6 4 5 8 11 12 12 16 16 14 12 12 13 11 12
12 7 5 3 4 3 1 2 3 3 3 2 2 2 1 1 1 2 1 3 4 4 4 4 4 4 3 4 5 7 7 7 6 10 10 8 10 12 14 13 11 11 8 14 12 13 14 11 9 11 13 12 12 13
8 4 3 3 3 3 2 2 2 2 3 2 3 3 2 2 1 2 3 3 3 1 2 3 6 0 1 2 2 4 9 9 8 8 9 9 5 6 6 9 10 11 14 17 15 13 13 13 10 10 12 13 14 15
4 2 3 3 2 4 3 2 1 2 3 3 3 2 2 1 1 2 3 3 2 3 2 2 3 2 3 2 2 5 7 9 8 3 3 6 6 8 9 9 11 13 11 11 13 12 12 10 9 10 11 13 15 15
4 2 3 2 2 3 4 4 4 5 4 2 4 1 2 3 1 6 3 3 3 3 3 4 4 2 2 6 3 2 7 12 10 4 4 5 6 7 4 3 4 13 8 6 7 8 8 7 8 9 11 12 12 13
4 3 1 1 3 4 3 2 2 3 4 5 4 4 3 3 5 4 3 2 2 3 1 2 8 8 5 4 9 10 5 7 8 7 11 14 16 18 19 15 11 16 9 8 8 8 10 10 9 9 10 10 10 11
2 3 5 3 2 1 4 3 5 7 4 3 4 4 6 7 4 3 3 2 3 3 4 4 3 4 7 7 8 9 9 10 13 17 21 24 26 25 24 23 22 20 20 19 17 14 14 14 15 14 14 14 11 8
1 1 4 2 1 2 4 5 5 3 2 4 4 3 3 3 2 1 2 2 4 7 6 6 4 6 4 4 5 5 7 10 4 4 6 5 3 11 12 11 9 6 6 5 5 7 9 11 10 11 11 11 8 6
2 2 3 2 4 4 3 2 1 1 0 1 1 2 2 2 2 5 7 6 4 3 4 4 5 7 7 9 12 13 9 8 9 11 3 5 6 13 16 16 15 14 15 16 18 17 11 10 9 6 4 4 5 4
2 2 3 2 2 1 1 1 2 2 2 2 2 1 3 3 6 2 4 3 4 6 6 8 6 8 7 7 6 6 8 5 3 8 15 21 25 27 28 24 20 16 15 14 14 14 11 12 14 11 8 6 5 4
2 2 3 2 1 1 2 1 1 1 2 2 1 1 2 2 3 2 3 5 5 7 4 9 12 11 13 14 14 13 14 18 19 20 22 21 21 21 20 18 15 15 16 14 12 12 13 13 12 11 10 9 8 6
2 2 0 2 2 0 1 2 3 2 1 1 1 1 1 1 4 3 0 2 2 4 10 14 14 16 14 11 10 7 7 9 15 16 17 18 18 19 20 17 15 14 13 13 13 12 12 12 12 10 9 8 7 6

GFSWCAN_925_spd_084.txt.gz
Wind_Speed
31 36 29 57 60 59 53 48 44 41 37 32 29 26 21 19 16 8 14 10 4 2 3 7 5 4 3 3 2 2 3 2 2 1 2 3 3 3 3 0 2 6 5 4 6 4 10 7 7 6 2 2 2 3
29 34 35 59 64 61 54 49 45 42 37 34 30 27 23 18 16 11 8 10 7 4 3 5 7 5 6 6 2 2 2 1 1 1 1 2 2 3 3 2 2 4 3 2 6 4 2 10 4 8 3 1 2 3
24 29 19 63 63 60 56 51 47 44 39 35 31 28 23 19 13 14 18 12 6 2 3 2 2 1 2 9 12 3 2 1 2 1 1 1 4 2 3 2 3 2 2 3 2 4 8 6 8 6 6 9 4 4
24 28 24 62 59 62 57 54 51 45 40 36 32 30 26 20 17 17 12 9 6 3 2 3 2 1 1 3 8 15 3 4 3 1 1 2 3 1 3 4 4 3 3 2 7 10 9 10 11 10 8 8 7 3
26 29 28 61 60 62 58 54 50 45 40 37 33 30 27 22 19 15 11 8 3 0 1 2 1 2 2 2 4 8 9 4 1 2 3 3 2 3 3 5 9 8 8 5 3 6 8 7 9 6 7 7 7 5
26 30 48 63 65 59 57 55 50 44 40 35 31 28 25 21 17 9 2 7 6 3 3 2 2 1 3 4 4 6 7 4 2 2 2 3 3 3 3 4 6 11 15 10 7 7 10 14 10 6 5 4 5 5
26 24 62 63 65 61 58 54 49 43 39 35 30 26 24 23 18 4 1 9 13 5 2 2 1 1 1 1 2 2 4 1 2 2 3 3 4 5 3 5 5 5 4 8 10 9 7 5 5 5 2 3 6 7
31 29 63 62 64 63 57 53 48 42 38 34 29 26 26 20 16 8 12 12 12 7 3 2 1 1 1 2 2 3 2 2 3 2 2 3 2 3 5 11 12 11 9 14 14 9 10 10 6 3 2 6 6 5
28 56 65 66 65 62 58 54 49 44 40 37 33 31 20 6 4 7 14 7 5 1 3 2 2 2 2 1 1 2 2 3 2 3 2 2 3 6 11 11 14 12 6 10 12 7 7 7 5 3 3 4 6 5
49 65 65 65 63 60 58 54 52 47 43 40 27 6 3 5 21 16 2 0 2 2 1 2 2 1 2 1 1 1 2 2 2 2 3 3 5 11 12 8 10 14 12 6 9 8 8 4 4 3 3 2 3 5
64 65 66 67 66 64 61 58 53 48 41 10 4 3 16 20 4 2 2 1 2 1 3 2 3 1 2 1 0 1 1 2 2 1 2 2 3 2 7 8 7 7 6 7 8 8 7 8 5 5 5 4 6 6
65 68 70 67 67 64 60 56 55 24 14 13 21 17 6 2 2 3 2 2 3 3 4 3 3 4 2 2 2 2 2 2 3 5 2 3 2 6 7 8 7 7 3 2 1 1 2 3 7 8 7 5 6 6
73 74 72 70 67 61 56 52 33 39 48 17 5 4 3 2 3 7 7 4 3 5 5 4 3 3 3 2 2 2 3 3 4 2 2 3 4 7 7 6 6 6 5 3 4 4 7 10 10 9 8 6 6 6
69 70 73 64 60 58 51 37 47 24 9 3 4 5 5 4 5 5 4 4 2 4 6 5 2 2 2 3 2 3 3 3 2 2 2 2 9 9 8 5 4 5 4 2 3 5 7 8 8 8 7 6 5 5
68 66 61 58 55 49 49 38 19 9 4 4 4 5 6 2 3 2 2 4 2 5 4 3 1 1 2 2 2 3 3 3 2 2 2 3 8 7 6 4 4 3 3 4 4 5 6 6 5 5 4 3 3 3
61 57 50 51 51 46 36 23 12 5 5 3 2 3 3 3 2 3 2 3 2 4 2 2 2 2 3 2 3 5 2 3 1 1 1 4 6 6 5 3 2 4 5 6 5 3 3 2 1 1 2 2 2 2
37 36 47 47 41 35 24 7 7 4 3 3 2 2 3 2 3 4 4 4 6 4 3 3 4 3 1 2 3 3 3 1 1 2 1 3 5 5 5 3 2 4 4 2 3 4 1 0 1 2 2 2 2 2
44 46 44 42 39 21 8 6 3 2 3 2 2 3 2 2 4 3 2 3 3 2 3 4 2 3 4 4 3 2 2 0 0 3 2 2 3 3 3 4 3 5 4 2 5 8 5 4 3 4 3 3 3 3
43 44 43 36 20 7 3 2 2 3 2 2 3 1 2 2 2 3 3 6 2 2 4 3 3 4 4 3 4 2 2 2 2 2 3 4 4 3 2 2 4 6 8 7 6 8 8 8 7 6 6 5 5 5
37 44 34 18 5 5 4 2 3 3 2 2 2 2 3 2 2 1 3 2 2 2 2 4 6 4 3 2 2 1 2 3 2 2 3 2 4 4 5 4 5 6 8 9 10 10 10 10 11 11 11 10 9 8
31 26 20 8 6 9 3 1 2 2 3 2 1 2 3 1 2 2 2 1 1 3 4 5 5 5 3 3 3 2 4 5 4 3 2 2 3 6 9 12 11 9 7 6 7 8 10 11 14 9 10 12 13 12
10 19 7 6 5 4 4 5 2 2 2 2 3 2 2 3 3 2 1 2 3 4 4 3 3 3 3 5 7 11 12 11 11 7 6 7 4 3 3 7 7 6 8 9 9 9 12 15 12 12 13 14 12 13
13 9 4 3 4 4 1 2 3 2 3 3 1 2 1 1 1 0 2 3 4 4 4 3 3 4 3 3 4 7 7 8 6 7 8 8 8 8 10 9 8 8 7 10 9 10 11 10 8 8 10 11 11 11
7 4 3 3 3 3 1 2 2 3 2 2 3 3 1 1 1 1 3 3 3 1 2 3 4 1 1 3 3 6 13 13 10 8 9 6 3 5 5 8 9 10 12 14 13 12 12 12 10 9 9 9 9 11
3 3 3 4 2 4 3 3 2 2 2 2 3 1 2 1 1 2 3 3 2 2 2 2 2 3 3 2 3 6 7 13 9 4 5 9 4 5 7 8 12 13 10 10 10 8 8 8 8 9 9 9 10 11
4 2 2 3 2 3 4 4 5 4 3 3 2 1 1 2 1 5 3 2 2 1 2 3 3 2 3 8 2 1 2 10 7 3 4 8 9 8 4 4 5 13 12 9 9 8 8 6 7 7 9 10 10 12
4 3 1 1 3 4 3 2 2 2 3 5 4 4 3 3 4 3 2 2 1 1 2 3 10 8 3 2 3 3 7 8 12 8 6 9 12 15 16 13 12 15 14 13 12 12 12 13 13 12 11 10 10 11
2 3 6 4 2 0 4 2 4 5 4 3 5 3 7 7 3 2 2 3 1 2 1 1 2 3 4 3 3 5 5 7 10 14 17 20 20 16 13 11 13 15 16 17 17 18 17 17 16 16 15 15 14 11
2 2 3 3 2 1 3 4 5 3 3 4 4 3 3 2 1 2 3 4 5 6 2 3 3 3 4 2 2 3 5 5 3 2 3 4 3 9 6 9 11 11 10 7 5 6 8 11 13 14 15 14 11 9
2 1 3 2 4 3 2 1 1 1 1 1 0 1 2 2 1 3 6 4 2 4 5 5 5 7 6 7 10 10 7 7 6 7 3 4 6 17 24 25 23 20 18 18 19 20 18 16 13 15 9 7 6 6
1 2 3 3 1 1 0 2 2 2 2 2 2 1 2 3 4 1 1 2 5 6 5 6 4 5 4 6 5 7 7 3 2 9 16 19 21 22 22 23 22 21 19 19 18 16 15 13 13 15 13 11 9 8
2 2 3 3 1 2 2 2 1 1 2 1 1 1 2 2 2 2 1 5 4 2 3 6 6 5 8 10 9 10 12 15 15 14 17 19 21 21 21 20 19 19 19 18 16 16 16 15 14 15 16 14 12 11
2 2 3 2 2 1 0 3 2 1 0 1 1 1 1 1 4 3 3 4 0 4 7 9 10 12 11 8 8 7 7 9 15 17 18 18 17 19 19 20 18 15 16 17 16 14 14 14 14 14 14 13 12 11

GFSWCAN_925_spd_087.txt.gz
Wind_Speed
24 22 25 17 29 38 60 57 51 49 43 38 34 31 29 26 22 15 11 9 2 3 4 3 3 3 2 2 1 3 2 3 2 2 1 2 3 3 4 3 1 5 4 4 7 3 8 10 8 5 3 3 1 3
25 20 22 24 23 16 61 59 54 49 44 41 37 32 27 25 17 20 8 12 10 5 4 4 3 3 2 0 1 2 3 1 2 2 2 3 3 3 3 2 1 3 3 2 5 2 5 8 5 4 7 5 2 3
23 21 21 26 22 24 57 60 56 51 47 42 37 33 27 26 15 8 17 14 7 4 4 3 3 2 1 3 6 2 2 1 2 2 2 2 4 2 3 3 3 3 2 3 7 2 5 5 7 8 6 7 4 4
22 22 23 26 27 24 57 58 57 53 47 41 37 33 27 20 19 21 13 10 8 4 3 3 3 1 1 2 6 7 4 3 3 1 1 2 3 1 3 6 7 8 2 3 8 15 12 8 6 10 10 8 7 6
24 22 21 22 27 56 58 58 56 53 48 43 37 34 29 27 22 23 21 12 9 1 3 4 6 2 1 2 5 8 7 2 1 2 3 2 2 3 5 6 8 7 8 9 6 5 8 10 11 15 10 8 7 6
25 22 22 26 21 60 59 60 56 52 48 44 39 34 30 26 24 6 3 3 4 4 3 4 4 5 4 5 6 8 7 4 2 2 2 2 4 3 3 4 5 8 9 10 13 11 12 13 13 11 9 9 5 4
27 27 21 25 39 59 63 59 57 53 47 44 38 33 27 21 9 6 3 7 9 4 2 4 4 3 4 5 4 3 5 1 1 2 2 2 2 3 3 4 4 8 9 11 9 10 9 6 7 13 10 7 2 5
27 25 21 16 58 60 62 60 58 53 48 43 38 32 25 21 16 11 13 11 7 5 2 3 3 4 5 3 3 3 3 2 3 2 1 3 2 3 5 11 11 13 14 10 10 6 11 11 13 11 7 4 3 4
29 27 30 40 61 63 62 59 56 55 50 44 41 34 17 5 4 6 10 6 6 4 2 2 5 3 3 2 2 2 1 2 3 2 2 2 3 6 11 11 13 14 12 11 7 6 7 6 12 10 5 3 4 4
26 24 16 59 63 65 62 59 59 53 51 48 31 6 3 5 22 14 3 1 2 2 0 2 2 3 3 3 3 3 3 1 2 3 3 3 5 12 9 7 9 10 12 12 9 8 6 5 8 7 5 2 2 3
30 33 39 63 66 66 64 60 60 59 48 16 4 3 20 17 4 0 2 0 1 2 3 2 3 3 1 3 2 3 1 2 2 3 3 2 3 1 6 8 6 9 9 9 10 9 8 7 8 7 2 3 4 4
34 27 64 69 71 67 66 67 63 30 16 13 22 17 7 2 2 2 2 2 4 4 4 5 4 2 3 1 2 3 2 2 3 5 2 3 0 5 8 8 7 7 8 6 6 4 6 6 5 2 3 5 6 6
25 65 66 70 70 70 70 59 38 38 46 16 6 4 3 2 2 5 7 4 4 6 6 4 4 4 3 2 2 2 3 3 3 3 3 1 3 7 8 6 6 7 6 5 4 5 7 7 7 6 5 6 7 6
62 69 72 72 71 67 53 50 45 31 7 3 4 6 4 4 5 5 3 3 3 5 9 7 5 3 3 3 2 3 3 2 3 3 2 2 6 7 7 7 5 6 5 3 3 5 4 4 6 7 7 6 5 4
70 73 75 72 66 58 54 46 33 8 5 4 2 4 4 3 2 2 3 4 3 7 7 5 3 2 3 2 3 1 3 4 3 2 2 2 5 5 5 5 5 4 4 4 5 5 4 4 5 4 4 3 2 1
69 65 59 62 61 56 49 32 8 5 4 3 3 4 3 4 3 3 5 7 5 6 4 1 3 4 3 3 4 5 3 4 2 1 2 3 4 5 4 3 2 2 2 3 6 4 2 1 1 1 1 1 1 1
53 26 59 54 47 43 30 11 5 5 3 3 2 1 2 1 5 4 7 7 8 5 3 3 5 3 3 3 3 3 4 1 3 1 1 3 4 4 3 2 1 3 2 2 1 2 5 3 2 2 3 3 2 2
55 53 52 44 38 28 9 9 4 3 3 2 3 4 2 2 6 5 4 6 5 3 3 2 3 3 4 4 3 2 2 2 1 1 2 2 2 1 1 2 1 4 6 6 6 6 8 6 6 6 6 5 5 5
50 47 39 29 17 9 3 3 3 3 3 2 3 3 3 4 4 5 5 7 3 3 4 2 3 4 4 3 1 2 2 3 2 3 3 4 5 4 1 2 2 4 7 10 11 10 10 9 11 10 8 7 8 6
43 35 26 14 12 6 4 2 2 3 3 3 3 3 3 3 2 3 5 3 2 1 2 4 5 5 2 1 1 1 1 2 2 3 3 2 4 4 4 4 5 7 7 8 12 12 11 10 14 15 14 13 11 11
25 18 16 18 7 9 3 2 3 2 3 3 3 2 3 2 2 2 2 1 2 3 4 5 5 5 2 2 1 2 3 5 4 3 1 1 1 3 5 7 7 8 6 7 7 8 9 10 12 12 12 14 15 15
10 13 8 8 5 4 4 5 3 3 2 3 3 2 3 3 3 2 1 2 3 4 4 2 2 3 4 4 6 10 9 6 7 6 4 3 3 2 2 4 3 3 6 8 9 10 11 12 13 12 12 14 12 14
14 8 6 5 4 4 2 1 2 2 3 4 2 3 2 2 1 1 2 3 4 3 2 1 1 3 3 3 4 6 7 8 7 8 7 6 5 7 7 6 5 5 5 8 6 8 11 10 10 10 10 9 10 11
8 5 4 3 3 3 1 2 2 3 3 2 3 4 3 2 1 2 3 3 3 0 2 3 3 2 2 3 4 6 9 11 6 5 7 5 3 5 6 5 5 6 9 13 13 11 12 13 10 11 10 10 9 10
4 3 2 4 1 3 3 2 2 2 2 2 3 2 2 2 2 2 3 3 2 2 3 3 3 3 2 2 2 3 5 9 7 3 5 10 7 5 6 7 7 7 8 8 10 10 10 11 10 9 9 9 10 11
4 1 1 3 2 2 4 4 4 3 3 3 2 2 1 2 1 5 3 2 1 1 1 3 3 3 2 3 1 2 2 4 6 4 4 10 12 6 2 2 3 7 6 7 9 11 12 12 11 10 11 10 10 11
4 2 2 2 3 4 3 2 2 2 4 4 4 4 3 3 5 3 0 0 0 1 1 1 2 1 1 2 2 3 4 3 7 5 5 4 6 8 11 9 8 9 15 19 18 15 14 14 14 15 15 16 14 12
3 3 5 4 2 1 4 3 4 5 3 3 6 4 6 5 3 1 1 1 1 2 2 2 2 1 0 1 3 4 4 4 6 10 13 15 14 12 11 8 6 8 12 12 12 12 13 16 17 17 15 15 14 12
2 3 4 3 2 1 2 3 4 1 3 4 3 3 3 2 1 1 1 2 4 2 1 3 5 5 6 4 4 6 6 6 6 3 5 5 2 4 4 9 15 18 18 19 16 12 10 11 12 14 15 15 15 13
3 1 3 2 4 2 1 1 1 1 1 1 1 1 1 1 1 2 3 3 1 4 6 5 4 6 5 7 8 9 7 7 6 5 3 4 6 16 23 24 22 20 18 17 19 20 18 16 18 16 15 15 11 9
2 2 3 2 2 1 1 2 2 1 1 0 1 1 1 2 2 1 0 3 7 8 5 5 5 6 7 8 7 7 4 4 3 6 13 16 17 19 21 21 20 20 19 18 17 17 17 17 15 13 12 15 14 11
2 2 3 3 2 1 1 1 1 1 0 2 1 1 1 1 1 1 2 7 6 4 4 4 6 6 8 11 12 13 14 16 15 13 15 17 20 21 21 19 20 19 21 21 19 18 17 17 17 14 13 14 15 14
2 1 1 3 3 3 3 3 1 1 0 1 1 2 2 2 3 1 2 7 3 2 2 6 8 11 13 13 11 10 10 10 12 15 16 17 18 19 20 20 17 22 18 17 19 19 18 17 17 16 16 14 13 12

GFSWCAN_925_spd_090.txt.gz
Wind_Speed
24 18 17 17 17 18 17 28 37 52 45 46 41 36 32 31 31 24 7 7 3 3 3 4 2 4 3 0 0 3 2 2 2 1 1 1 2 4 3 2 2 5 4 4 4 3 4 3 3 2 1 2 2 2
24 18 17 17 16 17 21 23 47 48 43 40 34 31 32 30 32 20 6 13 12 7 3 10 14 11 10 8 2 2 1 2 3 1 1 1 2 1 5 3 2 2 2 3 3 1 3 4 3 5 5 2 3 3
23 17 17 18 18 14 20 38 48 48 42 37 35 33 33 32 28 14 17 15 9 4 3 3 4 8 7 4 1 2 1 3 3 2 1 1 1 1 2 2 4 2 3 3 5 3 4 9 5 9 8 5 4 4
24 18 18 19 18 18 17 15 49 48 41 40 37 35 32 27 20 19 15 10 9 3 4 3 5 6 5 6 5 7 6 5 5 2 1 1 1 3 3 4 2 3 5 3 5 10 9 6 9 10 10 8 4 3
25 21 21 19 17 16 25 21 51 51 42 41 35 34 30 23 23 24 21 11 10 3 3 3 8 4 5 4 6 6 5 4 1 1 0 2 1 2 3 3 3 3 3 3 4 5 4 6 14 11 10 7 8 5
27 23 21 22 16 18 22 52 54 55 45 41 37 32 31 30 31 9 3 6 8 8 4 3 3 4 6 8 8 7 6 2 1 0 1 1 2 1 2 3 5 3 5 4 4 4 4 9 8 7 8 9 7 5
29 26 21 23 15 21 36 56 54 54 48 44 39 37 31 21 10 8 4 10 10 9 3 3 3 2 7 7 3 3 3 2 1 1 1 1 2 2 2 3 5 6 8 10 11 6 6 4 5 8 7 7 6 7
30 26 23 27 18 20 62 57 56 52 50 49 43 33 25 27 19 13 17 12 8 8 3 3 3 3 7 3 2 2 2 1 2 1 0 2 1 3 4 10 11 8 10 10 11 7 6 7 5 7 8 5 3 2
31 26 27 23 21 44 62 64 60 57 52 47 41 34 16 8 4 6 12 10 11 6 3 2 5 3 4 3 3 1 1 2 2 2 2 2 3 5 7 7 8 8 7 9 11 10 7 5 6 6 5 6 4 4
32 29 29 30 22 62 65 64 61 58 54 48 29 7 3 5 25 12 4 2 3 3 2 2 2 3 3 4 2 3 2 1 2 3 3 3 4 10 4 6 6 7 9 8 7 7 5 7 6 6 5 4 4 5
32 30 26 15 63 66 66 65 62 61 50 16 3 3 17 13 4 2 2 1 1 1 2 2 3 4 1 3 3 2 2 2 2 3 2 2 3 1 4 6 5 6 8 7 5 6 5 5 7 5 3 4 4 7
30 26 20 49 69 69 68 67 67 36 15 14 22 18 7 3 2 4 2 2 2 3 3 3 2 3 2 2 2 3 2 2 3 4 2 3 2 1 3 8 6 5 7 7 5 4 6 6 7 4 6 8 9 8
28 26 27 66 70 70 70 68 41 45 53 17 6 4 3 1 3 6 7 3 3 4 3 3 5 3 2 1 2 3 3 2 4 2 3 3 3 3 4 7 5 6 7 5 2 4 5 5 9 8 8 6 4 4
19 14 62 71 72 71 65 50 55 31 16 3 4 5 4 4 3 3 3 4 2 5 8 7 5 3 2 3 2 3 4 3 3 3 5 2 2 1 3 3 4 5 5 4 3 3 3 4 6 6 5 4 2 2
28 36 67 70 70 63 59 50 37 25 5 3 2 4 3 3 4 3 2 3 2 7 7 4 3 3 2 2 2 1 3 4 4 3 2 2 2 1 1 3 3 3 2 3 4 4 5 6 5 5 4 4 4 4
45 64 64 68 65 54 49 41 22 5 4 3 4 4 4 3 2 1 3 5 4 5 3 3 3 3 3 3 3 5 3 5 3 3 3 2 1 2 2 1 2 0 1 2 4 4 4 4 4 4 4 4 3 2
57 27 68 63 56 51 41 21 5 5 3 3 3 3 2 3 4 4 6 6 6 3 2 3 5 6 1 3 3 3 4 2 3 2 2 4 2 0 1 2 3 4 3 3 3 2 2 6 6 5 5 4 4 4
47 57 63 59 52 38 20 7 4 3 5 3 3 3 2 2 6 6 4 5 3 2 3 4 3 4 4 4 3 3 2 3 1 2 3 3 3 2 3 3 2 5 7 7 6 5 5 5 5 7 7 7 7 7
51 54 54 47 35 12 4 4 4 4 3 2 3 2 2 3 3 4 4 4 4 4 4 1 3 3 3 3 2 0 1 2 3 3 2 5 7 7 5 3 3 5 6 9 10 10 12 10 11 11 11 9 10 9
50 43 37 31 17 6 5 3 3 4 3 2 2 3 2 2 1 3 5 2 2 2 1 3 4 3 3 2 1 2 1 2 2 1 3 3 6 8 6 5 5 6 8 11 12 12 12 12 12 13 14 15 13 15
41 29 31 23 8 12 4 3 3 2 3 3 3 2 2 1 2 3 3 0 2 2 3 3 3 3 2 5 5 2 2 4 4 3 2 1 4 4 4 5 6 7 6 7 6 9 10 11 13 11 11 12 14 14
17 25 11 10 5 4 4 7 3 2 2 3 2 2 4 3 2 2 1 1 2 3 3 2 2 2 2 2 3 7 9 7 9 7 2 3 1 1 3 3 2 3 7 9 11 11 13 12 11 10 11 12 11 12
14 8 7 5 5 4 3 2 3 2 3 2 1 3 2 2 1 1 1 2 3 2 1 2 2 2 0 2 4 7 7 9 6 7 8 7 8 7 6 5 4 6 8 9 6 8 12 11 10 9 9 8 10 11
10 6 4 3 3 3 2 2 2 3 3 2 2 3 2 2 1 1 3 3 3 1 1 1 2 1 1 1 2 4 11 11 9 6 5 5 3 6 8 6 4 5 7 11 12 11 11 11 8 9 9 9 8 10
5 3 3 4 2 4 4 4 2 2 3 2 3 2 2 2 2 2 3 3 1 1 1 3 2 2 1 2 2 2 3 8 8 3 9 11 9 3 3 4 4 5 6 8 9 12 14 13 11 10 9 9 9 9
5 3 3 2 2 2 3 4 3 4 3 3 2 2 2 2 2 4 3 2 2 1 2 3 3 1 2 5 1 2 4 3 6 3 1 6 9 6 3 2 1 6 4 5 10 14 17 17 15 15 14 12 10 11
4 2 2 1 2 3 3 3 2 3 3 4 4 4 3 3 5 3 0 1 1 2 1 1 0 1 2 2 2 0 2 1 6 3 2 1 1 5 7 6 5 6 11 12 11 11 14 16 16 17 18 19 17 16
3 2 4 2 3 2 4 3 3 4 3 2 4 3 8 7 4 2 1 2 3 3 3 3 2 1 1 1 1 2 1 3 3 4 5 5 7 6 4 3 2 5 11 13 13 14 14 14 15 16 16 17 17 13
2 2 3 3 2 2 2 3 3 1 2 3 4 3 3 1 1 1 1 1 3 2 2 2 3 6 5 5 4 5 4 5 5 2 2 3 2 2 3 9 16 18 17 17 15 14 14 16 18 19 19 19 18 17
2 0 3 2 3 1 1 2 2 1 2 2 1 1 1 1 0 1 1 1 1 2 4 4 3 3 3 3 3 4 5 5 2 3 3 3 4 13 18 17 17 17 15 15 16 19 18 17 16 16 16 19 19 18
1 1 3 3 3 1 1 1 1 2 2 2 2 2 1 2 3 1 1 1 5 7 5 3 2 2 2 4 4 5 3 2 2 6 11 11 12 16 18 20 19 17 18 19 18 18 18 19 19 19 18 16 16 15
1 2 3 3 1 1 1 2 1 2 2 2 2 2 3 3 2 2 3 10 9 5 4 2 0 1 6 7 8 8 8 10 10 9 11 14 17 19 20 21 21 21 20 19 21 21 19 19 20 20 20 18 17 16
2 2 3 3 2 1 1 3 3 2 3 2 2 1 0 2 4 3 5 11 8 6 5 2 4 6 8 8 6 5 5 6 8 11 13 14 15 16 17 18 17 19 20 20 18 18 18 18 18 18 18 18 17 16

GFSWCAN_925_spd_093.txt.gz
Wind_Speed
27 26 24 23 18 19 19 21 20 22 24 41 46 45 45 43 47 24 7 2 3 3 3 5 4 4 3 3 4 4 3 2 2 2 3 2 1 2 2 2 4 6 4 3 3 2 5 6 4 2 3 4 1 1
29 28 25 22 18 18 19 20 21 13 40 46 41 36 42 39 38 22 6 7 10 5 3 13 17 14 6 3 5 2 4 2 3 3 1 2 1 3 0 2 5 0 1 1 3 3 1 10 12 6 5 3 4 3
32 30 27 24 20 19 20 20 16 22 47 47 46 37 37 35 35 23 14 17 9 4 4 5 3 10 8 10 7 4 1 3 3 3 3 2 1 3 1 3 3 2 1 2 3 2 2 1 8 9 6 5 7 2
34 33 28 24 20 17 18 14 19 43 45 45 41 36 35 34 30 24 16 14 5 4 4 0 2 6 6 9 14 12 7 7 6 3 2 2 1 2 2 3 2 4 3 2 4 7 7 4 6 7 11 10 11 9
38 35 28 24 20 16 15 5 41 45 45 43 37 34 32 32 29 20 17 9 5 3 4 3 6 6 6 10 14 15 13 5 3 2 2 1 1 2 3 2 3 3 4 3 4 1 3 5 7 6 10 12 11 9
42 37 31 25 21 16 19 18 24 46 45 42 37 35 29 26 26 22 3 3 8 8 5 3 1 3 8 11 13 11 8 3 2 2 1 1 2 2 1 2 5 1 3 2 2 4 5 7 8 2 4 12 12 9
43 38 33 25 22 22 16 12 47 47 47 40 35 32 31 33 19 5 3 8 12 6 4 4 2 1 8 5 3 3 6 2 2 1 1 1 1 3 1 3 4 3 3 6 7 8 7 5 4 6 4 6 16 8
44 40 33 27 25 22 12 50 51 50 48 42 38 32 25 23 21 12 14 9 8 10 3 4 2 2 4 2 2 2 1 1 1 1 1 1 1 1 4 8 8 6 11 12 9 3 7 8 7 6 7 3 9 5
45 40 33 29 26 26 36 58 55 55 51 47 39 32 18 8 4 6 13 12 13 6 4 3 5 4 3 2 2 1 1 1 1 1 2 3 3 5 6 4 6 6 5 8 10 7 7 7 6 6 5 6 6 5
44 38 34 29 30 33 63 61 61 58 51 45 30 6 3 4 19 8 4 4 4 3 3 3 3 3 4 2 2 3 2 2 2 3 2 3 3 7 3 2 3 6 6 7 8 7 6 6 5 6 5 5 3 3
40 37 32 29 20 63 66 66 64 58 45 20 3 4 13 7 5 3 2 3 1 2 1 2 3 5 1 3 3 2 2 2 1 2 3 2 3 3 3 3 3 5 6 6 7 3 4 4 6 6 4 2 7 6
37 34 30 36 34 68 69 69 63 29 14 15 22 17 5 3 2 2 2 2 2 5 3 4 3 3 2 2 3 2 2 1 3 4 2 3 3 4 2 3 4 4 5 6 5 4 5 6 8 3 5 6 8 7
32 29 34 12 65 70 69 62 42 46 54 26 8 3 3 1 2 8 8 3 3 4 4 3 4 4 2 2 3 2 3 3 3 3 3 4 3 3 3 2 3 4 5 5 2 2 3 3 4 4 4 5 5 5
26 27 13 60 71 71 62 52 57 41 10 3 5 6 5 4 4 3 3 4 2 5 10 5 3 3 3 2 3 4 3 3 3 3 5 3 4 3 1 1 2 3 4 4 3 2 2 2 3 2 4 4 4 4
24 23 49 69 70 64 58 58 41 14 6 4 3 4 4 3 3 3 3 3 3 9 5 4 3 3 2 3 2 2 3 4 5 4 3 3 4 3 3 1 1 1 2 1 2 1 1 1 2 1 0 2 2 1
20 42 58 66 62 60 52 40 12 6 4 3 3 3 4 4 2 2 3 6 7 5 3 3 3 3 2 3 3 4 4 5 4 3 2 4 3 3 4 3 3 4 2 2 2 1 1 2 4 3 3 2 0 0
25 29 65 65 58 48 40 10 5 5 4 3 2 3 3 4 3 2 4 8 3 3 2 3 4 5 3 3 3 4 4 3 4 1 3 6 6 4 4 5 4 6 4 4 4 5 6 5 6 6 5 3 3 3
25 65 68 60 50 36 8 8 4 4 4 2 3 1 2 2 6 5 3 3 3 2 2 4 4 4 5 6 3 3 2 3 1 3 3 4 4 5 6 6 4 5 6 7 9 10 11 11 9 8 8 8 7 6
60 65 61 52 37 13 4 4 4 4 3 2 2 2 2 2 3 4 4 4 4 3 4 2 4 3 3 3 3 3 2 4 3 3 3 6 9 8 8 6 6 6 6 7 9 10 12 14 14 16 15 12 11 11
57 54 44 34 20 5 4 3 3 4 3 2 2 2 2 2 1 3 4 3 2 2 2 2 4 3 4 2 3 3 3 4 3 2 2 3 6 9 9 7 7 6 7 9 10 10 10 12 12 12 13 14 13 15
40 31 32 25 7 10 4 2 3 2 3 3 2 2 2 2 2 2 2 1 3 2 2 3 3 3 2 3 6 5 4 5 4 4 3 2 4 7 6 5 5 5 4 4 6 7 6 9 13 12 12 13 13 13
17 21 8 9 5 4 4 6 4 2 3 2 2 2 3 2 2 2 1 1 2 3 3 3 2 3 2 3 3 5 4 5 5 4 3 5 2 1 2 5 4 3 5 7 8 9 10 11 11 11 13 14 12 12
19 13 8 7 5 4 2 3 3 2 3 2 2 3 2 1 1 2 1 3 3 2 1 2 2 2 3 2 2 4 4 5 4 6 7 7 7 7 5 7 8 7 5 3 4 7 10 10 10 10 11 11 13 15
12 6 4 3 4 3 2 3 2 3 3 2 3 4 3 2 0 2 2 3 3 1 1 1 3 2 2 2 1 3 7 10 8 5 5 5 3 6 8 9 7 6 6 6 7 7 8 11 10 11 11 10 11 13
5 5 4 5 3 4 4 3 2 3 3 2 4 2 2 1 2 1 3 3 1 1 1 1 2 1 2 2 2 2 1 5 6 3 5 7 5 2 3 7 6 5 5 6 6 8 12 15 14 13 12 12 12 13
6 3 3 3 1 3 4 4 4 4 4 3 2 2 1 3 2 4 3 3 2 2 2 3 3 1 1 4 1 1 3 2 2 2 2 2 6 6 3 2 0 4 4 5 9 12 14 13 14 14 14 13 12 13
4 1 2 1 3 3 3 3 2 3 3 5 4 4 3 3 5 3 1 1 2 2 3 4 6 5 4 4 4 3 3 2 2 2 4 3 1 2 4 4 4 4 8 9 8 9 12 14 16 17 17 17 15 13
2 2 5 2 3 2 4 3 3 4 3 3 5 4 8 7 4 2 2 3 5 5 5 5 5 5 5 5 4 3 4 3 1 1 2 1 1 1 2 1 1 5 11 13 14 14 14 16 17 16 15 18 21 16
2 2 3 3 2 2 2 3 3 1 1 3 3 3 3 2 1 1 3 4 3 4 7 8 7 8 10 9 6 5 5 5 5 3 1 3 2 3 3 9 13 13 14 15 13 12 12 14 17 19 20 20 21 20
2 1 3 2 3 2 1 2 1 1 2 2 1 2 2 1 1 2 2 3 4 6 8 8 7 6 6 4 2 4 4 4 2 1 3 3 4 12 14 14 16 14 12 12 15 16 15 14 16 16 15 15 15 17
1 2 3 3 2 1 1 2 2 2 2 2 2 3 2 1 2 1 3 5 9 13 12 10 8 6 5 4 2 3 3 1 2 5 9 9 10 13 15 16 15 15 16 17 17 16 17 19 20 20 21 21 19 15
2 2 3 3 1 2 2 2 2 2 3 3 3 3 3 2 1 2 6 12 11 9 6 7 6 3 2 3 5 5 5 6 6 7 8 11 14 16 17 18 19 16 15 17 18 17 16 17 19 20 20 21 20 18
2 2 3 3 2 1 1 3 3 2 3 2 2 1 0 1 4 3 6 12 7 8 8 5 3 2 4 4 3 3 3 4 6 9 11 12 13 15 16 17 18 18 13 9 9 12 14 14 15 16 17 17 17 16

GFSWCAN_925_spd_096.txt.gz
Wind_Speed
32 29 29 29 29 25 22 18 18 18 16 17 42 52 53 50 39 15 11 9 5 3 4 5 5 4 3 3 4 4 3 2 2 2 3 2 2 2 1 2 4 5 4 3 3 2 5 9 5 5 6 8 6 3
34 30 30 32 29 26 22 20 18 19 17 18 36 45 49 43 40 19 8 18 18 6 3 11 17 14 6 2 5 2 3 2 3 3 1 2 1 1 3 2 3 2 3 1 5 3 3 2 2 5 7 6 7 7
36 32 31 32 29 26 23 21 20 21 18 19 42 44 44 39 38 17 20 17 12 4 4 5 4 12 11 10 4 4 1 4 2 3 3 2 2 3 2 3 2 3 1 2 2 2 3 2 1 4 7 7 10 8
40 35 32 31 29 26 24 22 22 22 18 41 42 43 42 37 35 17 19 16 9 4 4 2 5 5 8 9 10 8 7 6 5 3 2 2 2 2 2 2 3 4 2 2 4 4 2 3 4 1 5 8 11 13
44 40 34 31 30 27 24 23 25 23 32 42 42 41 39 37 31 20 17 15 4 5 4 2 2 8 7 14 18 16 15 5 3 2 2 1 1 2 1 1 3 3 4 3 4 2 2 5 7 11 6 3 6 10
45 42 36 33 31 27 20 24 21 31 45 43 44 41 37 38 30 19 3 3 8 10 5 3 1 5 6 16 17 13 8 3 2 2 1 1 3 3 1 2 5 2 2 1 3 3 5 8 9 6 5 5 3 7
43 41 38 36 33 25 19 20 25 42 45 45 42 38 34 33 21 6 4 8 17 9 4 4 2 1 3 5 3 3 6 2 2 1 1 1 1 3 1 3 3 4 1 6 8 7 6 3 5 8 8 9 9 8
42 42 40 39 34 26 22 20 21 47 46 45 41 36 31 23 18 8 11 12 12 10 4 4 2 1 3 2 2 1 1 1 1 1 1 1 1 1 4 6 4 3 8 6 4 4 6 8 9 5 8 6 6 5
44 43 43 40 34 27 27 16 48 47 48 47 43 37 27 7 3 5 13 11 8 4 4 3 6 4 3 2 2 1 1 1 1 1 1 2 2 5 6 5 2 5 4 7 8 7 6 4 6 7 7 6 5 5
45 46 45 40 33 34 18 56 58 58 55 49 34 7 3 3 20 12 3 3 4 3 3 3 3 3 4 3 2 3 1 2 1 3 2 2 3 6 6 5 3 3 4 5 7 6 7 7 6 8 7 6 4 4
47 47 43 39 35 22 59 66 62 59 49 17 3 3 10 12 4 2 3 3 0 2 1 3 3 5 2 3 3 2 3 2 1 2 3 2 3 3 4 5 3 2 3 5 6 7 3 5 7 8 8 3 4 5
46 43 40 36 35 43 68 68 64 27 16 13 20 15 7 3 2 4 1 2 2 6 3 4 4 3 2 3 3 2 2 1 2 3 2 3 3 4 5 3 2 2 3 5 6 4 4 5 6 7 5 4 3 3
39 33 29 31 28 61 70 63 41 45 52 20 7 3 2 2 4 7 8 3 3 4 4 3 4 3 3 2 2 2 3 4 4 2 3 4 2 4 4 3 2 2 3 4 3 1 3 3 4 4 3 4 4 1
30 27 30 31 70 67 61 51 60 41 10 3 5 7 6 5 5 4 4 4 3 5 10 6 5 3 3 2 3 4 3 4 3 3 5 3 6 6 4 3 1 1 2 3 2 3 2 2 2 4 5 5 5 6
25 17 28 59 67 59 58 58 37 19 5 3 4 6 5 3 3 2 4 4 2 9 5 4 3 3 2 4 2 3 4 4 5 4 3 3 6 6 5 4 3 2 1 3 3 2 1 1 1 2 2 3 3 4
22 27 30 60 61 61 48 34 13 5 3 3 3 4 3 4 2 2 5 7 4 5 3 3 3 4 2 4 3 5 7 6 4 3 3 4 6 5 4 4 4 4 3 3 4 3 3 2 4 5 5 4 4 5
30 12 65 61 61 45 30 12 5 5 3 3 2 3 3 4 4 3 6 5 5 3 2 3 5 6 3 3 3 4 5 3 3 2 2 5 5 5 5 4 4 5 5 4 4 4 5 5 7 6 5 4 5 6
8 59 66 61 45 27 9 9 4 3 4 2 3 2 2 2 6 4 3 4 3 2 2 4 4 4 5 7 3 3 2 2 2 3 3 4 3 4 8 6 6 4 6 6 7 9 10 10 8 7 9 9 8 8
54 61 59 45 28 11 3 3 4 4 2 2 2 2 2 3 3 3 4 4 4 3 4 2 4 3 3 3 3 3 2 4 4 3 2 4 8 9 9 8 9 7 7 7 7 7 10 10 11 11 12 11 11 11
60 53 42 30 18 4 4 3 3 4 3 2 2 2 2 3 2 3 4 3 2 2 2 1 3 3 3 2 3 3 4 4 3 2 1 2 7 10 12 12 9 7 6 6 8 8 8 9 10 10 9 10 10 12
39 29 29 21 7 10 3 2 3 2 3 3 1 2 2 2 3 2 2 2 3 2 2 3 3 2 1 1 4 5 4 5 4 3 2 1 5 9 9 9 7 5 4 3 3 4 3 6 8 9 9 9 10 11
15 23 9 9 5 4 4 6 3 2 2 2 2 2 3 2 2 2 2 1 2 3 3 3 2 3 2 2 2 3 3 4 3 2 3 6 3 1 2 8 8 5 7 6 6 6 6 7 7 8 10 11 8 9
16 12 7 6 5 4 3 3 4 2 3 2 2 3 2 2 1 1 1 1 3 2 2 2 2 2 3 3 2 2 2 3 3 5 6 7 7 7 6 7 8 8 5 4 3 3 4 6 8 8 9 10 10 10
11 5 4 3 4 3 2 2 2 3 3 2 3 3 2 2 1 2 3 3 2 0 2 2 3 2 3 3 1 2 2 6 5 3 5 6 2 6 9 9 8 8 6 4 5 4 3 6 10 11 10 11 11 12
6 4 3 4 2 4 4 3 2 3 3 2 4 2 3 2 2 3 3 3 2 2 2 2 2 2 3 1 1 1 1 3 6 3 2 6 4 2 2 4 5 4 4 4 4 5 8 12 11 11 12 11 12 13
6 3 2 3 2 3 4 4 4 4 4 3 2 2 2 3 2 5 3 3 3 3 3 4 4 2 0 3 2 0 2 3 3 3 2 1 5 4 3 2 1 2 2 4 6 9 11 10 12 13 16 15 13 14
4 1 1 1 3 4 4 3 3 3 4 5 5 5 3 3 5 3 1 1 2 3 4 8 9 5 5 6 7 5 5 4 4 7 7 4 3 1 1 1 2 0 6 7 8 10 12 15 17 18 19 21 19 15
2 3 5 3 3 1 4 3 4 5 4 3 5 4 8 6 4 2 2 3 8 10 10 9 8 9 9 8 7 7 5 4 6 5 5 4 4 4 4 3 1 4 9 10 11 12 12 13 15 18 18 19 22 21
2 1 3 4 3 3 2 2 2 1 1 3 3 3 3 1 1 1 3 7 10 12 13 12 9 10 12 10 8 7 6 5 5 2 0 2 3 3 3 8 10 11 12 13 12 11 12 14 16 18 17 18 21 23
2 1 3 3 3 2 1 2 1 1 1 1 1 2 2 2 2 3 6 7 8 7 9 10 14 11 8 7 5 4 4 4 3 2 3 3 3 7 9 10 11 10 10 12 14 15 14 13 14 17 18 19 19 21
1 2 3 3 3 1 1 2 2 2 2 2 2 2 2 1 1 1 3 4 8 13 15 12 11 10 9 7 4 3 0 2 1 3 5 4 6 9 11 12 12 13 13 13 14 15 17 17 18 20 22 23 23 20
2 2 3 4 2 1 2 2 1 2 3 3 3 2 2 2 0 2 6 10 13 11 7 11 11 8 6 3 1 1 1 0 2 2 4 7 10 12 13 15 14 16 17 18 16 14 14 17 19 21 22 23 23 23
3 2 3 3 2 0 1 3 3 2 3 2 2 2 1 1 4 2 7 11 8 10 11 11 9 6 4 3 2 1 1 0 3 6 7 8 10 10 12 15 15 13 12 8 8 11 14 16 18 18 18 19 20 19

GFSWCAN_925_spd_099.txt.gz
Wind_Speed
42 40 36 30 30 26 23 21 20 21 21 19 16 5 42 52 44 14 4 5 4 3 4 4 3 4 3 2 4 4 4 2 2 3 3 3 2 3 1 3 5 6 5 3 3 2 6 5 4 3 3 4 5 9
46 41 37 31 31 27 24 22 20 21 22 20 15 12 48 48 47 11 6 20 19 6 3 13 19 17 4 2 5 2 2 3 4 4 1 2 1 1 2 2 1 3 4 2 6 4 1 2 3 2 1 2 6 9
46 44 38 33 31 27 26 23 21 21 23 20 14 25 45 52 45 13 11 16 13 4 3 5 4 10 15 9 0 4 2 4 3 2 3 2 2 3 3 4 2 2 1 2 2 0 2 1 2 1 3 3 6 7
49 49 44 37 33 28 28 27 24 22 20 18 13 33 45 47 36 15 8 7 12 4 4 2 7 5 11 8 4 3 10 6 6 3 2 2 2 2 2 1 3 4 1 3 5 4 3 1 2 4 7 5 4 9
49 52 47 41 36 30 30 29 26 24 21 17 16 36 43 40 33 19 16 8 5 3 4 2 1 9 10 15 18 15 14 5 3 2 2 2 1 2 1 1 3 4 5 4 4 1 1 5 4 5 7 8 5 4
49 47 46 43 36 32 32 30 26 26 23 20 38 41 43 41 29 26 3 6 4 7 5 3 1 4 9 15 18 13 7 4 3 3 2 1 2 3 2 2 4 3 1 2 2 2 4 10 10 9 9 7 7 6
48 44 42 40 34 34 34 30 26 26 19 29 43 45 44 42 26 5 3 9 16 5 4 4 2 1 3 4 3 3 6 2 2 2 1 2 0 3 2 3 3 5 1 3 6 4 5 2 5 10 9 11 14 11
46 42 40 39 36 36 32 28 26 22 43 48 46 41 37 31 22 9 10 16 14 12 3 4 2 1 2 1 1 2 2 2 3 1 1 1 0 1 4 6 5 3 2 5 4 5 5 6 7 8 6 7 7 6
41 40 40 40 40 36 30 29 25 58 57 53 47 40 27 11 4 7 13 10 10 6 4 3 7 4 3 2 2 1 2 2 0 1 1 2 2 5 6 6 5 5 2 7 6 6 3 4 7 6 5 8 7 6
42 42 44 44 41 37 29 17 61 62 61 53 38 9 3 5 23 13 4 2 4 3 3 3 3 3 4 3 1 2 1 1 1 3 2 2 3 5 6 7 5 4 4 2 4 4 4 6 6 8 7 9 6 5
44 47 47 45 42 36 30 45 67 63 53 16 3 3 15 19 4 3 2 2 1 1 2 3 3 5 2 3 3 2 3 1 1 3 3 3 3 4 3 6 6 5 2 3 5 5 5 4 6 6 6 6 7 7
46 47 46 44 42 39 35 66 65 28 14 15 24 20 7 4 2 4 3 1 4 6 3 4 4 3 2 3 3 2 3 2 3 3 1 3 4 4 6 6 5 4 1 3 4 5 3 4 6 7 5 5 6 7
43 44 42 37 43 28 63 61 37 39 54 25 7 4 3 0 2 8 8 3 3 4 5 4 4 3 2 2 3 3 4 4 2 2 3 4 3 4 5 4 5 3 1 3 3 1 3 3 5 6 6 6 5 6
40 37 32 35 29 68 57 48 55 35 13 4 4 7 7 5 5 4 3 5 3 6 11 6 4 3 2 3 3 4 3 3 3 4 5 3 6 6 6 5 3 2 1 1 2 2 2 2 3 3 4 4 4 3
33 33 31 20 55 54 56 56 35 12 6 3 4 6 5 2 2 2 2 4 2 10 7 5 4 3 2 4 2 3 5 4 5 5 3 3 5 7 6 6 4 4 2 1 1 1 2 2 2 2 3 4 4 4
25 34 20 25 44 57 51 33 10 5 3 3 3 4 4 4 3 2 4 8 5 8 3 3 4 4 2 5 4 6 7 7 4 3 3 4 6 6 6 6 5 5 6 4 3 2 1 1 2 4 6 4 3 4
21 0 18 47 55 46 31 8 4 4 3 3 2 2 2 3 4 3 5 5 5 3 3 3 5 6 3 3 2 4 5 3 3 2 2 5 7 7 6 5 6 6 5 5 3 4 4 4 6 7 5 3 5 6
7 24 61 64 43 27 8 8 3 3 4 2 2 1 2 2 6 4 3 6 3 2 3 4 4 3 5 7 3 3 2 2 1 2 3 4 5 6 9 6 8 5 5 5 5 6 7 8 8 8 11 11 10 10
25 49 49 44 30 10 3 4 4 3 2 1 1 2 2 3 3 3 7 4 4 3 5 2 4 3 3 3 3 2 3 2 4 3 2 4 8 8 9 9 9 7 6 5 6 6 7 8 10 10 10 10 9 13
50 48 35 27 18 4 4 2 3 3 2 1 2 2 2 2 2 4 4 3 2 2 3 2 3 3 3 2 3 2 3 3 4 3 2 2 6 9 11 12 11 9 7 7 8 8 7 7 7 7 8 9 9 12
30 23 30 21 7 9 3 2 3 2 2 3 0 1 2 2 3 2 2 1 3 2 1 3 2 1 1 0 3 5 4 5 4 3 3 2 5 9 8 9 9 7 5 4 5 5 4 5 5 6 7 8 8 9
11 20 8 9 5 4 3 5 3 2 2 2 2 2 3 2 2 2 2 2 1 3 3 3 2 2 2 3 2 4 7 7 6 6 6 8 3 1 2 10 10 6 9 10 10 7 4 3 4 5 6 8 7 8
17 8 7 5 4 4 2 2 3 2 3 2 1 3 2 2 1 2 1 1 3 2 2 2 3 3 4 4 5 4 3 5 3 3 4 4 3 3 2 6 10 7 5 8 7 5 2 2 3 6 8 9 9 10
12 5 4 3 3 3 2 2 2 3 2 2 2 3 2 1 1 2 2 2 2 1 2 3 3 3 3 3 1 0 1 5 4 3 4 5 2 3 5 5 6 7 7 2 4 4 4 3 7 9 8 8 9 11
5 3 3 5 2 4 4 3 2 2 3 2 3 2 2 1 2 2 3 2 2 2 2 2 2 2 3 0 1 1 1 5 6 3 2 5 4 4 3 2 3 4 4 4 6 5 5 7 8 8 9 10 11 14
5 2 2 3 3 3 4 4 4 4 4 3 2 2 1 2 2 5 3 3 3 3 4 5 4 3 1 2 3 1 3 5 6 5 3 2 5 2 2 3 1 3 2 2 3 6 8 8 10 12 15 15 13 14
4 2 1 1 3 4 3 3 2 2 3 5 4 5 3 4 5 3 0 1 2 3 8 14 14 7 5 7 9 8 7 6 5 9 9 7 5 3 1 1 2 2 2 5 7 9 11 13 14 15 15 16 17 15
3 3 6 3 3 1 4 3 4 5 4 3 6 5 8 7 4 1 1 1 9 14 16 12 9 13 15 13 12 12 10 10 10 9 8 7 5 5 5 4 2 3 7 9 10 10 11 12 13 15 17 19 20 19
3 1 3 4 3 3 2 1 2 1 1 4 3 3 3 0 0 0 3 8 14 17 15 14 12 16 17 15 12 9 10 11 9 3 1 2 2 3 1 4 6 7 8 9 9 9 11 13 15 16 14 16 20 21
2 0 3 2 3 2 1 1 1 1 1 2 1 2 2 2 2 4 9 12 12 9 11 13 19 14 14 13 11 9 7 5 2 2 3 3 2 2 4 6 6 6 8 10 11 11 12 12 14 15 16 19 20 22
2 2 3 3 3 1 0 1 1 2 2 2 2 2 2 1 1 2 4 6 8 14 16 14 10 10 13 12 6 6 1 4 2 2 2 1 2 5 7 8 8 9 10 12 13 14 13 13 15 18 19 20 21 19
2 2 3 3 2 0 1 1 1 2 3 2 2 1 1 2 2 1 5 10 13 12 8 16 16 12 11 9 6 5 4 4 3 1 2 3 5 7 8 9 10 11 11 12 10 9 11 14 18 20 20 21 21 21
2 2 3 4 3 1 1 3 3 2 3 2 3 1 1 0 3 3 8 11 9 14 15 15 13 13 10 8 7 5 5 4 1 2 3 4 6 7 9 11 10 10 8 7 7 11 14 16 17 17 17 17 18 18

GFSWCAN_925_spd_102.txt.gz
Wind_Speed
36 34 34 36 31 28 26 24 23 22 23 23 19 21 12 51 36 20 3 3 2 3 3 4 5 3 3 3 4 4 4 2 2 2 3 3 2 3 2 4 5 6 5 3 3 2 5 3 4 2 0 3 2 5
37 36 38 38 33 28 27 24 23 22 22 22 20 20 15 46 42 21 4 12 14 6 3 10 13 15 4 2 5 1 2 3 4 4 1 2 1 2 3 2 1 2 5 3 7 5 3 1 2 3 3 2 3 3
41 40 41 41 36 29 27 25 23 23 21 20 17 17 13 42 43 21 10 13 9 3 3 4 4 8 14 4 2 4 2 4 2 2 3 2 3 3 3 4 2 3 2 3 1 1 0 2 1 2 4 3 5 5
45 45 44 44 38 32 28 27 25 24 23 19 14 15 14 44 47 19 8 8 8 4 4 1 7 4 11 6 3 3 8 6 6 3 2 2 2 2 2 1 3 4 3 3 4 4 3 1 2 2 5 6 6 7
49 49 48 46 41 35 31 30 27 27 24 20 16 13 31 47 43 16 9 6 5 4 4 3 1 8 12 16 19 17 14 5 3 2 2 1 2 3 1 1 3 5 6 4 4 3 2 4 5 7 8 10 7 7
49 49 48 44 42 36 36 33 32 29 25 22 17 16 37 51 36 14 2 2 7 7 5 3 1 3 8 15 18 13 7 4 3 3 2 1 1 3 2 3 4 4 3 4 3 2 4 7 6 5 4 10 8 7
51 51 49 44 40 36 36 36 34 31 26 22 18 14 44 50 34 3 3 2 11 3 3 4 1 2 4 4 3 4 6 3 2 2 1 2 0 3 2 3 2 6 6 3 0 2 3 1 4 7 8 10 13 12
51 51 49 45 40 36 37 38 36 31 26 22 16 39 40 36 24 4 5 10 7 10 4 4 2 1 1 2 2 2 2 3 4 1 1 1 0 1 4 7 2 5 5 3 3 5 5 4 6 6 9 7 7 7
46 46 46 45 41 38 41 40 36 31 28 25 45 44 33 11 4 6 9 8 6 1 3 3 6 4 1 1 2 2 2 3 1 1 1 2 2 5 7 6 6 7 5 4 2 4 2 2 6 6 7 8 7 6
46 45 41 40 42 43 44 40 34 20 44 62 47 10 3 8 26 18 2 3 3 3 3 3 2 3 3 2 1 2 1 2 1 2 2 2 4 6 5 5 6 7 6 5 3 2 1 3 4 6 7 7 5 5
18 31 37 43 45 45 41 42 23 53 60 19 3 3 16 26 6 3 2 2 0 1 3 3 3 5 2 3 3 2 2 2 2 3 3 3 4 4 4 8 6 6 6 5 3 2 3 3 4 5 6 5 6 7
25 37 44 46 44 40 42 34 69 31 13 16 23 19 9 4 2 4 3 1 4 6 3 5 4 4 3 3 3 3 3 2 3 3 2 3 4 4 5 6 6 5 5 4 2 1 3 1 2 3 4 5 6 6
35 40 42 43 43 40 47 69 40 46 58 38 7 4 4 1 2 10 9 4 3 5 6 5 4 4 3 2 3 3 3 3 3 2 4 5 3 4 4 5 6 5 4 3 1 2 1 1 1 1 2 2 3 3
36 39 43 43 41 34 43 47 55 39 14 3 5 7 5 6 6 5 4 6 4 6 11 5 4 3 3 3 3 5 3 4 3 4 6 3 6 7 6 5 6 5 4 3 1 1 0 0 1 2 3 3 3 3
39 40 40 38 31 39 47 52 35 14 4 3 4 6 5 3 2 2 3 5 3 11 8 5 4 3 1 3 2 4 5 4 6 5 3 3 6 8 8 8 6 5 4 3 2 1 1 1 1 3 3 5 5 5
36 31 22 27 38 45 45 29 9 4 3 3 3 4 4 4 3 2 3 7 6 8 3 3 4 3 2 5 5 6 8 7 4 3 3 4 7 7 7 9 6 6 7 5 4 2 0 1 1 4 8 7 6 6
16 3 19 45 44 42 28 6 4 4 3 3 2 3 2 3 4 3 5 3 8 3 3 4 5 6 3 3 3 4 5 3 3 3 2 4 9 8 7 5 8 8 7 7 5 5 4 4 5 7 6 10 10 11
7 23 28 53 38 24 6 6 3 3 4 2 2 1 1 2 6 4 3 7 3 2 3 4 5 3 5 7 4 3 3 1 1 2 3 4 6 7 10 7 10 8 8 7 5 5 6 7 7 7 10 11 13 14
13 39 39 35 21 8 3 3 4 3 1 1 1 0 2 3 3 4 5 3 3 3 5 2 4 3 3 3 3 2 2 3 4 3 3 4 9 10 11 12 12 9 8 7 7 5 6 7 8 9 10 9 9 10
42 53 47 27 14 3 4 2 2 3 2 2 2 3 3 2 2 3 4 2 2 2 3 2 3 3 3 2 3 3 3 4 4 3 2 2 6 10 12 14 11 9 7 6 6 6 5 6 6 5 6 8 10 13
26 28 35 15 6 9 3 1 3 2 2 3 1 2 2 2 3 2 2 1 3 2 1 2 2 2 2 1 3 4 4 5 3 3 4 2 5 9 8 11 11 9 7 5 4 4 6 6 3 4 6 7 9 11
10 20 7 6 4 3 3 4 3 2 2 2 2 2 3 2 2 1 2 3 2 3 3 3 2 2 2 3 3 6 11 10 9 9 8 11 3 2 3 10 9 6 10 9 8 7 5 3 1 3 5 8 9 10
15 9 5 4 4 4 2 1 3 2 3 2 1 3 2 2 1 1 1 2 3 2 2 2 3 3 5 5 9 9 8 10 3 5 5 5 4 4 3 6 10 9 5 7 8 8 6 3 2 4 8 9 10 11
17 5 3 3 3 3 2 2 2 3 2 2 2 3 2 1 0 1 3 3 2 2 2 4 4 4 3 4 2 1 4 5 7 5 5 7 2 3 3 2 4 4 4 2 5 6 5 5 3 6 8 9 10 12
5 2 3 3 2 4 4 3 3 2 2 2 3 2 2 1 2 2 3 2 2 2 3 3 2 2 4 2 1 2 5 7 7 3 4 5 6 7 5 4 2 1 2 4 5 4 2 2 5 7 8 10 11 14
5 1 2 3 2 3 4 4 4 4 3 3 2 2 1 2 2 5 3 2 3 3 4 7 5 3 2 1 3 2 6 9 8 6 4 5 4 3 3 3 2 2 2 2 2 2 3 5 7 10 12 13 13 14
4 2 1 1 3 4 4 3 3 3 3 4 4 4 3 4 5 3 0 0 1 2 10 16 14 6 5 7 12 12 11 9 6 11 12 10 7 5 3 3 3 5 2 2 3 5 6 9 11 12 14 16 17 17
3 3 6 3 3 2 4 3 4 4 3 3 6 5 6 6 3 0 1 2 5 13 17 13 10 17 20 18 19 20 18 18 17 15 14 12 10 9 8 7 5 3 4 5 6 7 8 8 10 13 16 18 19 18
2 1 3 4 3 3 2 2 3 2 1 4 3 3 2 1 1 1 2 5 13 15 13 13 16 21 22 18 13 9 17 17 9 3 3 0 2 2 2 2 3 3 5 6 6 7 8 10 12 13 13 16 19 20
2 1 3 2 3 2 2 2 2 1 2 2 1 2 1 1 2 2 5 9 8 7 10 16 22 19 14 15 13 11 8 6 3 2 4 3 4 5 2 2 2 3 5 6 8 9 10 10 11 13 16 18 19 20
2 2 4 4 3 1 1 1 1 1 1 1 2 2 2 1 1 2 4 7 8 14 18 14 9 17 17 18 12 9 3 7 6 5 6 7 6 4 3 3 4 5 7 8 8 8 8 11 14 17 18 18 18 17
3 3 3 3 2 1 0 1 1 1 1 1 2 1 1 1 1 1 6 10 14 11 9 16 17 15 14 11 9 8 7 12 9 7 6 6 6 5 4 4 5 5 6 5 5 7 10 12 14 14 15 15 16 17
2 2 2 4 3 2 1 2 2 2 2 1 1 0 0 1 3 2 9 11 11 15 17 17 15 17 15 12 11 11 11 10 7 5 4 2 2 2 3 4 5 5 5 6 7 9 11 11 11 12 13 14 16 16

GFSWCAN_925_spd_105.txt.gz
Wind_Speed
26 26 24 24 23 21 26 28 22 21 19 16 15 17 22 7 36 25 10 9 5 3 3 3 3 3 3 2 4 4 4 1 2 2 3 3 3 4 2 4 5 6 5 3 3 1 5 2 2 0 1 0 2 3
28 26 25 26 25 23 22 28 23 21 19 16 14 12 16 5 28 22 7 6 9 4 2 4 11 12 2 1 5 1 2 3 4 4 1 3 2 1 3 2 1 2 5 4 7 5 3 2 2 2 2 0 2 4
29 27 27 27 28 25 22 25 24 21 18 17 15 13 12 5 29 20 14 15 7 3 2 3 3 6 9 2 2 4 2 3 2 2 3 2 2 3 3 4 3 3 3 3 1 2 4 2 1 3 2 3 4 4
31 29 29 29 30 29 24 24 25 22 18 18 15 13 14 13 29 28 10 13 6 3 3 2 4 3 9 4 2 2 7 5 5 2 2 3 2 3 2 1 3 4 5 4 5 5 2 1 3 2 5 5 6 6
32 32 32 33 33 32 27 25 26 25 21 20 16 14 16 8 37 27 11 11 7 2 4 2 0 6 11 11 13 12 12 4 2 2 2 1 2 3 1 1 3 5 6 5 5 4 3 2 0 3 3 4 7 7
34 37 38 38 36 35 30 28 30 28 25 23 19 17 18 24 39 18 2 9 10 9 4 3 2 3 6 9 14 10 5 3 2 2 2 0 1 2 2 3 4 5 3 3 3 3 3 3 5 2 3 6 7 6
40 41 41 41 38 36 33 29 31 31 28 25 22 18 15 30 38 3 3 9 16 8 4 3 1 2 2 3 3 3 5 2 2 2 1 2 1 3 2 3 3 7 6 4 4 4 1 3 2 5 5 8 12 12
42 43 43 42 40 37 35 34 33 31 29 27 22 19 20 24 26 2 8 15 10 10 3 4 2 0 1 1 1 2 2 2 3 1 1 2 1 1 4 7 3 5 6 5 6 5 3 3 1 4 5 7 8 7
43 44 43 43 41 39 37 37 35 34 31 25 19 19 15 18 5 8 11 9 5 2 4 3 6 3 2 1 1 2 2 2 1 1 2 3 2 6 7 6 7 7 7 7 6 3 4 2 3 5 5 5 6 6
45 46 45 45 44 43 41 40 38 38 32 23 24 4 3 10 31 18 5 3 3 2 2 3 3 3 3 1 1 2 1 2 1 2 2 3 4 6 5 6 7 9 7 7 5 3 5 3 2 2 4 4 4 5
39 43 45 45 45 42 45 44 44 43 36 19 3 2 18 30 7 3 3 3 1 2 3 3 3 5 2 3 3 2 2 1 1 3 4 3 4 4 5 8 6 8 7 6 3 3 2 3 3 3 3 3 4 5
29 28 28 35 45 44 50 49 50 42 19 18 15 16 9 4 3 5 5 2 4 7 3 6 4 3 3 2 3 2 3 2 4 2 2 3 4 4 5 7 7 7 7 6 6 5 4 4 3 2 2 1 2 4
10 6 15 31 42 50 51 52 52 39 40 35 5 4 4 2 5 11 10 4 3 5 6 5 5 4 3 2 3 3 3 4 2 2 4 5 3 4 4 7 7 7 8 7 5 5 4 3 3 2 2 2 3 4
12 20 30 40 46 50 54 51 51 53 19 3 6 8 6 6 6 5 6 6 4 6 11 7 5 3 3 3 3 5 2 3 3 3 6 3 7 8 6 5 8 7 7 6 5 5 5 5 4 3 2 2 4 6
22 28 32 36 44 53 52 57 53 24 6 4 4 6 6 2 2 1 2 5 3 12 11 6 4 3 2 4 2 4 4 5 6 5 3 3 6 10 8 8 6 6 5 5 5 5 5 4 2 0 1 4 5 6
34 29 24 30 41 47 56 39 19 2 2 2 4 4 4 3 2 1 3 6 7 11 3 3 4 4 3 5 5 8 8 7 4 3 3 4 9 9 8 11 6 7 8 7 7 5 3 2 2 1 4 6 5 5
19 5 27 42 56 38 31 13 7 2 3 4 2 2 2 2 3 3 5 4 11 10 4 4 5 6 4 3 3 5 6 3 3 2 2 5 11 10 9 9 7 9 9 9 8 7 4 4 3 4 5 7 8 9
14 20 43 47 38 21 6 7 3 2 3 2 3 2 2 0 5 4 3 9 6 2 3 4 5 4 6 7 4 4 3 1 2 3 3 5 7 7 11 10 12 12 11 9 7 6 5 5 5 6 6 8 10 13
27 31 43 41 24 7 3 3 3 3 3 2 3 2 2 1 2 4 6 3 3 3 5 2 4 4 4 3 4 2 5 4 5 3 3 5 11 12 13 14 12 11 10 8 7 4 3 5 7 8 8 7 8 8
36 42 31 23 13 4 4 2 3 3 3 2 2 2 2 2 2 4 4 2 3 2 2 2 3 2 3 2 2 3 5 5 7 5 3 3 8 14 13 14 10 10 8 6 5 5 5 6 8 8 8 6 7 10
22 26 25 19 7 8 3 2 3 1 3 3 1 1 3 1 3 3 2 1 2 2 2 3 1 1 1 1 3 4 5 4 3 3 4 3 5 11 10 12 12 9 7 8 7 7 9 10 5 5 5 5 6 7
11 19 6 5 4 3 3 2 3 2 2 2 2 2 3 2 2 2 0 2 1 2 2 3 2 2 1 3 3 6 11 11 10 11 12 16 4 3 3 9 10 6 12 10 10 10 9 7 6 4 3 5 7 8
17 10 5 4 4 4 1 1 2 1 3 2 1 2 2 2 1 1 2 2 2 1 2 2 3 2 4 5 11 10 10 14 4 6 9 10 11 8 8 9 12 9 6 6 7 8 8 6 5 2 4 5 7 8
11 4 3 3 3 3 2 1 2 3 3 2 2 3 1 2 0 1 2 2 2 2 3 5 5 4 3 4 2 2 4 8 12 10 9 13 3 4 6 7 5 4 3 2 2 4 6 5 2 3 5 7 8 11
4 3 3 4 1 4 4 3 2 2 3 2 3 2 2 2 2 2 3 2 3 4 4 4 3 2 4 2 2 3 6 9 7 4 5 6 11 11 9 8 5 2 2 3 4 4 4 3 2 5 6 8 10 12
4 2 2 3 3 4 5 4 4 4 3 3 2 2 1 2 3 4 3 2 3 4 6 8 6 4 2 2 4 2 7 9 11 7 6 9 7 8 4 3 2 3 5 5 5 4 2 1 3 6 9 10 11 13
4 2 1 1 3 4 4 3 2 3 3 5 4 4 3 4 5 3 1 1 1 1 10 17 14 5 6 6 13 13 14 11 7 11 13 10 7 6 5 6 6 8 7 4 2 1 1 3 5 7 9 11 12 14
3 4 6 4 3 0 5 3 4 3 3 3 5 4 7 6 3 1 1 2 2 9 16 14 10 16 21 21 22 23 21 22 23 21 19 15 13 12 12 12 11 7 4 1 2 3 3 4 6 8 11 13 16 16
2 1 3 3 3 4 3 2 2 2 1 3 2 3 3 1 0 1 2 3 11 11 11 13 15 24 26 24 18 16 26 25 12 5 4 3 0 4 7 6 5 4 3 2 1 2 5 7 7 9 10 12 15 15
2 0 3 3 3 3 2 2 2 1 2 2 2 2 2 1 2 1 4 8 5 4 9 16 21 18 14 13 13 14 13 5 3 5 4 4 5 12 9 6 4 3 2 2 3 4 3 3 5 8 11 12 13 15
2 2 4 4 3 1 1 1 1 2 2 2 2 2 2 2 1 2 4 6 10 15 17 12 12 16 18 16 13 8 3 8 9 10 11 13 13 11 8 6 4 2 2 3 3 3 4 7 9 10 11 12 12 13
2 2 3 4 2 1 0 1 2 2 1 1 2 2 1 2 1 2 7 12 14 9 11 16 15 15 17 16 13 9 7 18 15 13 12 12 11 9 7 5 4 3 2 2 2 4 6 7 7 9 10 11 13 15
2 2 3 4 3 3 2 2 2 2 1 1 1 0 1 1 3 2 9 12 13 16 18 17 16 20 17 15 16 18 17 16 14 13 12 9 7 6 4 4 3 3 2 2 2 4 4 5 7 8 10 12 13 14

GFSWCAN_925_spd_108.txt.gz
Wind_Speed
29 27 28 25 22 19 20 19 16 15 13 15 14 12 13 13 12 27 15 26 10 2 2 1 2 1 1 2 3 5 4 2 3 4 2 2 3 3 3 2 4 5 6 3 3 3 2 5 4 4 3 2 1 2
29 28 29 24 23 20 18 21 17 17 13 14 15 11 10 6 18 19 10 18 11 5 3 2 4 5 1 1 3 3 2 3 4 3 2 2 3 2 2 2 4 4 3 2 5 1 2 3 1 1 2 1 1 3
29 29 30 26 24 22 19 21 19 17 15 13 13 10 6 1 20 6 17 18 7 4 2 1 1 2 4 1 3 2 2 2 3 1 2 1 4 3 3 5 4 5 5 3 2 4 9 6 4 4 3 2 2 5
29 33 29 29 26 23 21 21 21 18 16 14 14 12 8 6 4 16 13 17 9 4 2 2 2 1 6 1 4 3 3 5 5 1 2 2 2 3 2 2 3 0 8 6 5 6 2 7 7 5 3 4 5 7
34 32 31 30 27 24 23 23 24 20 17 16 15 14 11 12 9 23 17 16 9 1 2 3 1 3 7 7 5 6 9 4 2 2 2 2 2 3 1 2 5 8 7 6 3 6 1 3 6 1 3 4 6 6
34 33 32 30 28 27 25 25 25 22 21 19 18 15 13 11 22 24 1 17 19 9 4 3 1 1 3 6 9 9 5 3 1 1 1 1 0 2 3 3 4 12 7 3 2 6 3 4 1 2 3 5 7 8
34 34 33 31 29 30 28 27 25 23 22 21 19 15 14 11 28 6 5 5 23 15 3 4 3 1 0 2 2 2 3 2 1 1 2 1 2 2 3 4 3 10 9 6 7 7 2 4 2 1 5 8 10 10
35 33 33 33 33 34 32 29 27 25 23 22 20 15 13 5 10 4 3 20 26 8 1 4 2 2 4 2 2 2 1 0 1 0 1 2 2 2 6 10 3 8 9 8 8 5 3 4 1 1 4 5 5 4
32 33 35 37 36 35 33 32 31 29 26 24 20 16 12 6 5 7 14 13 8 4 4 3 6 4 4 2 2 2 1 2 1 2 2 3 3 7 8 8 13 13 12 11 9 7 5 5 3 2 2 3 4 4
33 36 38 38 37 37 36 35 34 31 29 28 22 7 3 7 27 23 4 3 1 1 2 2 3 4 4 3 2 3 0 1 2 1 3 4 5 14 8 6 9 14 10 13 12 7 8 7 6 4 2 3 3 3
36 36 38 40 40 40 40 38 37 36 34 23 5 3 5 35 9 2 4 5 3 4 5 4 4 6 4 3 3 2 2 1 2 2 3 3 5 4 7 11 8 13 12 11 5 4 10 7 7 5 4 4 4 3
34 37 38 40 40 41 42 43 44 43 20 17 14 14 9 4 3 6 6 5 7 8 6 8 6 4 4 3 3 3 2 2 4 4 3 4 5 3 6 11 10 14 11 9 8 7 6 6 6 6 4 4 4 3
32 33 34 33 36 41 47 47 54 40 39 21 6 6 5 5 7 11 11 6 6 7 7 6 6 5 3 2 4 3 5 4 3 3 5 6 1 4 7 9 11 10 11 10 8 8 7 6 4 3 4 4 4 3
25 24 24 24 27 39 52 54 59 49 34 4 6 7 7 7 7 6 5 6 3 6 12 10 6 4 3 3 3 4 2 4 3 5 7 3 8 9 10 10 12 12 11 11 9 9 7 7 6 5 4 3 2 3
15 15 14 14 26 45 55 60 57 42 5 4 5 7 8 2 3 1 2 6 4 14 13 7 5 4 3 4 3 4 5 6 7 6 3 3 10 12 13 13 10 10 10 9 11 8 8 6 5 4 2 2 3 4
13 13 10 29 40 51 60 58 27 8 3 1 4 3 3 4 3 3 3 6 9 12 7 4 5 5 4 5 6 10 7 7 4 4 3 7 12 12 11 10 9 10 11 9 9 9 7 6 5 4 2 3 3 3
19 3 32 44 51 57 51 15 6 3 4 4 3 3 3 2 4 3 7 6 12 12 6 4 6 6 6 4 4 6 6 3 2 3 3 9 14 13 11 9 9 11 10 9 9 8 6 5 4 4 4 3 3 6
7 29 42 52 53 32 10 5 3 2 1 1 3 4 3 2 5 5 3 10 9 3 4 4 6 5 6 8 4 5 5 2 1 3 5 8 11 12 13 10 11 11 10 11 10 9 8 7 6 6 4 5 6 7
29 35 44 48 27 8 3 3 3 5 5 2 2 2 4 3 2 3 6 8 3 3 6 2 4 4 4 4 3 3 4 4 4 4 4 7 14 14 13 14 13 10 11 10 10 8 7 6 6 6 5 3 3 3
34 47 43 32 23 3 3 3 3 3 4 2 1 3 4 3 1 4 7 2 3 3 2 3 3 2 3 1 2 3 6 6 8 7 5 4 9 13 13 14 11 12 11 9 8 7 5 5 7 8 6 4 3 4
36 22 27 17 6 6 3 2 1 1 3 3 1 1 3 2 3 4 4 0 1 2 2 3 1 2 2 1 1 4 7 8 6 4 7 6 7 9 10 10 11 11 9 8 7 8 9 8 5 5 5 4 4 4
9 18 6 5 3 3 2 1 3 2 3 2 2 2 3 3 3 3 1 0 2 2 2 2 3 3 3 3 2 4 12 11 11 13 14 18 6 5 5 10 10 7 8 8 8 6 5 6 7 6 5 3 3 4
19 7 5 3 3 3 1 2 3 3 3 1 0 3 2 2 1 0 3 2 2 1 2 2 3 5 5 5 10 10 11 12 5 5 10 10 11 10 10 11 10 7 5 7 8 6 5 5 6 6 3 2 4 5
10 3 2 3 3 3 3 2 2 3 3 2 2 3 2 2 2 1 3 3 2 4 4 5 7 6 5 4 3 2 6 13 12 11 13 13 6 6 9 9 9 7 6 7 7 5 5 6 5 3 1 3 5 7
4 1 3 4 2 4 4 3 2 3 2 2 3 2 2 2 2 2 2 2 4 5 5 7 5 6 5 3 3 4 7 13 7 6 6 9 13 11 9 8 7 5 6 6 5 5 5 5 3 1 2 4 6 8
4 1 3 4 3 4 5 5 4 4 3 3 2 2 1 2 3 5 3 3 3 5 7 10 8 5 4 2 6 4 9 12 13 6 6 13 13 11 6 5 3 2 5 5 7 7 6 3 1 2 3 4 6 8
4 3 1 1 3 4 4 3 4 3 4 5 5 5 3 4 6 3 1 1 1 1 9 12 11 7 8 6 12 13 14 13 8 11 16 12 10 9 9 6 5 8 9 7 5 4 4 2 1 2 4 6 8 9
2 2 6 3 3 1 5 3 4 4 3 3 6 5 6 5 2 1 0 1 1 6 15 16 13 17 20 19 23 24 20 22 25 24 21 18 15 14 14 14 15 12 9 6 5 4 4 3 1 3 5 7 10 11
2 1 4 3 3 3 2 2 3 1 1 5 3 3 3 1 1 1 1 2 9 9 11 11 13 24 25 25 22 21 29 25 16 8 5 4 2 5 11 11 10 9 7 6 4 4 3 2 4 3 5 8 9 9
3 1 3 3 2 2 1 1 1 1 1 2 2 2 2 1 1 2 4 6 4 4 8 15 19 20 15 15 14 15 16 8 9 7 6 4 6 16 14 11 10 8 7 5 4 5 4 2 1 4 6 7 9 11
2 2 4 3 2 1 1 0 1 1 2 2 2 2 2 2 2 2 4 5 11 14 16 12 12 15 18 18 16 8 4 6 8 9 11 15 19 17 14 11 9 7 6 6 7 6 4 4 5 6 6 8 9 10
2 2 3 3 2 1 1 1 1 2 1 1 2 1 1 1 2 1 6 10 10 8 11 13 14 11 16 20 20 13 11 20 18 17 17 17 16 14 12 10 9 8 8 7 6 5 5 6 6 6 6 8 9 10
3 2 3 4 3 3 3 2 2 2 2 2 1 1 1 0 3 2 8 9 10 13 16 16 18 20 20 18 14 16 23 22 20 19 17 15 14 13 11 10 9 9 9 7 6 6 7 7 7 6 6 7 9 11

GFSWCAN_925_spd_111.txt.gz
Wind_Speed
28 27 26 23 21 19 20 16 12 13 15 13 11 13 12 15 22 25 15 23 15 3 1 2 1 3 2 2 2 5 4 2 3 2 1 1 2 1 2 1 3 4 4 3 2 3 3 10 6 4 4 2 3 3
29 28 27 25 23 22 21 18 15 14 16 15 12 12 10 11 2 10 4 23 17 3 3 3 2 1 3 3 1 5 2 2 2 3 2 2 3 1 3 2 4 4 3 2 4 1 3 10 3 3 1 2 2 2
31 30 28 26 25 25 22 19 16 15 16 16 13 12 10 8 10 6 9 19 12 4 3 4 4 5 2 3 2 3 2 1 2 1 1 1 4 2 3 4 3 5 5 4 3 4 9 8 5 4 3 2 2 3
33 32 30 28 27 27 22 20 18 17 17 16 14 12 11 9 6 8 9 17 11 2 3 3 1 2 2 2 5 4 1 3 3 2 2 2 3 2 2 2 4 2 9 7 8 9 2 7 7 5 4 3 5 5
35 34 31 30 29 29 23 21 20 19 18 17 15 14 12 12 9 7 11 16 9 4 1 1 1 1 1 3 5 6 6 3 3 2 3 3 0 2 2 3 8 8 10 6 3 4 2 4 5 4 4 5 5 5
37 35 33 31 31 28 25 23 21 21 21 19 17 16 14 12 10 6 2 16 18 2 2 2 2 3 3 7 7 6 3 1 2 2 2 2 1 2 3 4 7 10 10 10 2 7 5 8 5 3 3 2 3 5
38 37 34 33 35 28 25 23 22 21 20 19 17 16 14 13 12 6 3 3 25 12 1 1 3 4 3 4 3 2 1 1 2 1 3 2 3 3 3 6 4 8 10 8 7 10 5 6 3 5 3 2 4 8
39 38 36 38 32 28 24 23 22 20 19 17 17 15 13 12 10 10 10 6 24 7 2 3 2 3 8 4 4 2 3 2 3 1 1 3 3 3 6 13 5 6 10 10 10 5 3 7 5 5 4 1 3 5
40 40 41 36 31 28 26 23 23 21 19 16 16 14 9 7 3 2 4 17 11 4 3 4 6 4 5 3 2 3 2 3 2 3 3 3 5 8 10 9 12 12 12 11 11 9 7 6 6 6 4 3 3 4
42 43 38 34 30 28 27 25 25 22 21 18 16 7 3 7 11 21 7 0 2 2 3 4 2 4 5 5 3 4 2 2 3 3 3 5 6 14 12 10 8 14 13 13 14 10 9 8 8 7 6 3 3 3
42 38 33 31 30 30 30 28 27 25 23 22 6 3 6 28 9 2 4 6 6 5 6 5 6 5 4 4 4 3 3 3 3 3 3 3 5 4 7 12 9 13 13 13 10 4 10 9 9 8 5 4 1 3
37 34 32 31 32 34 32 32 33 35 12 19 11 8 13 3 4 6 7 5 7 9 8 9 6 4 4 2 3 4 4 2 4 5 3 4 4 4 6 13 13 15 14 13 9 8 10 8 8 7 6 4 2 3
33 33 33 33 35 36 35 36 38 35 31 21 7 5 5 6 11 9 12 6 7 5 6 7 6 5 4 3 3 4 6 5 3 4 5 6 3 6 6 10 13 14 13 10 9 10 9 9 7 5 5 4 4 5
32 32 31 32 35 36 38 41 42 42 17 4 7 10 8 8 9 6 7 8 4 7 11 11 5 3 3 5 4 6 3 4 4 5 7 4 9 11 11 10 13 15 13 12 10 10 9 9 8 7 6 5 6 6
28 28 31 32 33 36 39 42 46 43 8 5 6 9 9 3 1 2 2 5 5 12 13 8 3 3 3 4 4 4 5 6 7 6 3 3 9 11 13 13 11 12 11 10 12 10 9 8 6 6 6 5 4 4
24 22 28 30 31 35 38 43 49 29 5 5 6 4 4 4 3 3 4 4 7 12 8 3 5 4 5 4 6 10 7 7 4 4 2 7 11 12 13 11 10 10 11 9 11 11 10 9 8 7 6 5 4 4
22 9 17 23 24 28 44 26 8 5 6 6 4 4 4 4 6 6 9 7 11 13 9 5 9 9 5 5 6 6 6 4 3 3 3 8 12 13 12 11 10 12 11 12 12 12 11 9 7 6 5 5 5 4
11 17 20 25 38 35 13 4 3 4 5 3 5 5 5 4 4 6 6 9 9 10 3 4 5 7 6 7 4 5 3 3 2 4 5 8 11 12 11 12 13 13 13 13 13 11 10 8 7 7 4 3 4 6
19 25 37 45 34 10 3 2 1 3 2 3 4 4 3 1 5 4 5 12 2 3 5 3 4 5 4 4 3 3 5 4 5 5 6 10 12 12 12 14 15 13 13 12 10 9 8 8 6 3 4 4 4 3
29 39 40 37 28 3 3 1 0 3 3 3 3 4 2 1 2 4 7 9 3 3 3 4 3 1 1 0 0 1 6 7 9 9 8 7 11 14 13 14 12 14 13 12 10 8 6 5 5 6 6 5 4 4
29 35 30 16 5 5 3 3 3 2 4 2 3 5 2 3 4 5 5 1 2 3 3 3 1 1 1 1 1 4 7 8 7 5 10 10 9 14 14 14 15 14 11 10 7 7 9 8 5 6 6 6 5 4
9 27 8 5 3 2 4 2 3 3 2 2 4 3 3 4 4 4 4 2 3 5 2 2 2 3 2 2 3 6 9 11 13 13 16 20 8 9 8 13 13 7 9 9 9 8 9 8 7 7 7 5 4 2
13 7 5 3 4 3 4 1 3 2 4 5 3 4 3 4 3 3 3 3 2 2 2 2 3 3 5 3 9 11 9 11 7 7 10 11 13 13 14 13 13 11 6 8 9 8 6 6 7 7 6 3 1 2
10 3 3 3 3 3 4 4 3 4 4 4 4 4 2 2 2 2 4 4 2 4 4 6 6 5 4 4 5 3 4 10 12 12 13 15 7 6 11 12 11 9 7 9 10 8 7 6 7 5 3 1 2 3
5 4 4 3 3 5 3 5 3 2 3 3 4 3 3 1 3 4 3 3 6 6 7 7 6 6 5 5 5 3 8 10 8 8 6 13 17 14 11 9 9 9 9 9 8 8 7 7 6 4 2 1 3 4
4 3 4 5 5 5 6 5 6 5 4 3 2 2 2 3 4 5 3 3 4 8 9 11 10 6 5 4 7 5 7 12 16 6 6 12 11 11 7 6 4 4 9 8 10 10 9 8 6 5 3 2 2 5
4 3 2 2 1 4 4 3 3 3 4 5 5 5 4 4 6 2 2 2 1 1 8 10 10 7 9 6 13 16 16 14 11 12 17 14 11 11 13 9 5 11 13 11 10 10 10 8 6 5 3 2 2 4
2 5 7 5 3 2 4 3 4 6 4 4 6 6 8 6 1 2 2 2 1 2 9 13 12 19 21 16 23 26 21 22 25 26 23 18 14 13 13 14 17 18 14 11 10 10 9 8 6 5 3 1 2 4
2 3 3 4 4 3 1 2 3 2 2 4 3 3 3 2 1 1 2 0 3 7 7 7 11 22 24 21 19 19 28 25 16 12 9 6 4 6 16 18 17 15 13 12 11 9 7 7 6 5 2 2 3 4
3 1 2 3 3 2 1 2 2 2 3 3 1 3 2 1 2 1 1 4 4 4 7 11 17 17 11 12 11 11 16 12 10 8 8 6 7 21 19 17 16 14 13 12 12 12 9 7 4 5 5 6 6 5
3 3 4 3 2 1 2 1 2 2 1 2 3 3 2 1 1 2 2 4 8 12 13 9 11 15 16 15 14 9 5 11 11 11 12 20 23 24 20 17 15 14 13 13 13 11 8 7 7 7 7 7 7 6
2 2 4 3 2 1 1 1 1 2 1 1 2 2 1 0 1 1 3 7 8 5 9 12 12 11 15 18 18 13 15 21 19 19 22 26 25 22 19 17 15 14 14 14 11 10 9 9 9 7 7 6 5 4
3 2 3 4 3 3 2 2 2 2 2 2 2 1 1 1 2 1 5 8 6 9 13 15 19 23 24 24 19 23 27 25 24 23 21 21 20 20 18 17 16 15 14 12 11 10 10 10 9 8 6 4 3 3

GFSWCAN_925_spd_114.txt.gz
Wind_Speed
32 29 26 24 20 17 17 16 17 12 9 8 9 9 9 9 8 11 14 17 8 3 2 1 1 2 2 3 2 3 3 2 1 1 2 1 1 1 2 4 4 5 5 3 1 1 6 7 4 4 3 2 6 5
34 32 27 26 23 20 18 20 18 14 11 10 9 9 9 9 10 1 1 14 20 6 3 2 5 7 3 1 2 2 1 2 2 2 1 1 2 1 1 2 1 3 4 2 5 5 1 8 4 5 3 1 4 3
36 34 30 27 25 23 20 22 20 16 13 11 10 10 10 8 8 7 2 16 12 2 4 2 3 7 6 5 5 2 2 2 1 1 1 0 3 3 3 5 4 5 3 3 3 4 6 7 3 3 4 2 6 4
38 35 33 30 27 25 23 24 21 17 15 12 11 11 10 7 5 9 7 18 15 4 2 1 1 2 4 6 8 6 3 0 2 1 1 2 2 2 3 2 3 3 6 6 5 7 2 7 6 7 7 5 3 2
40 38 36 32 30 28 27 26 23 17 16 14 12 11 10 9 8 5 11 14 19 3 1 0 1 4 3 5 8 8 7 3 2 2 1 3 1 1 2 2 4 6 7 5 5 7 6 1 8 6 7 6 3 2
42 40 38 35 32 29 30 27 24 18 17 17 15 13 12 10 7 2 1 15 22 8 2 3 2 3 1 3 6 8 8 2 1 2 3 2 2 2 2 4 7 9 7 6 5 5 5 8 8 5 6 5 4 1
43 40 39 37 35 32 32 30 25 18 18 18 16 13 12 12 11 5 2 1 12 15 0 3 2 2 3 1 2 2 3 2 2 2 2 2 3 4 2 5 6 9 10 8 8 9 4 5 5 7 6 6 5 2
47 41 39 40 37 34 35 32 25 20 19 16 14 13 12 12 8 8 17 14 16 6 1 3 2 2 9 3 2 1 3 2 3 2 0 3 1 3 6 11 6 5 8 8 9 5 3 8 7 7 8 7 4 2
47 44 40 41 39 39 39 34 24 23 21 19 14 12 10 6 6 5 7 8 15 3 4 4 5 3 4 2 2 0 1 2 1 3 3 4 4 7 10 8 9 9 10 10 8 8 7 8 8 8 7 7 4 4
47 44 41 42 40 43 41 31 25 24 22 18 13 6 3 7 10 11 4 2 1 2 3 4 3 4 4 3 2 2 2 3 3 4 3 4 5 12 11 11 8 13 10 12 12 9 8 7 8 8 7 6 5 4
46 45 42 42 44 46 40 30 30 27 23 12 5 3 6 20 6 2 3 4 4 5 5 5 5 5 3 3 3 3 3 2 2 4 4 3 4 5 9 14 8 11 11 13 6 7 8 8 9 7 7 6 6 4
47 45 43 46 50 47 35 33 34 29 16 17 13 10 9 3 3 6 6 5 7 7 6 7 6 4 3 3 3 2 3 1 6 4 2 4 5 4 4 6 8 11 10 11 8 9 9 8 11 8 8 7 6 5
46 44 47 51 50 39 37 37 37 28 31 17 4 5 4 4 10 9 12 6 6 4 3 4 4 4 2 1 3 3 4 5 2 2 5 6 3 4 4 7 7 9 9 10 9 13 14 12 14 14 9 8 8 6
46 50 51 49 41 38 38 39 42 38 13 4 6 8 7 7 8 6 3 5 3 6 8 10 4 4 3 4 3 5 4 3 4 4 7 4 7 8 7 6 10 12 12 11 10 10 9 13 11 12 12 10 9 8
49 49 46 39 40 39 39 40 44 39 8 5 6 9 11 4 2 3 1 3 1 9 10 4 3 3 3 4 4 3 2 7 7 5 4 4 6 10 10 10 10 11 12 10 8 8 9 13 12 10 9 10 9 7
43 33 32 37 37 38 41 42 45 23 5 4 7 5 4 10 5 2 2 2 3 8 7 2 5 5 5 5 6 10 6 7 4 4 3 5 8 10 10 9 10 10 10 9 12 14 14 13 11 10 11 9 8 7
36 9 29 37 38 38 39 31 22 6 7 6 5 4 4 3 8 5 5 5 8 10 6 3 8 10 3 3 5 6 6 4 3 2 1 5 9 11 11 11 10 10 9 14 14 14 13 13 12 11 6 10 8 6
12 24 28 38 38 36 28 11 4 7 8 4 6 4 2 2 4 4 6 6 8 4 4 6 4 6 8 8 4 4 4 2 1 2 2 5 7 8 11 12 11 16 15 17 16 16 17 16 10 8 10 10 7 6
24 30 31 37 37 10 4 4 5 5 2 3 4 6 3 2 1 2 4 7 5 3 1 1 5 4 4 3 4 4 4 4 4 3 3 6 9 10 12 16 17 15 17 17 17 13 15 15 11 9 9 8 6 6
25 28 33 42 36 4 4 2 5 4 4 3 4 6 3 2 5 4 4 6 6 4 5 4 5 4 4 3 2 2 3 7 8 7 7 6 8 13 12 14 10 17 17 19 16 14 13 10 8 7 7 7 7 6
24 29 39 28 5 5 2 3 2 3 4 3 7 6 3 3 4 4 4 6 3 4 5 4 4 2 1 2 2 2 4 8 9 6 10 9 8 13 12 15 19 16 13 11 7 10 11 8 6 8 9 8 7 5
15 34 7 5 3 2 3 0 3 4 4 4 5 2 3 3 4 5 5 3 4 7 3 3 2 2 2 2 1 1 5 7 9 11 14 18 9 9 8 13 14 7 10 11 12 10 10 10 8 8 9 9 6 5
19 11 4 3 4 3 3 1 3 4 5 7 3 3 2 2 3 5 4 4 4 3 3 2 2 4 3 0 4 4 9 10 7 8 10 10 15 16 15 14 15 12 6 10 12 12 14 11 10 10 11 9 7 5
12 3 3 3 4 4 3 2 2 3 3 3 4 4 3 3 2 2 4 4 3 5 6 7 5 5 2 1 2 1 4 10 10 10 16 16 9 9 15 13 15 13 12 15 15 14 14 14 13 12 11 9 6 5
5 4 5 3 3 5 4 4 3 2 3 4 4 2 3 4 4 4 3 2 6 8 9 12 9 6 4 3 3 2 9 14 9 9 7 16 20 18 13 14 15 14 15 20 15 17 16 15 13 12 10 8 6 4
4 2 3 4 3 5 5 5 6 5 4 3 3 2 1 2 3 5 4 5 7 9 11 13 13 10 7 5 7 5 7 19 20 7 8 15 16 15 9 8 5 7 14 15 21 19 17 15 14 13 11 8 6 4
4 3 1 2 3 4 4 2 2 3 6 6 4 5 4 5 7 4 1 2 1 2 6 14 12 10 10 8 15 19 14 19 15 18 22 19 15 17 20 14 7 16 19 17 17 19 20 18 15 12 10 7 5 3
3 3 6 3 3 1 5 3 5 7 5 3 5 7 9 8 4 1 1 2 3 2 11 15 15 19 19 18 23 29 25 30 32 29 25 21 16 15 15 17 20 23 20 17 18 17 16 16 15 13 11 8 5 3
1 1 4 3 3 3 2 3 3 1 1 3 4 3 3 2 1 1 0 1 2 4 5 8 12 24 23 22 18 20 28 31 16 14 11 6 3 6 20 25 25 24 22 21 17 16 15 14 14 12 10 8 7 6
3 2 4 3 3 3 1 1 1 1 1 2 2 2 2 1 1 2 1 0 1 2 5 12 18 20 12 11 9 11 14 13 13 11 10 9 9 26 26 26 25 24 22 22 23 21 17 17 14 13 12 11 9 8
3 2 4 3 2 1 1 1 1 0 1 1 1 2 2 2 1 1 0 1 4 11 13 8 9 17 18 14 10 9 5 10 12 14 14 24 31 32 28 26 24 23 22 22 21 18 17 15 14 14 13 12 10 8
2 2 4 3 2 2 1 2 2 1 1 2 1 1 1 1 1 1 2 5 4 4 11 13 9 9 16 20 18 12 18 22 19 20 28 31 34 30 28 26 24 22 22 21 19 17 16 17 16 14 13 11 9 8
2 2 2 4 3 3 3 1 2 1 1 2 2 1 1 1 1 1 4 5 2 6 11 15 19 22 25 25 22 23 27 24 23 25 28 31 31 30 28 26 24 23 22 21 19 18 18 17 16 13 11 9 7 6

GFSWCAN_925_spd_117.txt.gz
Wind_Speed
32 30 29 26 25 24 23 20 21 19 14 11 11 11 10 9 8 8 5 9 7 2 3 1 2 2 4 2 2 2 3 1 2 1 2 3 2 3 1 3 4 5 4 3 1 1 6 7 5 6 4 3 7 7
33 32 32 29 28 26 25 24 23 22 17 13 13 12 12 11 9 7 4 7 18 2 4 4 7 10 7 4 1 1 2 2 4 2 0 2 1 2 3 3 1 2 6 3 8 5 5 7 4 4 4 5 5 6
37 35 35 32 31 29 27 27 26 27 20 16 14 14 14 12 10 10 5 9 8 1 5 0 5 7 10 9 6 3 2 3 2 2 3 2 3 3 3 5 3 3 4 3 2 3 7 9 5 6 5 5 5 5
39 39 37 34 32 32 30 30 29 30 24 18 16 15 14 13 11 12 12 14 11 4 3 3 2 4 6 10 9 8 2 3 1 2 1 2 2 3 3 3 4 5 6 5 6 8 5 7 8 8 7 7 6 5
42 41 39 37 36 34 33 32 31 33 27 20 18 17 16 15 13 9 14 12 23 3 3 3 2 6 6 7 8 8 5 1 0 1 1 3 2 2 1 1 4 6 7 5 7 8 4 5 7 10 9 7 7 6
45 44 41 38 39 37 36 34 33 36 30 22 21 19 17 15 12 7 2 18 19 15 1 2 1 5 8 8 7 8 7 2 1 2 3 3 2 3 2 4 7 8 6 7 5 3 4 4 6 5 7 8 7 7
50 47 45 42 41 40 38 37 37 39 32 24 23 20 18 17 17 5 1 2 15 22 2 3 3 2 7 5 3 1 3 3 3 2 3 2 2 4 2 5 5 10 14 8 5 7 2 4 6 7 7 8 11 7
54 51 47 44 43 43 41 39 42 40 33 27 24 21 17 16 12 13 19 12 6 7 3 3 3 1 7 3 3 3 2 1 2 3 1 3 0 2 6 7 12 5 7 8 12 4 6 7 7 7 8 8 7 6
54 52 49 47 46 45 44 41 45 42 32 27 23 20 16 8 6 6 7 4 14 4 3 3 5 4 3 2 2 1 3 1 1 3 3 4 4 7 10 11 8 12 10 9 9 7 8 11 10 9 8 8 7 7
54 54 50 50 47 45 46 45 49 40 34 31 26 7 3 9 11 16 4 2 1 3 3 3 2 3 4 2 1 2 1 3 2 5 3 4 5 10 10 16 13 10 13 13 9 7 8 8 11 11 11 8 7 7
54 53 52 51 49 46 47 52 51 45 39 18 5 3 9 22 6 2 4 4 4 4 5 5 6 5 3 4 3 3 3 1 0 4 4 3 4 6 13 15 15 10 13 16 7 12 10 8 12 11 9 8 11 10
54 52 53 52 49 48 54 61 58 42 25 19 17 19 11 3 2 4 5 4 6 7 5 6 6 5 3 3 3 3 4 2 7 3 1 4 6 6 5 7 7 11 14 13 7 12 11 11 14 10 9 10 13 13
53 53 53 51 49 50 63 66 61 39 42 25 5 5 5 4 7 8 10 6 6 5 6 4 4 4 2 1 2 3 6 7 3 2 5 6 6 6 6 4 5 7 11 13 8 13 15 13 19 17 12 17 15 13
51 51 51 50 48 59 66 64 52 50 19 3 6 8 7 7 9 7 5 6 4 3 8 9 3 4 3 4 4 5 5 4 3 4 7 4 8 8 6 5 6 8 11 13 11 10 9 13 13 20 20 16 14 12
48 50 51 49 55 68 68 65 58 40 6 4 5 8 11 5 1 3 3 4 3 7 9 4 3 3 2 3 4 3 1 7 8 6 5 7 4 6 9 8 8 9 10 11 11 12 11 16 15 15 17 16 14 12
47 42 33 49 67 69 65 61 40 10 4 4 6 4 3 8 3 3 3 2 3 8 3 3 4 4 4 4 5 9 6 8 4 4 4 3 5 5 7 6 7 8 11 10 13 16 15 15 13 14 13 14 14 13
39 7 43 66 66 66 62 28 9 4 6 5 4 5 4 4 9 4 4 4 7 9 4 3 7 10 2 5 6 5 6 4 4 4 4 6 7 9 9 9 9 9 10 13 14 17 15 19 18 14 7 13 12 12
9 40 62 66 62 55 30 6 4 6 9 4 5 4 6 3 6 5 4 5 5 4 3 6 4 5 7 6 4 4 4 4 3 4 4 5 6 8 10 13 10 14 12 14 17 18 19 17 11 9 15 13 13 12
40 58 63 62 47 15 5 5 5 5 5 3 2 5 4 3 1 3 6 9 3 2 4 2 5 4 3 3 4 4 4 4 6 5 3 5 7 10 10 13 16 14 16 16 16 14 14 16 15 16 15 16 13 11
51 62 65 54 35 4 4 2 5 3 4 4 3 6 4 3 4 3 5 7 4 3 3 4 4 4 5 4 4 3 3 2 3 2 2 3 6 12 12 13 10 17 16 16 16 17 16 13 13 15 15 14 11 10
44 45 55 41 5 5 3 4 3 3 5 2 3 6 2 2 3 4 4 4 5 4 5 5 10 7 5 3 2 3 6 3 6 5 4 5 6 9 10 14 20 18 13 12 6 11 15 12 17 14 13 11 9 8
18 44 12 8 3 2 3 0 4 3 3 4 6 3 3 3 4 5 4 5 4 6 6 7 8 9 4 6 5 8 9 8 7 4 7 14 9 9 10 13 13 9 10 13 14 11 14 14 12 13 13 12 11 9
27 12 4 3 4 3 3 2 3 2 4 7 5 4 2 2 4 5 4 4 5 5 7 4 5 5 6 4 5 6 8 9 4 4 6 5 12 15 16 18 21 13 9 13 18 17 14 15 13 15 15 13 14 12
18 4 4 4 4 4 4 3 3 3 3 4 4 4 3 3 5 3 5 4 6 4 7 11 7 5 2 5 5 4 4 12 8 7 12 10 8 9 18 16 18 17 18 21 20 19 18 18 16 17 16 15 13 11
6 4 5 4 3 5 4 5 3 3 4 4 4 2 3 3 3 4 4 4 7 10 11 11 11 13 11 7 5 4 11 14 8 8 12 18 16 16 14 16 17 20 23 22 16 20 20 20 18 18 16 15 14 11
4 1 3 4 3 5 5 6 6 6 4 3 5 3 2 3 3 7 4 4 7 8 11 13 13 12 11 10 10 8 10 18 19 8 8 20 20 13 11 10 7 7 21 23 26 21 21 21 21 19 16 13 11 11
4 3 1 2 4 5 4 3 2 4 4 6 5 4 4 5 7 5 1 0 2 2 6 12 12 11 9 6 12 17 23 21 17 14 17 20 19 20 25 18 11 18 25 23 24 27 27 24 22 20 18 14 11 9
3 3 7 4 3 1 5 4 5 7 5 3 6 6 8 8 5 1 1 3 6 9 8 9 13 14 18 18 23 27 24 28 31 31 26 21 17 17 16 16 19 25 24 22 23 23 23 24 23 21 18 17 13 10
2 2 4 3 2 2 3 4 5 2 2 4 5 4 4 2 1 2 2 5 7 4 2 4 7 21 23 22 21 22 29 30 18 18 14 7 4 7 20 26 28 27 25 23 21 21 20 20 20 19 18 16 14 12
3 2 4 2 3 2 2 0 2 1 2 2 2 2 2 2 2 3 5 4 1 1 3 4 11 16 10 11 9 11 14 15 13 11 11 10 9 25 28 32 32 31 30 29 28 24 21 23 21 20 19 17 15 14
2 3 3 3 2 1 1 1 1 2 2 1 1 3 2 2 2 2 3 2 1 7 7 4 4 12 15 12 12 10 6 9 11 12 14 29 36 34 33 34 33 32 31 30 29 28 26 24 23 22 20 18 14 12
2 2 4 3 1 2 0 1 1 2 1 1 1 2 2 2 3 1 2 3 3 3 6 8 6 6 17 22 21 16 21 22 19 23 31 37 39 38 36 34 32 31 29 28 27 26 25 25 24 22 20 17 14 12
2 2 3 3 3 1 1 2 1 2 1 1 0 0 1 2 4 1 3 5 4 5 9 11 13 16 22 25 26 24 27 26 23 25 30 39 41 39 36 34 32 30 29 27 27 26 25 24 23 20 18 15 13 10